GFSCGP_500_rhum_000.txt.gz
RH
14 15 18 17 16 17 18 18 17 15 16 16 16 15 16 18 18 19 21 23 25 26 32 34 35 38 41 48 59 63 60 53 56 54 53 54 59 59 62 60 58 56 56 55
12 13 17 19 19 17 18 20 19 18 18 19 22 18 15 17 21 22 27 31 30 32 34 34 35 42 53 67 75 69 60 63 64 62 60 59 54 51 52 49 50 48 42 40
12 13 14 16 16 14 13 14 16 17 16 18 23 23 26 26 27 28 29 29 30 31 25 30 36 49 50 59 74 71 76 73 60 53 55 50 50 49 44 41 38 39 39 38
18 15 14 15 16 15 11 10 12 14 18 20 22 21 24 23 23 26 27 29 29 25 29 39 48 58 61 64 60 62 60 59 64 73 59 54 48 39 41 42 43 46 47 46
28 28 24 19 16 17 16 14 12 11 18 20 21 22 20 20 21 21 24 27 27 28 41 46 51 54 56 53 57 63 68 73 73 61 54 48 42 42 39 42 41 46 46 50
20 22 22 25 25 19 17 16 15 15 22 22 22 22 17 19 22 23 27 31 37 45 48 50 56 65 66 74 76 72 63 61 60 56 46 40 41 39 41 46 44 47 52 52
13 16 20 20 21 24 24 19 14 16 18 21 20 19 20 23 30 33 36 44 45 51 56 65 69 71 67 65 65 63 58 61 58 48 39 37 58 61 50 45 42 44 46 45
22 23 21 25 26 28 24 21 20 23 22 23 23 27 29 29 34 36 33 37 45 51 54 56 57 56 59 56 52 50 46 45 39 37 40 41 41 41 48 49 50 48 46 37
34 33 33 32 30 26 26 21 23 23 23 23 24 27 30 31 31 32 36 43 49 51 53 53 52 50 45 40 39 34 29 38 51 51 42 47 55 66 78 59 61 59 43 28
41 37 38 34 30 29 31 28 25 23 22 20 25 35 40 37 33 38 45 44 42 44 43 38 37 36 33 33 38 40 40 42 47 58 68 64 92 100 82 62 48 32 29 27
46 44 43 45 37 33 32 31 31 31 32 30 31 35 52 48 46 46 46 45 44 39 37 39 38 38 42 48 48 47 49 50 46 44 45 55 84 83 51 37 32 27 10 2
49 47 45 43 39 38 39 38 38 37 36 40 48 38 54 48 47 46 43 40 38 38 43 49 52 52 48 46 46 48 53 56 57 58 63 72 93 81 84 47 23 13 0 3
38 37 37 38 38 38 40 45 56 52 46 49 50 53 49 49 41 43 43 43 42 47 56 57 55 52 49 51 54 59 68 70 75 81 73 72 70 86 92 56 14 3 3 14
46 54 53 47 40 40 47 58 54 49 46 51 55 47 55 52 51 57 57 55 57 59 51 47 53 56 56 56 60 72 78 81 70 43 54 75 84 100 96 78 19 4 11 42
57 59 66 67 71 68 60 58 57 58 55 53 61 56 64 60 57 53 54 54 53 48 48 53 55 58 63 59 52 61 70 46 58 69 89 99 100 100 88 30 6 9 34 92
59 59 59 57 63 62 62 68 66 68 72 68 64 65 64 53 47 49 58 53 50 59 62 66 63 59 57 52 50 56 46 55 100 100 100 100 76 44 23 6 11 53 100 100
60 65 64 65 63 61 66 63 72 69 72 72 63 55 50 52 55 58 61 59 61 61 60 53 48 50 43 43 51 71 83 100 100 98 48 59 60 31 5 15 58 100 100 100
75 73 68 65 67 66 78 65 64 65 69 76 64 57 55 54 52 57 62 55 60 49 48 49 44 39 44 66 81 100 100 100 97 79 53 91 87 8 21 74 99 97 99 100
70 67 66 63 67 68 74 80 75 67 59 66 63 60 57 50 38 52 65 58 52 51 52 49 48 47 62 83 92 99 95 90 92 96 49 51 14 50 100 98 98 100 98 98
68 67 70 70 79 69 81 83 77 68 57 57 56 55 51 53 44 41 43 49 48 45 50 46 41 56 100 100 100 100 100 100 98 55 30 20 60 87 80 82 86 88 90 67
72 78 79 86 81 70 80 82 75 61 52 50 60 59 55 49 49 46 51 72 57 45 40 40 54 98 100 100 100 100 90 79 45 22 25 62 80 77 80 83 75 37 25 25
73 78 84 76 84 81 80 76 66 63 60 72 70 63 56 63 76 64 58 60 53 42 33 41 72 100 100 100 100 96 54 31 24 28 76 84 88 88 77 35 26 24 18 15
66 78 74 72 75 91 85 82 73 73 76 74 70 62 94 83 85 79 59 43 36 26 41 99 100 100 100 65 48 42 31 26 35 75 88 94 91 49 29 25 18 15 14 17
61 72 61 65 78 84 81 89 84 96 90 82 76 70 66 79 94 51 39 29 16 22 34 86 100 81 40 41 35 30 26 28 72 89 95 82 39 29 21 16 15 19 23 27
84 69 79 70 77 72 78 79 84 87 87 82 71 64 59 46 39 32 15 9 22 44 82 69 45 39 35 32 30 27 29 74 89 95 79 41 26 20 16 18 21 29 37 40
99 98 84 68 70 80 73 73 77 82 77 59 39 37 42 36 22 9 10 21 33 36 43 46 39 29 31 31 27 28 88 95 95 80 38 26 21 18 19 21 35 52 61 77

GFSCGP_500_rhum_003.txt.gz
RH
12 14 14 16 19 19 19 18 17 17 21 19 19 16 16 18 18 20 23 25 27 25 25 25 26 29 33 37 41 42 42 43 46 48 55 55 58 60 58 51 48 44 39 35
11 16 16 18 20 19 18 18 19 19 21 22 20 20 18 20 23 25 26 27 28 25 26 27 27 34 48 49 48 49 44 46 55 62 62 57 52 49 47 40 37 33 28 28
11 12 13 14 14 14 14 13 14 17 17 16 17 17 18 20 20 22 25 26 27 31 33 32 38 44 46 53 60 63 64 76 76 64 56 52 42 33 31 33 31 33 36 36
22 19 16 14 14 14 13 13 11 10 11 13 15 17 17 15 18 23 24 30 36 36 38 42 45 56 58 58 62 78 77 70 55 54 50 44 36 32 35 33 30 29 31 32
24 24 24 23 22 18 14 13 12 11 10 9 14 17 14 16 24 28 27 29 31 38 44 48 53 54 53 55 54 52 57 61 59 51 48 47 43 38 33 34 29 33 35 39
20 18 18 19 20 19 20 18 17 16 13 12 16 15 15 20 25 25 24 29 37 43 44 43 45 48 51 54 59 66 69 63 62 66 61 43 34 37 42 49 50 52 50 50
11 10 10 12 17 19 19 21 21 18 14 14 15 17 19 23 24 24 34 39 42 45 50 52 55 56 56 56 58 61 57 54 51 45 41 40 38 41 42 46 47 47 51 57
23 27 25 26 23 22 24 24 22 19 15 16 18 19 21 26 34 35 33 39 44 48 56 56 51 48 49 50 46 43 40 40 41 41 42 44 50 53 65 75 73 67 63 62
31 35 36 35 32 29 31 28 27 27 25 23 22 25 31 37 36 38 43 46 48 50 46 44 44 45 38 35 35 39 43 46 48 52 55 60 71 78 78 75 77 86 84 60
38 33 34 35 34 33 33 29 28 27 26 26 29 31 48 52 49 43 44 44 42 42 39 36 34 34 35 40 44 49 50 53 56 58 62 70 76 80 85 96 97 74 49 37
36 42 43 41 38 37 37 36 36 34 32 33 33 38 50 48 44 38 37 36 37 39 43 46 46 46 50 50 48 48 51 53 56 63 72 73 80 91 100 65 39 71 65 73
40 38 36 36 36 35 37 38 40 40 34 36 38 42 48 50 46 42 42 45 49 52 51 50 56 56 46 41 43 47 48 51 53 56 59 66 72 92 87 63 62 84 88 51
41 44 48 52 53 52 56 58 59 54 48 48 45 58 53 55 51 47 50 51 49 50 49 45 43 43 42 43 48 52 48 45 44 40 41 56 69 78 85 73 87 66 50 56
42 46 52 54 56 52 51 58 66 66 63 59 59 56 72 60 52 54 52 48 45 46 43 42 44 40 36 39 42 44 48 48 49 51 51 64 80 84 97 89 76 72 65 28
46 46 46 48 57 54 52 63 64 66 68 61 64 66 62 55 59 57 54 53 50 48 44 42 36 34 36 42 46 48 48 43 40 64 99 100 94 100 90 87 57 36 22 36
50 48 46 47 54 56 56 66 71 71 69 64 65 64 65 67 63 57 53 50 45 41 38 38 38 42 46 48 47 47 43 45 49 100 100 100 93 87 82 54 25 27 64 83
60 60 58 55 56 51 54 64 77 79 86 80 73 66 63 65 60 58 54 50 48 45 46 48 52 52 55 82 64 49 45 32 45 86 100 93 62 33 25 21 47 79 81 81
58 53 51 44 53 54 62 72 65 69 76 72 66 64 65 59 58 60 56 54 54 57 59 68 70 83 100 47 40 28 17 50 95 100 87 35 31 25 24 60 83 76 80 76
53 50 47 47 50 48 71 75 77 73 69 69 63 62 64 63 54 61 64 65 65 62 77 100 100 100 66 34 19 19 48 100 95 92 51 29 22 32 74 78 76 72 58 34
56 54 51 54 50 51 78 73 71 65 62 59 56 56 52 56 51 56 64 66 62 64 65 96 100 99 32 15 19 48 84 81 54 31 27 26 32 66 86 80 68 42 27 21
62 61 56 56 53 57 67 65 55 52 49 49 54 58 56 62 66 74 73 62 72 92 92 91 67 23 11 32 68 69 49 44 30 28 28 40 91 98 90 61 34 21 19 16
64 61 61 52 61 56 54 50 52 56 56 61 66 67 77 73 75 76 57 40 40 44 39 24 12 17 55 67 56 46 37 28 29 27 46 98 100 88 53 27 22 19 18 19
66 74 75 67 66 72 63 56 58 61 69 64 67 69 72 81 75 60 51 54 47 24 12 16 28 49 52 51 43 36 28 29 27 27 96 100 86 53 26 24 21 20 22 29
74 85 84 74 83 70 73 78 81 83 76 81 88 85 78 74 61 61 63 47 30 18 20 28 40 47 42 42 35 26 28 27 24 87 97 88 60 31 27 24 21 23 31 40
81 82 85 71 77 72 95 96 89 87 90 85 82 78 71 67 67 63 51 39 27 21 27 37 39 34 38 32 28 30 29 22 70 99 93 68 39 32 28 23 23 29 53 79
75 82 74 71 71 74 77 81 84 83 79 74 72 73 71 65 57 51 38 22 23 28 37 34 32 34 26 25 28 28 25 41 94 100 75 51 37 34 30 22 27 56 90 84

GFSCGP_500_rhum_009.txt.gz
RH
18 36 70 18 18 21 20 18 20 17 19 20 20 20 18 19 18 20 24 27 30 33 32 27 29 36 41 46 55 54 42 54 60 64 74 75 68 60 58 56 51 44 35 28
19 21 20 19 19 19 18 19 19 20 21 22 22 21 20 22 25 25 26 28 28 28 28 30 33 42 42 53 52 68 57 62 69 72 85 81 66 60 57 46 37 34 32 32
20 18 18 17 18 17 15 14 13 14 15 18 22 21 17 19 21 23 23 22 25 26 27 32 41 46 54 66 69 69 68 73 79 85 70 67 65 58 47 37 36 37 42 46
15 12 12 13 12 14 14 16 14 13 14 50 13 90 69 31 21 22 22 23 26 26 33 45 53 55 63 69 77 82 81 70 66 78 68 64 53 41 38 38 40 48 53 59
23 25 25 25 24 23 21 21 22 22 20 20 19 18 95 68 31 24 26 28 28 34 44 47 43 48 57 70 72 63 61 65 66 53 47 43 40 44 75 72 59 91 91 72
16 18 16 15 15 15 15 17 19 19 21 27 40 25 99 100 34 26 26 26 28 31 34 38 44 46 50 56 60 66 63 49 44 44 49 49 53 59 78 72 74 76 72 58
15 12 14 18 18 14 12 14 24 28 25 68 33 28 64 29 36 32 30 30 34 39 44 50 56 56 58 59 55 52 50 52 50 52 58 59 62 67 72 69 54 46 42 42
20 22 26 29 29 30 30 30 30 32 34 55 29 49 78 32 33 35 39 42 47 56 59 58 57 58 53 54 56 58 54 52 49 50 56 57 57 56 47 42 44 48 45 46
20 24 23 27 30 33 36 35 34 34 32 30 34 46 48 38 39 44 45 42 49 59 57 57 58 56 59 56 50 50 54 55 50 47 48 48 51 52 53 59 59 49 60 61
24 30 34 34 32 32 33 32 33 32 34 35 81 54 100 70 54 42 48 52 60 65 66 63 61 59 55 53 55 53 52 53 53 51 52 54 55 61 61 65 63 60 84 73
28 33 35 38 38 39 38 39 42 45 48 50 45 59 74 68 60 60 62 66 72 71 67 64 62 61 60 59 56 54 51 49 46 48 49 49 46 49 52 58 74 97 94 20
34 34 35 36 37 38 40 43 44 50 52 49 54 53 51 60 64 58 64 61 64 65 67 64 64 63 56 50 50 43 39 41 43 47 49 54 54 58 77 100 90 51 19 17
30 36 33 25 23 23 32 37 40 45 50 55 59 69 74 79 79 75 74 72 70 62 63 62 59 57 52 46 37 33 33 40 47 50 53 71 100 100 79 22 19 20 18 20
28 28 31 34 38 31 35 41 41 42 42 45 65 66 77 97 85 84 76 69 64 65 58 53 48 41 35 31 32 39 42 46 53 56 54 53 46 30 23 19 18 21 19 14
25 27 32 38 38 31 34 41 43 48 50 49 59 67 80 80 74 69 63 59 56 48 42 35 33 32 38 43 47 47 51 53 54 48 41 30 22 20 23 27 27 22 15 19
23 27 36 41 33 28 30 37 38 41 49 52 61 66 61 63 61 54 45 44 40 38 37 36 37 40 40 40 47 55 58 54 47 35 24 19 22 32 34 31 25 16 21 23
22 26 32 37 28 26 30 32 40 41 42 51 52 47 47 52 44 44 40 42 41 38 37 36 33 31 46 61 63 59 52 40 29 19 17 24 36 39 36 27 20 23 26 77
22 23 25 24 22 29 32 38 46 46 48 47 49 46 51 49 49 48 44 43 38 35 40 42 44 61 69 63 59 46 34 24 20 23 28 34 44 37 28 24 24 25 60 89
22 22 22 24 25 36 37 40 54 58 57 52 56 59 56 56 55 57 47 44 42 46 50 52 59 63 62 55 44 35 20 13 24 38 42 46 30 26 27 28 28 50 94 74
22 20 22 23 35 42 44 48 52 56 62 60 60 52 53 56 55 58 53 58 64 65 62 56 55 60 53 44 29 12 16 29 37 36 23 25 26 28 28 31 50 100 81 47
22 20 23 24 44 46 48 49 51 61 75 70 64 62 63 61 53 51 53 58 54 53 58 60 61 53 42 20 11 14 20 25 24 30 26 30 28 41 38 66 100 82 52 41
21 17 18 38 49 48 50 52 52 61 66 65 69 65 57 52 53 57 57 55 60 63 65 60 52 38 15 10 12 15 16 19 21 30 27 34 71 43 87 100 81 54 46 44
21 18 37 50 58 70 60 62 61 64 72 68 63 57 53 54 58 58 57 65 68 66 58 50 32 10 9 10 12 13 13 19 20 17 20 43 47 93 100 76 55 51 49 47
24 37 41 40 70 66 66 67 63 67 62 59 59 59 58 59 62 66 67 65 62 56 48 22 8 10 10 12 13 15 18 16 16 20 24 42 100 100 63 52 55 54 53 48
29 35 46 42 71 72 81 70 69 66 64 64 63 62 66 69 71 64 63 58 53 42 14 9 11 11 12 13 17 17 16 17 20 33 71 96 98 58 37 56 60 61 57 50
36 48 53 68 80 86 80 80 72 67 72 67 68 69 70 67 59 56 52 52 33 10 10 11 12 14 15 18 16 18 20 33 64 86 89 94 58 31 46 66 65 61 58 55

GFSCGP_500_rhum_012.txt.gz
RH
17 31 83 21 24 43 67 58 44 74 16 16 16 22 21 23 22 21 24 28 37 39 32 25 29 41 37 44 46 50 66 86 82 60 68 72 75 89 87 72 46 49 33 36
23 24 32 24 17 17 48 43 26 18 19 21 22 32 19 22 24 22 24 28 30 30 28 24 31 37 39 55 58 56 70 77 86 79 68 79 97 75 65 56 45 36 38 53
16 21 22 22 23 25 24 22 18 21 16 17 22 64 23 24 27 26 22 21 23 26 27 26 31 46 55 55 68 82 87 98 96 81 68 76 68 66 55 49 62 47 49 58
14 13 14 14 14 15 16 17 17 18 19 41 30 86 97 73 55 48 32 26 27 23 22 24 34 43 52 74 84 84 70 66 99 82 70 68 56 52 54 58 60 56 55 56
22 22 23 22 23 25 20 23 22 22 22 25 29 36 96 85 62 50 46 46 28 28 29 35 36 40 55 59 60 59 68 70 66 61 55 54 58 53 53 52 49 47 43 40
16 18 18 17 16 16 16 17 17 17 19 20 51 85 96 97 81 90 61 30 30 31 34 39 44 48 56 64 67 70 66 56 51 54 57 52 51 47 44 41 41 44 47 51
15 14 14 17 20 23 22 16 16 53 58 71 82 80 66 66 94 80 48 34 36 42 50 48 47 50 50 55 57 61 66 63 58 48 47 51 46 45 43 38 42 43 46 50
36 27 25 29 29 30 32 34 36 39 64 50 64 52 72 63 71 80 55 58 53 42 42 47 55 58 60 64 66 62 61 60 58 59 49 39 32 36 39 44 47 50 52 57
24 26 25 30 31 32 31 35 33 33 34 34 37 98 100 85 90 69 59 57 52 52 56 58 61 62 66 68 65 60 54 52 50 47 42 40 37 34 38 41 44 44 49 59
22 29 30 29 33 35 36 37 36 36 38 39 80 98 99 86 95 96 62 60 50 58 70 66 69 70 65 59 52 43 40 33 28 28 30 26 30 36 44 45 42 44 44 52
28 34 36 37 37 34 30 30 32 39 45 45 45 57 70 73 76 73 74 76 70 77 81 81 72 59 48 40 40 33 27 29 32 25 28 36 43 45 45 43 39 34 25 19
33 34 35 30 27 26 25 26 28 29 38 37 37 42 50 52 60 84 71 66 73 74 73 63 56 45 34 31 32 33 35 26 28 33 37 49 50 46 41 33 24 17 14 19
28 27 27 24 21 18 23 24 24 23 31 40 41 51 62 84 100 98 65 84 71 64 50 37 38 40 41 39 32 32 32 36 36 43 53 53 46 38 25 17 11 20 25 27
23 25 28 33 33 31 27 25 26 27 26 31 45 47 61 88 88 77 92 66 59 40 40 41 40 39 35 35 37 39 39 41 52 57 47 44 33 12 8 14 18 24 25 25
21 23 26 30 27 28 23 26 28 30 36 41 42 44 69 53 63 40 53 49 43 47 47 47 39 34 35 37 39 41 47 52 55 49 40 22 7 7 9 18 17 20 20 20
20 20 22 23 22 21 20 29 29 28 33 44 49 53 58 44 43 48 45 45 47 47 45 40 38 37 39 42 43 44 54 52 48 34 12 11 17 24 17 21 20 22 25 23
20 21 21 20 20 19 19 27 31 31 34 46 52 52 45 49 50 54 45 48 56 48 43 39 39 38 35 39 45 49 50 46 25 8 8 14 28 95 27 100 53 44 21 28
20 21 21 21 20 20 17 24 34 35 39 50 58 61 61 66 68 59 52 56 46 41 40 43 42 37 35 41 46 43 41 21 9 10 10 15 25 42 43 100 100 32 33 89
21 22 21 21 20 18 15 18 37 36 46 44 59 63 69 65 63 58 50 46 42 42 43 44 44 44 45 37 37 39 21 9 11 11 11 15 61 35 72 100 100 33 92 97
22 22 22 22 21 18 17 22 32 39 41 42 47 51 52 53 50 51 48 50 52 51 52 44 44 37 40 43 40 19 10 11 11 10 11 16 18 98 100 96 32 82 84 59
22 22 23 21 21 19 18 25 36 44 46 58 60 57 58 54 52 50 51 51 47 45 45 42 41 43 44 38 16 10 11 9 10 12 14 14 18 100 100 46 94 71 54 57
21 23 23 23 23 20 21 27 31 46 69 55 62 64 63 59 53 53 53 53 51 49 45 46 44 44 35 14 10 10 9 9 14 14 14 13 16 23 47 84 55 44 62 61
23 24 22 23 24 25 30 28 32 61 69 70 70 68 66 61 61 62 57 55 53 49 47 45 44 33 13 11 10 9 11 14 14 15 15 26 51 80 85 56 40 66 66 59
23 30 26 25 27 30 31 34 45 67 82 81 78 70 64 56 61 64 62 61 54 52 48 45 29 12 11 10 10 13 18 16 16 21 42 67 77 85 67 42 50 67 67 60
24 29 32 29 32 32 41 56 68 78 86 86 76 70 66 72 74 68 68 63 58 52 48 31 13 11 9 10 14 19 19 17 20 51 66 70 82 85 69 52 51 71 65 57
37 35 36 34 35 45 57 66 77 93 93 80 71 67 72 75 77 77 72 63 56 50 30 14 11 9 10 13 19 18 20 23 42 67 73 68 76 87 72 59 62 71 67 51

GFSCGP_500_rhum_015.txt.gz
RH
45 21 16 26 49 90 97 80 76 61 20 24 21 36 28 20 25 28 27 25 26 24 20 21 24 26 48 76 43 26 44 37 52 47 56 82 73 74 58 57 53 41 41 47
38 36 56 74 47 53 89 73 42 12 17 22 21 26 24 22 38 28 27 26 27 26 28 31 35 44 66 78 80 63 55 78 56 63 66 76 87 79 67 58 50 51 47 44
24 27 32 27 23 24 24 31 44 25 19 22 19 21 19 20 35 54 58 72 43 32 33 37 39 47 46 35 45 74 83 71 57 65 73 82 79 62 58 58 51 52 56 54
24 21 22 20 21 20 18 21 20 17 16 21 23 38 29 26 43 40 54 45 43 54 57 47 44 42 40 44 50 50 55 66 75 74 67 62 56 59 55 58 59 54 49 43
20 18 17 19 20 19 19 19 21 22 24 26 26 30 96 69 25 39 70 63 76 54 47 34 38 39 45 50 51 61 68 68 65 61 61 60 60 63 63 56 49 37 30 28
20 25 22 19 18 17 15 15 17 18 18 18 37 57 62 71 98 64 73 99 87 95 51 42 44 44 43 49 61 64 65 64 60 62 66 64 55 48 42 39 33 27 26 32
13 14 13 13 16 17 18 19 16 12 20 21 41 60 98 94 73 54 52 58 64 49 48 51 47 42 45 57 61 69 73 72 70 64 47 32 27 23 22 25 26 26 35 44
11 16 21 24 23 23 22 24 24 27 39 50 72 49 70 68 76 84 79 72 74 76 76 67 61 58 62 64 68 64 60 59 54 45 40 35 29 26 27 30 33 40 46 46
19 21 22 28 28 28 30 32 33 33 35 37 43 48 77 96 93 93 100 98 78 94 59 61 65 66 68 65 59 54 43 32 27 25 26 30 27 24 25 32 44 45 45 41
22 28 28 28 33 32 29 30 28 26 29 37 50 64 65 64 76 81 74 95 100 70 79 91 85 80 66 58 48 42 36 31 29 28 27 26 33 33 37 42 44 41 28 13
29 33 33 32 26 21 18 18 21 22 23 29 38 50 56 64 64 66 64 65 60 74 93 85 76 58 46 43 36 31 30 29 29 30 35 38 36 36 38 40 29 15 8 10
33 34 33 27 27 22 20 21 21 24 26 26 30 45 50 57 62 70 99 89 67 81 76 58 51 47 44 45 40 34 33 33 34 31 37 36 33 32 34 20 10 11 14 12
28 27 25 28 25 23 19 19 20 21 22 28 31 44 42 41 51 59 69 68 77 54 44 51 48 48 46 39 38 37 37 35 33 33 32 34 36 33 16 10 10 10 11 28
24 23 24 25 22 20 19 19 20 25 25 22 25 28 44 36 40 49 57 56 47 51 57 51 52 46 37 34 34 36 36 36 34 32 35 36 30 14 10 11 14 14 78 88
18 20 20 22 21 20 20 18 17 18 25 26 28 30 27 37 42 47 52 51 61 60 56 55 47 40 39 38 36 38 40 36 36 37 34 28 15 11 10 9 12 80 100 100
17 19 20 20 20 20 20 19 17 16 20 28 30 37 31 38 52 61 62 66 61 60 53 50 46 44 40 38 39 38 36 36 36 36 27 13 11 9 8 10 16 69 80 100
15 18 20 20 21 21 20 20 18 16 18 25 29 35 42 47 49 50 53 56 61 56 52 47 46 42 41 40 37 37 37 38 36 28 12 11 9 8 10 14 47 82 100 81
15 16 18 21 21 20 20 19 19 18 18 25 33 37 38 45 43 50 60 63 57 54 51 49 43 41 39 41 44 42 41 39 27 14 11 8 7 9 12 14 96 100 79 90
17 18 20 21 21 21 20 20 20 19 20 30 39 39 49 53 58 58 62 60 58 51 47 42 42 46 50 53 50 45 41 28 16 11 8 7 10 12 12 16 95 78 95 90
18 20 20 21 22 20 19 18 19 20 21 28 32 48 63 66 71 72 68 62 58 56 49 46 57 61 60 54 49 45 32 17 11 8 7 10 14 15 16 21 52 70 83 51
19 20 20 22 21 20 21 19 21 22 25 28 30 48 57 65 74 71 63 57 51 45 47 62 63 63 57 55 49 36 19 12 8 7 12 16 17 28 58 70 77 52 50 65
19 20 22 21 21 20 20 19 22 26 28 30 40 53 57 65 73 68 62 55 53 53 61 61 63 62 61 52 39 23 13 9 7 12 15 20 34 60 71 76 72 47 55 66
20 22 23 23 23 25 24 26 30 28 31 40 50 57 61 71 72 65 62 64 60 59 60 64 72 67 55 40 26 15 10 8 11 15 18 26 63 67 72 78 77 65 64 70
21 21 21 22 25 39 43 35 31 32 34 48 57 66 78 78 73 69 64 55 53 61 73 79 72 57 46 28 17 11 9 11 15 17 24 44 70 74 62 78 84 66 66 73
26 27 29 24 28 31 32 35 34 36 53 57 57 75 81 81 76 70 59 56 62 80 94 78 60 46 31 19 12 10 9 14 18 20 29 56 75 72 62 76 84 74 71 76
31 27 29 34 57 37 39 40 41 58 60 64 83 86 84 76 72 64 61 68 94 100 82 65 49 32 22 13 11 10 12 15 17 23 33 58 82 78 69 74 84 81 80 78

GFSCGP_500_rhum_018.txt.gz
RH
43 47 48 64 74 81 95 75 56 69 62 66 78 56 18 13 16 23 25 32 24 26 19 19 31 32 37 66 72 77 88 70 34 32 34 52 80 90 87 70 63 58 56 57
19 22 42 42 47 84 97 96 71 39 46 44 36 30 27 29 26 28 30 31 33 74 63 48 53 72 100 93 92 54 34 31 33 31 64 87 79 77 77 66 63 64 65 64
44 31 21 28 37 58 78 91 77 68 61 30 21 20 20 21 20 25 54 75 89 100 93 86 89 87 76 51 45 41 37 36 44 56 70 77 76 70 66 69 69 65 56 41
28 30 22 26 28 26 29 54 66 47 35 30 24 25 19 17 22 24 35 44 65 98 94 96 94 86 70 48 42 44 48 54 62 69 74 72 70 73 75 74 69 59 47 36
25 22 19 20 22 17 17 19 22 20 22 26 27 37 36 33 25 28 81 90 100 100 100 100 100 98 69 60 63 62 67 66 68 69 71 75 78 78 71 56 39 32 35 35
27 28 28 27 26 26 24 22 21 21 21 20 20 23 26 28 46 77 76 99 97 82 72 97 86 87 76 70 68 60 58 67 72 75 78 65 42 30 26 26 27 30 29 26
22 20 17 15 13 12 15 18 19 17 14 15 18 34 29 51 77 93 90 75 47 41 56 71 84 86 76 66 70 73 78 83 84 57 31 29 26 24 26 28 29 28 27 27
12 13 13 17 20 20 20 22 23 25 27 54 42 51 85 79 60 88 44 40 62 78 98 82 60 80 64 62 65 63 50 35 28 25 24 23 28 30 28 27 27 26 28 31
18 22 18 20 25 26 28 30 29 29 32 35 34 33 32 31 34 38 50 99 100 98 78 55 70 71 68 59 40 39 33 30 31 33 32 33 33 31 30 30 31 34 33 30
20 22 26 27 30 27 20 20 20 21 22 25 24 28 29 36 50 44 54 66 69 60 54 76 82 80 58 42 45 46 42 36 33 33 37 36 35 34 32 34 37 34 29 17
22 27 32 29 22 22 20 19 20 19 19 20 23 24 29 32 35 41 40 41 46 60 77 90 93 64 49 52 53 50 46 46 47 44 40 38 36 37 39 38 36 28 22 16
30 30 30 25 24 22 19 19 20 21 21 21 22 20 21 26 29 34 40 47 60 70 86 84 53 55 59 60 59 52 46 44 41 37 39 40 42 41 40 38 32 22 14 9
31 29 27 28 29 24 20 18 14 14 15 17 23 24 20 21 25 38 40 47 60 74 72 59 65 65 60 57 49 46 44 45 47 49 46 45 44 43 42 32 20 12 9 7
27 26 25 26 26 23 20 18 16 17 16 15 17 23 25 24 28 33 43 52 54 54 59 67 67 62 53 46 45 46 49 48 45 43 44 46 45 45 37 22 14 8 7 11
24 21 20 20 20 20 19 20 19 19 18 17 17 19 26 30 32 35 37 40 44 52 58 58 55 51 50 50 49 46 42 42 36 38 42 44 46 38 23 14 9 7 10 13
20 18 18 19 20 21 21 21 21 20 20 19 18 18 22 27 30 37 44 50 55 57 58 60 60 60 57 52 46 42 40 34 29 47 51 49 40 25 14 9 8 10 13 14
17 17 16 17 18 20 20 21 21 20 19 19 19 19 22 25 29 39 54 60 62 66 69 70 67 62 60 55 49 36 31 32 53 54 51 40 24 15 11 8 10 14 14 25
18 17 16 16 18 19 20 22 22 21 20 20 20 20 21 26 29 37 51 64 77 81 79 73 68 60 53 46 37 32 43 53 56 54 42 24 15 12 9 10 15 23 36 44
26 25 21 21 20 20 20 22 22 20 21 22 22 24 24 28 32 45 54 59 72 78 78 67 59 52 43 38 35 50 58 60 58 45 30 17 13 9 10 14 30 63 71 61
26 25 24 22 20 20 20 22 22 21 22 26 28 30 30 31 38 47 52 58 69 73 71 62 54 49 42 39 49 56 63 64 51 39 21 14 10 10 13 22 55 71 78 62
22 23 22 22 21 20 21 23 22 20 24 42 39 34 32 36 47 51 56 74 80 77 70 61 53 45 41 44 54 68 70 58 41 21 15 11 11 13 17 40 60 63 73 75
23 22 24 24 23 21 22 22 21 22 36 43 36 34 34 38 50 54 66 79 79 72 66 58 51 49 50 56 72 75 67 50 22 16 13 11 14 15 24 58 68 62 73 79
25 27 25 24 23 23 22 22 22 24 31 47 36 35 38 41 54 53 72 75 76 70 64 61 59 58 62 71 79 71 58 28 18 15 11 12 14 19 33 70 73 66 76 81
28 26 24 25 30 28 26 21 22 33 52 39 37 39 41 52 51 67 73 77 74 72 71 70 70 68 76 82 73 62 37 21 17 12 12 12 14 26 43 76 80 70 72 79
34 27 30 24 26 22 22 25 39 55 42 43 45 44 48 54 68 74 74 75 75 74 77 76 75 82 82 77 67 35 24 19 13 13 14 12 16 32 46 84 96 86 77 87
39 36 33 25 25 24 30 52 53 45 49 47 41 40 51 75 79 76 78 85 90 90 84 83 91 86 82 70 43 33 24 15 13 16 16 14 24 38 42 53 78 92 89 91

GFSCGP_500_rhum_021.txt.gz
RH
63 55 55 68 28 28 12 21 34 35 21 20 15 12 15 16 16 21 23 21 22 28 38 67 54 43 35 58 88 99 99 79 47 48 39 55 75 92 82 72 71 64 71 63
32 26 29 16 34 36 50 38 34 26 44 31 22 24 23 22 21 20 20 28 55 53 80 98 91 83 88 100 90 62 50 43 41 46 47 73 67 62 62 67 72 77 62 36
14 13 23 66 76 75 56 41 60 74 66 53 36 22 19 19 22 23 36 58 96 90 81 70 95 91 86 79 66 74 68 50 42 45 44 47 56 67 74 81 78 54 33 31
30 22 28 50 44 37 42 62 66 74 72 69 47 28 21 22 28 48 42 36 78 77 90 91 92 83 90 86 85 81 70 68 58 62 64 69 81 87 86 76 57 51 56 56
33 37 36 27 22 26 27 28 26 31 51 64 51 27 21 21 23 35 51 61 66 100 78 78 84 63 97 96 81 70 80 71 67 71 76 88 94 94 77 65 58 47 44 42
32 26 23 21 18 19 21 24 25 25 26 31 28 26 21 22 34 51 70 96 77 97 97 76 56 85 87 90 88 85 88 80 83 88 90 90 69 51 45 43 39 35 34 32
23 20 23 24 27 25 23 19 17 17 17 17 16 17 13 17 28 51 74 74 97 90 77 61 100 97 100 93 83 84 78 90 92 74 57 46 39 35 32 31 30 32 31 30
24 22 19 16 16 21 21 21 21 19 21 21 29 29 31 34 35 40 38 38 42 51 90 99 99 97 86 76 67 65 58 41 39 33 30 32 33 31 31 34 34 34 30 33
19 16 15 21 22 23 25 28 28 24 22 21 18 18 24 25 27 28 31 37 39 98 65 65 68 59 68 61 56 41 37 41 44 42 39 37 38 39 38 36 29 27 34 32
15 20 22 27 27 27 21 18 19 20 19 18 17 16 15 16 20 22 25 29 32 37 43 47 51 60 55 39 48 56 54 53 52 48 46 41 38 36 32 27 26 28 28 35
19 24 29 30 24 19 20 20 21 20 19 19 19 20 17 15 15 16 19 25 34 36 37 38 39 40 44 51 60 60 60 60 52 47 45 42 34 30 24 19 23 26 33 38
24 29 32 29 24 23 22 20 19 16 15 15 15 16 17 19 19 18 17 18 22 25 28 29 36 46 54 69 72 65 59 55 54 53 46 38 33 25 20 27 30 34 43 41
30 32 32 30 25 27 24 20 18 16 16 16 16 16 17 18 20 21 22 21 22 27 31 38 45 53 64 64 63 64 62 58 55 48 42 36 28 24 27 29 45 48 44 29
30 34 31 28 28 27 25 21 19 17 16 17 18 17 17 17 18 20 23 25 26 30 37 40 46 53 60 64 67 66 63 58 49 43 36 30 26 25 36 47 48 47 32 20
30 29 26 24 23 22 21 20 20 19 19 19 19 19 18 18 19 20 24 27 29 34 42 51 60 68 74 79 76 72 59 49 44 39 33 30 30 40 55 55 51 27 19 14
28 26 22 20 20 20 20 20 20 20 21 21 20 19 20 20 22 25 25 28 30 37 42 45 54 76 88 84 76 63 56 50 41 37 35 38 43 58 62 56 35 21 16 10
27 23 18 16 17 17 17 19 20 21 22 22 20 19 21 23 34 38 31 30 34 39 42 48 65 79 82 78 71 67 58 47 43 42 45 47 54 61 61 42 22 15 10 13
31 25 19 17 18 16 19 20 21 21 22 22 21 20 21 34 42 39 34 32 36 40 49 59 71 78 80 76 73 62 55 54 50 51 51 56 63 64 48 26 17 11 12 21
31 33 30 24 21 20 19 21 22 22 22 23 23 22 21 34 42 39 34 34 37 47 53 52 68 83 80 75 66 64 60 56 58 60 63 67 67 53 38 22 12 12 15 36
24 29 32 32 29 22 20 22 24 24 21 24 24 22 22 28 44 40 35 37 42 53 51 57 79 83 77 71 67 66 67 64 66 68 71 66 57 49 26 14 12 14 22 50
24 24 27 30 27 20 25 25 26 23 24 24 24 22 21 44 52 41 39 42 49 52 54 74 78 77 74 74 82 74 70 70 72 76 68 58 46 28 16 13 12 17 31 57
28 25 26 27 26 20 27 26 25 24 25 25 24 22 37 55 48 44 45 44 48 50 72 76 81 84 88 89 74 75 71 74 80 70 58 44 28 19 13 14 12 24 46 73
30 42 37 35 32 30 28 25 24 25 26 25 23 30 54 54 48 47 42 39 49 76 86 90 92 93 89 78 80 76 78 85 74 56 42 31 20 14 16 14 19 34 60 93
33 41 36 34 35 33 29 28 27 27 24 24 29 46 51 48 46 40 41 52 82 78 81 85 90 86 86 88 84 83 88 74 54 40 31 21 16 17 19 17 33 40 49 65
28 36 39 29 36 33 31 33 30 24 24 32 43 47 46 46 45 44 61 91 87 88 87 89 91 95 96 89 89 87 69 48 39 33 23 18 18 22 22 28 43 50 50 71
32 43 37 28 32 26 24 25 28 34 38 41 46 49 53 56 60 77 98 100 96 93 92 96 100 100 95 91 86 63 47 39 33 23 20 19 22 25 26 38 44 49 68 95

GFSCGP_500_rhum_024.txt.gz
RH
98 93 98 95 89 73 53 34 29 11 10 10 13 17 20 21 22 23 27 27 29 25 37 42 47 47 48 51 61 95 74 98 77 68 81 72 61 66 66 66 65 61 68 69
100 97 96 86 76 59 39 27 55 37 22 17 21 23 19 18 19 20 21 24 23 29 68 72 41 48 76 93 96 68 53 42 37 41 59 71 71 63 64 65 69 72 68 48
63 74 64 58 59 46 21 25 41 47 64 47 41 34 32 23 20 17 16 16 19 38 76 67 83 93 93 87 70 60 41 44 64 79 64 60 65 67 68 72 70 52 33 32
39 51 48 50 37 28 71 65 45 34 55 61 50 44 35 23 18 17 17 23 28 33 32 50 67 79 96 78 55 51 73 99 91 71 62 63 66 68 64 51 42 43 48 53
26 31 30 39 48 43 39 37 30 26 32 37 35 28 13 13 19 25 28 33 39 36 38 66 98 100 86 59 60 99 99 100 86 74 76 76 84 79 66 67 64 56 50 38
37 44 41 28 33 26 22 24 24 20 19 18 16 17 14 18 20 20 24 34 31 44 48 96 99 76 54 57 100 90 97 86 89 100 96 86 73 63 58 47 38 33 33 31
30 34 33 29 25 18 17 20 21 21 20 18 17 16 15 16 20 32 38 34 49 49 44 47 54 65 99 99 98 84 65 79 96 82 66 48 46 44 41 38 38 39 33 29
28 23 23 19 22 24 18 15 17 19 20 20 20 19 22 24 26 27 28 32 34 37 36 44 96 90 52 50 46 49 63 79 55 43 41 44 46 44 43 46 44 36 31 26
34 33 27 19 16 19 24 22 25 27 23 19 17 16 18 18 19 20 22 23 23 26 28 34 34 34 35 40 44 51 58 43 44 53 56 53 51 52 51 44 36 32 29 24
18 18 15 20 24 25 29 28 21 19 18 18 19 20 18 16 15 16 16 17 18 18 19 20 22 28 33 37 42 46 50 53 56 56 59 62 59 51 43 38 37 32 28 31
15 18 25 26 29 31 22 19 22 22 19 16 15 15 16 16 17 18 19 20 20 20 20 21 22 24 24 27 32 39 48 58 61 66 67 62 54 47 46 41 35 32 34 34
17 27 26 32 34 22 20 21 22 18 16 16 16 15 15 15 15 16 17 18 20 23 25 26 26 25 25 28 37 43 55 66 71 74 71 60 55 52 46 39 36 39 41 47
22 24 30 31 27 25 25 27 23 20 18 18 17 16 16 16 16 18 18 21 26 26 26 27 29 30 32 35 42 52 60 70 76 74 67 61 56 51 48 46 48 44 48 51
23 30 31 33 30 30 31 30 26 22 19 19 18 17 18 17 17 19 21 30 34 34 31 29 31 34 37 41 44 43 51 66 74 72 70 65 59 57 55 53 47 52 52 54
27 30 32 30 27 28 27 26 23 21 20 20 19 19 19 19 18 19 22 31 41 41 36 32 33 36 39 43 42 43 61 79 84 81 72 66 61 60 51 45 52 58 60 50
31 32 31 28 26 23 21 20 20 20 20 20 19 20 21 21 20 19 21 34 40 42 37 34 34 37 42 48 46 60 85 92 85 77 71 67 67 48 48 51 59 64 54 38
30 28 27 22 22 19 17 18 18 18 19 19 20 21 21 22 22 21 21 27 37 44 40 35 36 41 50 55 60 80 91 90 84 76 76 61 54 56 60 64 67 54 37 23
29 31 26 23 21 16 14 15 17 19 23 22 22 22 21 21 22 22 22 22 41 49 43 38 40 46 60 63 72 87 89 88 87 82 66 62 62 65 70 70 52 34 24 14
23 26 30 29 24 18 20 21 20 22 26 25 23 23 22 22 23 24 22 28 50 54 48 44 46 55 65 69 89 92 92 92 78 71 66 68 64 69 68 50 33 23 15 14
23 19 20 22 21 15 18 24 27 26 18 27 25 24 24 23 23 25 24 44 60 61 51 51 51 58 66 84 85 86 88 84 82 75 75 72 71 66 50 33 22 16 15 16
31 33 31 29 24 17 21 23 27 26 27 24 27 26 24 25 26 26 29 56 61 56 54 49 48 59 86 88 93 95 94 87 81 79 75 73 66 49 30 21 16 16 19 16
12 17 22 28 28 24 34 34 34 32 30 28 28 26 27 28 28 27 37 58 58 52 47 45 62 98 100 100 100 100 90 90 84 82 76 62 44 27 19 16 16 19 22 24
9 16 15 18 20 27 31 34 35 34 31 29 30 32 32 34 32 37 52 54 50 49 56 70 100 100 100 100 98 94 97 88 88 79 57 38 24 16 14 16 19 24 26 36
12 16 16 18 32 34 33 28 30 30 32 34 35 34 30 34 48 53 49 53 64 80 94 100 100 100 100 100 100 98 92 93 78 51 35 22 12 13 15 20 24 30 34 42
8 15 20 16 28 27 31 34 36 33 32 31 30 38 52 54 50 53 64 73 82 99 100 100 100 100 100 100 100 98 93 81 51 33 19 12 14 17 18 23 35 38 40 44
22 34 26 21 27 23 26 30 34 34 38 45 54 56 52 47 64 83 78 80 90 100 100 100 99 100 100 100 100 94 89 51 32 17 12 16 19 18 22 30 43 47 45 54

GFSCGP_500_rhum_027.txt.gz
RH
99 95 96 100 94 80 67 50 52 44 20 10 13 16 24 29 44 40 40 43 33 27 23 20 40 49 43 48 69 71 72 98 84 65 34 52 93 78 68 65 61 65 70 71
91 99 96 96 93 78 70 48 43 31 22 18 21 25 32 31 26 24 25 29 26 23 20 20 20 28 41 73 86 80 73 63 41 44 78 80 82 74 61 52 65 63 56 43
92 94 87 86 89 75 67 47 63 69 44 22 32 28 26 29 22 19 18 18 19 18 17 16 22 41 62 54 56 75 72 56 47 78 66 46 52 66 51 63 71 63 52 53
64 89 84 78 69 73 67 52 19 42 44 44 30 26 24 24 19 17 18 20 19 20 21 24 44 72 70 86 93 76 56 39 39 66 72 73 66 70 84 86 74 56 55 58
69 53 61 68 60 58 45 34 73 68 33 36 25 20 16 15 18 22 21 20 19 19 30 48 47 55 80 90 56 41 70 62 72 100 85 44 72 87 81 68 60 57 54 49
88 66 37 51 45 41 43 61 35 36 30 22 15 19 14 18 20 17 18 19 30 42 56 46 37 35 32 40 48 94 100 96 85 52 39 60 73 59 54 54 54 53 49 48
48 44 40 32 36 44 38 31 23 17 16 18 17 15 18 21 21 22 25 28 32 36 36 38 34 30 34 46 61 58 33 28 30 34 44 57 52 49 53 52 51 54 56 46
25 41 38 44 39 32 24 21 22 17 15 18 19 18 17 16 16 16 15 15 16 18 22 22 22 20 20 22 24 24 25 26 30 38 45 45 45 50 56 62 64 57 46 47
29 27 26 26 28 25 22 16 18 21 25 18 16 16 14 14 14 14 15 16 16 16 17 18 19 19 20 20 20 21 23 26 30 32 35 40 50 58 65 67 59 55 56 54
27 28 28 30 21 15 17 23 26 22 17 17 18 19 18 18 17 17 17 18 18 19 20 22 23 24 25 25 25 24 24 26 28 31 38 43 54 70 74 68 67 64 57 51
18 18 19 16 16 23 28 30 20 20 19 17 15 15 15 16 16 15 15 16 17 21 26 26 28 28 28 28 29 29 30 30 33 39 42 54 67 78 77 73 64 54 50 45
13 15 17 20 25 30 28 20 21 22 19 17 16 16 17 16 16 15 16 18 20 26 31 35 37 36 33 31 29 30 32 36 41 46 51 60 73 77 74 65 60 57 47 48
16 17 25 26 28 27 22 21 22 22 21 21 19 18 17 16 16 17 17 17 19 21 25 32 36 40 38 34 32 34 36 40 49 52 54 64 71 72 66 64 65 58 58 54
16 20 27 30 30 26 24 26 26 26 25 23 21 20 20 19 19 20 20 19 19 19 20 24 36 42 41 37 35 37 41 50 58 54 59 69 69 69 72 74 69 66 57 57
19 23 28 29 29 25 22 26 27 27 25 21 21 20 21 20 19 20 20 21 21 21 21 24 32 44 46 41 39 40 47 57 59 58 76 76 78 82 82 77 70 55 58 56
21 22 27 28 26 24 24 23 22 22 21 20 19 19 20 19 19 20 21 22 22 23 23 24 27 44 52 50 43 46 54 65 59 79 82 87 90 90 86 70 58 60 56 46
20 22 27 24 25 22 16 20 20 20 19 18 17 19 19 21 22 22 23 23 23 25 26 25 26 50 60 54 49 52 60 57 83 96 98 98 97 86 71 66 66 60 46 31
21 23 26 26 23 17 17 20 22 22 21 20 21 23 26 29 28 26 26 24 26 27 30 29 31 57 62 56 55 56 55 71 100 100 100 95 80 76 77 72 64 47 32 13
18 20 20 20 20 17 20 21 24 24 22 28 29 29 27 26 26 27 26 28 28 31 34 32 34 54 58 59 56 54 69 99 100 100 93 87 78 83 77 70 52 35 13 11
22 20 20 19 20 18 19 23 24 23 19 25 23 24 25 25 26 30 30 30 32 36 36 34 38 56 60 57 57 80 98 100 100 100 100 99 91 77 77 57 44 14 11 14
15 15 16 18 18 11 23 28 26 24 22 23 28 33 34 36 36 34 34 38 40 38 35 46 59 60 67 78 93 100 100 100 100 100 100 100 82 80 66 50 18 11 14 15
10 10 12 14 14 14 15 15 15 14 17 22 28 34 38 39 41 42 41 41 39 45 57 58 54 71 90 100 100 100 96 100 100 100 100 97 84 68 55 22 11 14 17 17
7 8 8 8 10 14 12 13 15 18 25 31 31 34 36 37 38 36 34 38 57 56 51 61 83 90 89 92 99 97 100 100 100 100 100 92 70 63 32 11 15 17 19 21
8 9 8 7 19 15 11 10 13 16 22 29 33 32 31 32 33 38 50 53 50 51 88 90 91 93 100 99 98 100 100 100 100 100 92 70 66 40 11 15 17 19 22 30
8 8 10 10 14 13 17 20 23 27 29 31 34 39 42 49 56 59 53 43 43 56 89 100 95 100 100 100 100 100 100 100 100 95 76 68 53 16 12 18 18 22 30 43
22 19 18 18 25 24 26 28 29 32 38 44 49 55 60 62 54 47 54 70 84 91 100 96 97 100 100 100 100 100 100 97 90 79 72 60 25 11 17 18 23 32 40 50

GFSCGP_500_rhum_030.txt.gz
RH
99 99 99 99 94 97 97 93 89 66 44 40 40 20 63 78 76 72 53 53 43 34 26 24 22 23 44 49 40 65 74 80 94 96 69 47 40 77 92 80 61 44 44 52
87 100 98 99 100 94 82 72 68 93 75 37 39 42 55 50 46 38 31 27 29 28 25 22 20 23 23 32 53 60 56 58 79 70 50 45 62 92 99 74 52 52 70 73
96 96 98 97 98 95 89 87 80 94 67 43 51 46 37 37 30 26 23 22 22 22 18 18 22 26 47 50 58 59 83 95 76 57 71 69 66 81 66 51 60 72 71 66
93 100 98 100 97 93 87 72 64 80 82 89 63 89 38 26 26 25 21 20 19 20 22 25 32 40 50 45 65 94 86 59 41 45 47 50 48 39 37 46 57 60 62 64
84 84 84 76 82 70 68 66 63 44 57 53 34 44 70 25 28 25 20 21 23 22 25 41 51 54 53 36 30 31 27 27 24 36 43 28 23 25 33 42 50 55 53 56
95 75 60 44 72 67 68 70 54 76 56 47 27 22 63 15 20 21 20 19 17 22 40 44 36 28 22 20 18 18 18 20 21 19 19 20 23 28 35 43 49 50 56 63
89 90 84 62 42 52 56 44 52 32 25 22 18 18 16 19 19 14 14 18 26 28 27 23 19 16 16 18 18 19 20 20 20 20 20 22 25 33 35 34 33 38 51 69
63 58 59 64 62 44 33 41 40 24 20 21 16 18 21 21 18 16 15 15 16 16 16 17 18 19 20 22 23 24 25 24 24 24 24 27 30 30 31 32 38 48 61 68
47 41 36 48 42 38 31 26 24 25 17 20 23 18 15 14 14 14 14 15 16 18 18 19 21 23 24 26 28 28 28 28 27 28 29 29 31 33 38 40 41 52 64 63
32 30 28 28 25 23 23 23 19 21 23 18 19 18 17 16 16 16 16 16 16 16 17 23 26 29 31 32 34 35 34 31 30 30 32 34 37 43 45 45 50 64 67 64
23 28 28 26 26 22 17 19 25 26 20 19 17 15 15 15 16 16 14 14 15 17 20 22 25 27 32 33 36 38 39 36 35 33 35 37 41 48 56 54 66 71 68 65
19 18 17 19 18 15 21 27 27 20 22 19 16 17 18 18 18 17 17 17 17 17 17 18 19 20 24 25 30 38 43 45 46 41 39 41 47 59 59 62 72 68 72 78
9 9 11 14 15 18 27 27 21 22 22 20 20 21 20 19 19 19 20 20 20 20 20 20 21 21 21 22 22 29 43 50 56 48 44 46 53 60 56 78 78 85 85 73
9 11 16 19 28 28 30 23 21 20 21 23 23 23 21 20 20 20 20 20 20 21 21 21 22 22 24 23 24 25 37 56 58 53 50 51 56 55 75 89 94 87 75 70
13 14 18 25 25 29 29 23 22 23 26 25 25 22 21 20 19 19 19 20 21 21 22 22 23 24 25 26 27 27 37 59 62 57 54 56 53 76 95 97 89 82 82 79
16 17 21 23 27 28 27 23 20 23 26 24 22 20 20 18 17 16 17 18 23 26 25 25 25 26 27 29 32 33 42 59 60 57 56 54 92 98 100 96 92 88 85 91
18 22 23 22 25 25 21 23 24 24 25 23 20 21 18 18 18 21 23 25 27 28 29 30 30 30 29 34 38 40 49 60 58 60 73 97 96 100 99 92 97 95 98 74
22 21 19 20 24 23 22 23 24 23 24 26 26 28 27 25 23 23 25 28 31 33 35 34 34 34 37 42 41 51 60 61 71 89 94 100 99 100 98 100 100 99 96 61
20 21 22 20 22 19 22 22 25 25 26 27 24 24 22 24 26 31 33 38 40 40 39 38 40 42 42 43 56 62 68 80 84 90 100 100 100 98 100 100 100 96 66 55
20 18 18 18 19 19 21 22 22 20 18 18 21 22 25 29 31 39 40 41 42 42 44 46 44 39 48 64 66 70 80 91 100 100 100 99 96 100 100 100 79 65 56 53
12 12 12 13 12 8 11 10 9 10 12 9 10 12 16 22 26 34 38 41 44 46 42 40 47 63 65 58 62 90 98 100 100 100 100 100 100 100 100 93 62 60 58 23
8 8 8 8 8 9 9 7 7 7 6 8 11 13 15 18 26 34 39 37 35 40 50 61 66 58 56 54 97 100 100 100 100 100 100 100 100 100 100 96 64 62 38 12
10 10 9 9 10 10 8 6 6 7 9 12 14 18 22 28 30 32 34 41 53 63 65 59 45 54 76 82 90 97 100 100 100 100 100 100 100 100 98 86 61 38 13 12
10 10 8 7 9 8 8 8 9 13 16 20 24 29 32 34 39 48 57 60 57 46 36 61 90 90 92 100 100 100 100 100 100 100 100 100 99 98 90 61 43 16 11 16
9 8 8 8 10 11 16 17 20 25 27 31 34 40 47 53 56 53 48 46 42 47 71 81 88 94 98 99 98 100 100 100 100 100 100 100 98 91 66 55 24 10 16 19
9 8 8 12 18 20 26 30 36 39 41 46 47 47 50 45 43 65 72 72 73 77 86 98 98 98 100 100 100 100 100 100 100 100 100 99 88 71 57 29 11 15 21 22

GFSCGP_500_rhum_033.txt.gz
RH
96 100 98 100 99 97 95 97 85 91 49 78 68 37 23 38 58 80 99 75 61 44 34 30 28 26 26 29 41 37 29 42 66 71 65 58 71 60 52 52 56 51 38 30
87 99 96 93 99 96 92 94 99 71 62 38 49 70 22 67 50 56 52 44 34 32 35 32 29 25 22 23 28 26 29 23 31 38 56 69 54 38 42 30 25 24 24 35
98 98 100 93 97 99 100 98 91 90 73 41 65 79 21 27 36 32 29 28 31 34 33 35 31 31 30 34 30 40 50 41 62 76 45 31 26 26 24 23 22 24 29 33
90 100 95 96 97 99 100 75 76 82 64 46 31 93 95 79 28 38 52 52 34 30 31 32 33 30 28 29 33 31 29 25 26 24 20 17 18 20 21 20 21 21 27 30
98 98 94 95 100 91 97 68 70 78 83 99 98 70 94 96 77 43 44 38 26 24 28 25 20 24 34 37 26 21 17 17 16 18 19 19 20 20 21 21 21 24 25 32
99 96 88 97 69 81 66 59 68 60 93 93 78 98 89 91 82 37 30 29 23 24 22 18 21 29 22 18 17 18 18 20 22 23 23 23 23 24 24 25 28 29 30 32
92 85 68 62 47 41 65 74 90 90 99 79 80 48 75 89 46 24 18 17 17 17 15 18 21 16 17 18 20 22 25 26 28 28 28 28 28 28 30 33 32 34 36 42
100 78 62 58 72 100 47 98 97 94 87 73 73 25 72 21 18 19 19 18 17 18 17 15 16 18 20 21 24 26 27 28 30 33 34 32 32 32 32 34 36 38 43 50
98 99 58 37 56 64 64 49 41 50 25 22 22 80 26 16 15 14 14 14 14 15 16 16 17 22 24 24 25 24 23 24 30 36 38 39 38 39 42 43 42 43 47 51
92 98 58 33 45 42 39 37 28 27 23 22 74 60 87 19 17 16 16 15 15 15 15 16 17 19 20 20 21 19 19 21 24 32 40 43 46 51 55 50 47 47 51 52
76 42 57 29 29 70 28 25 26 24 30 27 23 66 25 16 14 15 15 15 15 15 16 16 16 17 18 18 19 19 20 22 25 26 28 35 47 55 58 57 52 51 51 56
28 32 67 44 24 30 27 19 17 23 28 21 20 23 17 15 16 17 17 17 18 18 19 20 20 21 21 21 21 22 23 24 25 25 26 28 45 61 60 57 53 52 62 88
16 18 19 17 16 16 16 16 24 29 22 21 20 30 17 20 20 20 20 20 20 20 20 20 20 21 22 22 23 24 25 26 28 30 32 34 38 49 57 57 54 74 92 85
9 10 10 14 95 54 16 19 30 24 18 21 20 24 24 22 22 20 20 20 19 18 17 17 18 24 29 29 28 27 27 30 32 36 40 42 48 59 60 62 88 94 86 87
9 8 9 11 15 20 22 26 29 20 20 19 24 28 28 26 22 20 18 17 16 16 20 26 30 31 32 32 31 32 32 34 38 42 43 48 61 65 73 93 94 87 94 97
6 8 13 14 17 24 26 27 29 24 24 26 28 27 28 22 21 18 19 21 25 26 28 30 33 33 32 34 37 35 36 41 45 44 52 66 74 87 91 83 82 100 95 89
9 11 17 17 21 24 24 28 31 31 31 31 27 28 27 20 20 24 26 26 26 27 28 32 36 42 43 42 40 41 46 46 47 60 67 74 92 92 90 100 100 100 100 100
20 18 19 21 25 23 22 27 30 28 29 30 25 25 26 22 26 22 23 22 26 32 38 45 50 50 47 48 51 47 46 55 64 69 73 97 96 100 100 100 100 100 100 100
26 24 26 23 24 23 24 21 26 27 30 21 20 21 22 20 20 25 17 26 31 34 43 48 49 52 52 46 43 54 67 63 60 57 89 97 97 100 100 100 100 100 100 100
28 28 25 24 21 17 16 19 18 19 22 11 15 14 14 14 13 22 17 20 26 35 39 43 41 39 39 51 65 67 57 58 75 80 89 100 100 100 100 100 100 100 100 98
25 25 22 20 14 9 7 6 6 7 6 7 8 7 8 10 10 16 17 17 24 29 32 38 46 59 65 64 51 53 85 88 95 85 100 100 100 100 100 100 100 100 98 91
9 9 9 8 8 8 8 7 7 7 7 7 7 8 9 12 14 16 21 25 27 32 40 51 51 49 44 47 77 99 99 100 100 100 100 100 100 100 100 100 100 100 92 92
10 10 10 11 11 9 8 7 6 6 6 8 8 12 15 20 24 27 32 40 49 48 39 43 59 61 65 80 97 100 100 100 100 100 100 100 100 100 100 100 100 98 90 45
12 13 13 12 10 9 8 7 5 6 8 12 17 23 29 35 40 45 46 45 40 35 64 76 72 74 75 80 94 96 100 100 100 100 100 100 100 100 100 100 96 88 46 19
13 12 11 10 9 8 8 5 10 14 17 24 33 39 41 42 41 36 37 49 63 74 73 73 76 79 88 99 90 89 100 100 100 100 100 100 100 100 100 98 82 33 14 13
12 10 10 9 8 10 11 10 18 25 37 43 42 35 30 31 34 61 77 74 74 77 79 80 84 90 95 95 100 100 100 100 100 100 100 100 100 100 90 53 23 16 16 18

GFSCGP_500_rhum_036.txt.gz
RH
59 58 78 98 98 97 96 95 95 99 60 65 94 91 43 28 23 51 58 66 56 31 33 33 31 31 28 28 27 26 30 26 24 25 30 38 60 54 27 21 21 19 19 21
86 92 97 98 93 98 98 100 96 100 52 48 97 90 64 14 18 18 25 28 27 26 27 27 29 29 23 17 15 14 20 33 39 34 28 35 30 18 17 18 18 19 20 21
97 72 100 94 97 97 96 100 94 99 57 41 95 52 79 16 25 27 20 19 20 20 19 22 20 17 15 13 17 22 30 36 31 27 18 17 18 19 19 20 22 24 26 27
80 84 99 97 98 95 100 90 98 95 95 43 49 97 99 46 37 32 26 25 22 21 19 18 18 18 22 16 19 53 37 23 20 20 19 21 22 23 24 25 26 28 30 32
99 93 83 98 88 96 94 92 64 69 76 73 88 74 60 81 87 46 65 42 31 33 26 18 21 24 23 26 53 28 18 34 39 22 23 25 26 26 25 26 29 30 34 37
90 97 72 87 97 73 60 49 39 41 81 96 96 95 97 91 98 99 94 52 32 29 26 21 19 20 16 23 18 24 54 23 24 26 28 30 30 27 29 34 37 38 41 50
84 90 88 84 57 39 40 75 86 87 72 67 94 82 97 88 52 46 21 16 21 18 17 18 16 16 16 16 18 19 20 24 27 29 29 27 26 28 35 38 41 44 48 57
95 98 72 60 56 92 52 46 96 100 91 92 95 87 78 50 39 48 20 18 16 16 16 16 15 15 17 19 22 24 25 23 22 21 20 24 27 28 31 32 37 42 44 55
88 97 97 83 51 33 86 63 87 90 89 29 37 42 34 65 27 16 14 15 14 14 15 17 17 16 16 18 19 19 19 18 19 20 20 22 24 25 26 28 28 31 54 64
87 94 94 92 47 25 32 37 29 28 24 17 90 88 93 80 48 18 16 15 15 15 14 14 15 16 17 17 18 19 20 20 21 22 22 24 25 27 29 31 32 37 54 59
55 99 98 58 32 34 34 27 26 28 61 31 36 95 80 62 28 16 15 14 15 15 16 17 18 19 19 20 20 21 22 21 24 24 26 28 28 29 30 35 39 47 98 74
41 40 60 39 25 24 26 56 46 22 18 15 25 48 70 55 18 15 16 17 17 18 19 19 19 19 18 16 17 23 28 30 30 31 32 32 33 34 52 42 43 77 68 70
19 22 25 42 57 25 25 27 25 21 15 22 28 25 22 19 20 18 19 20 20 20 19 19 16 15 15 21 24 27 33 36 35 35 38 39 43 46 78 51 88 84 73 90
16 15 17 18 59 94 94 29 15 16 16 31 24 22 39 27 18 17 20 23 22 19 18 19 20 19 22 25 28 30 32 40 41 42 44 49 52 56 53 61 72 78 95 92
11 10 12 11 38 76 76 55 42 22 24 27 21 22 24 42 40 27 23 19 18 23 24 28 34 37 44 31 38 44 44 46 46 47 50 52 49 58 70 61 75 96 96 85
11 12 10 7 10 10 14 17 23 24 28 26 21 22 26 31 22 26 24 25 26 29 35 31 41 48 47 45 40 46 45 48 52 52 51 52 68 70 56 89 81 100 96 92
13 8 6 8 10 14 14 21 28 27 29 30 28 28 29 32 28 16 28 32 26 30 33 34 30 38 42 38 35 42 45 46 44 51 69 70 56 65 83 89 100 86 100 100
15 11 9 9 14 16 19 22 29 28 31 33 32 26 25 29 29 30 24 19 24 17 22 24 25 25 30 40 39 40 40 48 64 67 59 58 84 100 96 91 91 100 100 100
32 26 22 19 18 20 22 21 27 30 36 28 30 29 27 23 24 19 10 11 12 11 12 15 23 29 35 33 39 54 65 65 55 47 70 93 99 100 94 100 100 100 100 100
34 30 27 24 26 26 24 24 23 21 23 17 22 17 11 10 9 8 8 9 11 14 17 24 32 36 42 52 63 65 62 57 59 76 85 86 83 100 100 100 100 100 100 100
31 28 26 26 23 22 19 17 14 11 8 8 7 7 7 8 9 8 10 13 18 24 27 34 41 47 49 44 49 70 78 77 79 85 99 100 100 96 100 100 100 100 100 100
14 13 12 10 9 8 8 8 8 9 8 8 7 6 6 8 13 15 16 20 37 39 40 42 39 40 43 66 75 74 77 82 94 96 100 100 100 100 100 100 100 100 100 100
10 10 10 11 10 10 9 9 9 8 8 7 6 6 7 12 16 23 29 39 42 35 32 34 56 73 79 83 86 91 92 92 98 100 100 100 100 100 100 100 100 100 100 98
11 10 11 12 14 11 9 9 7 8 7 6 7 6 12 24 31 41 42 31 28 35 56 78 84 84 84 84 85 88 94 100 100 100 100 100 100 100 100 100 100 100 92 58
12 12 12 12 12 12 9 7 8 7 7 8 10 13 32 43 42 29 29 48 66 68 77 86 83 79 83 88 92 92 87 86 99 100 100 100 100 100 100 99 81 43 18 14
12 13 13 14 11 12 9 9 8 7 9 15 27 41 43 32 26 33 53 67 77 84 85 85 89 90 87 83 72 66 80 97 100 100 100 100 100 97 75 38 15 12 14 19

GFSCGP_500_rhum_042.txt.gz
RH
46 41 33 39 57 97 75 90 97 96 78 82 84 91 49 29 18 28 26 25 37 29 15 19 23 28 24 27 21 19 22 23 30 60 55 44 34 23 19 20 22 23 25 25
82 66 43 50 60 53 63 89 98 96 99 87 77 95 98 58 12 16 22 24 23 28 18 15 20 24 25 25 20 19 21 41 54 83 41 20 25 21 23 23 25 25 24 24
80 86 55 65 71 80 87 99 99 94 96 85 81 65 62 56 13 21 32 25 26 30 20 16 16 19 21 22 23 20 48 71 76 42 26 36 24 23 23 26 24 21 20 23
68 62 91 98 96 95 78 78 81 90 82 81 67 72 48 22 11 16 72 33 25 32 31 25 31 29 16 20 20 22 70 64 52 32 46 28 23 24 24 24 22 20 21 22
63 79 75 87 98 91 81 71 93 96 70 67 67 55 39 25 33 69 66 60 40 22 25 23 26 20 14 14 31 45 43 43 36 29 23 24 25 24 22 21 21 21 22 24
71 71 71 85 92 95 78 90 78 75 84 75 80 46 88 45 57 74 67 40 41 20 30 37 26 26 26 31 26 45 32 28 27 33 22 24 19 20 21 21 22 24 26 28
76 62 64 86 96 85 74 68 62 65 54 44 86 68 81 93 64 54 53 55 34 14 15 14 26 17 24 18 37 32 17 19 17 20 19 22 20 20 19 20 26 30 29 31
82 89 90 86 85 63 54 44 40 39 30 62 77 57 73 82 78 52 32 25 17 15 15 16 16 23 30 29 43 27 25 18 19 20 35 20 16 32 28 23 24 22 35 65
71 84 88 91 56 82 89 62 68 70 58 59 82 66 51 69 54 32 55 18 17 17 16 16 18 28 33 20 26 19 22 20 22 33 47 27 41 45 20 30 56 75 74 71
75 70 72 92 80 60 60 67 94 85 67 64 38 49 36 29 64 88 71 28 16 15 16 17 19 19 21 21 20 20 19 18 33 31 37 47 78 79 73 79 87 94 78 76
67 68 80 74 82 97 81 57 45 48 53 31 27 38 60 54 71 72 66 66 20 17 18 20 22 22 22 21 20 18 18 18 29 38 79 96 92 99 90 83 90 85 64 64
88 83 64 84 70 91 95 51 45 52 41 31 22 35 44 60 53 60 55 54 30 19 22 23 22 23 22 20 19 18 21 33 60 90 76 96 100 100 99 70 82 75 74 50
55 59 63 51 78 40 32 25 34 55 95 46 26 18 31 33 33 34 33 23 30 20 22 23 22 18 14 15 28 52 53 53 64 78 90 93 96 88 50 37 45 49 57 73
84 45 27 29 60 62 48 52 63 42 26 20 18 17 28 32 30 28 25 16 18 18 16 14 10 12 11 18 36 45 83 99 97 91 98 98 93 56 48 55 66 67 65 64
85 21 18 19 25 22 21 25 43 74 82 45 26 15 26 36 29 25 21 16 15 18 18 14 22 14 33 78 55 50 55 77 86 84 96 100 100 83 72 79 63 71 84 83
40 30 21 16 17 14 13 10 10 24 71 20 23 28 34 39 28 24 22 21 23 25 19 18 18 21 19 30 66 77 95 97 86 78 91 100 78 80 76 56 86 82 82 93
14 11 10 9 9 10 10 8 8 12 20 13 20 21 25 37 35 31 33 36 36 34 31 33 31 21 13 12 16 72 49 80 97 99 74 66 60 60 77 91 91 99 96 86
13 14 11 9 11 12 12 12 8 8 13 15 19 28 39 42 42 41 35 32 31 29 23 17 12 10 11 14 19 38 52 65 69 60 60 75 87 99 100 99 92 100 100 100
24 42 58 37 28 23 19 11 8 14 20 21 26 36 36 36 37 33 28 24 21 14 11 10 10 11 13 18 35 43 41 45 53 75 99 100 100 100 96 100 100 100 100 100
11 84 46 39 39 35 22 14 15 17 20 27 30 33 36 31 26 21 17 14 12 11 9 8 8 13 30 41 39 32 42 64 83 97 100 100 96 90 86 67 49 38 28 29
8 11 23 30 26 22 25 28 22 21 24 32 39 36 31 24 14 12 11 10 9 8 7 9 15 30 38 33 34 47 60 74 89 100 100 98 86 69 21 5 4 4 6 12
10 16 24 29 28 23 28 30 28 31 28 25 20 14 12 11 10 9 8 7 7 7 9 22 35 36 32 32 33 44 69 98 100 96 82 58 18 5 4 4 4 5 8 13
9 18 24 31 28 24 24 17 13 14 15 14 13 11 10 9 8 9 8 8 9 16 29 33 34 34 32 34 50 82 95 90 81 67 38 8 4 4 4 5 6 7 11 18
9 11 13 12 11 10 11 12 13 14 13 11 10 10 10 11 11 10 10 13 17 26 34 36 34 32 45 73 92 90 81 74 51 22 6 4 4 5 6 6 7 10 20 28
12 12 11 11 11 12 13 13 12 12 12 12 12 13 15 14 14 14 16 22 32 37 38 36 44 66 86 93 85 80 67 37 15 5 4 4 5 6 7 8 14 20 27 31
15 17 15 13 15 16 14 13 13 12 11 12 14 16 17 17 16 18 24 34 41 40 40 55 70 90 92 88 80 63 29 9 5 4 5 6 7 8 10 15 20 34 36 35

GFSCGP_500_rhum_045.txt.gz
RH
38 45 44 44 49 69 77 91 92 100 96 93 86 100 69 70 32 44 46 55 40 30 29 26 24 24 24 20 16 17 22 26 37 42 67 64 40 32 19 19 20 23 23 21
42 52 45 35 45 51 62 76 89 95 94 86 89 96 94 75 33 20 35 32 47 41 25 24 23 21 21 17 22 20 20 36 73 67 77 33 19 23 22 22 21 21 18 18
49 62 48 54 59 50 50 66 88 100 80 84 52 68 68 67 39 23 16 19 21 29 30 28 27 29 27 20 17 18 30 70 60 77 40 35 48 29 29 30 21 19 20 20
49 49 62 72 81 75 81 100 97 85 69 68 52 54 52 54 42 12 33 37 20 32 40 41 44 45 42 34 26 24 47 60 57 56 39 46 44 70 86 29 19 20 21 22
53 42 61 82 88 94 90 76 73 73 84 72 74 64 37 34 20 18 52 77 51 40 29 34 29 30 34 52 62 47 62 72 60 38 36 56 64 54 22 20 20 20 21 22
55 63 61 72 90 89 70 78 80 84 82 68 90 79 58 75 33 52 69 57 45 37 39 49 66 62 50 41 57 56 62 72 53 35 33 35 51 25 48 32 18 22 42 26
36 58 50 59 75 90 78 57 50 69 72 62 77 50 85 71 67 57 44 42 19 27 36 65 56 47 45 58 54 52 54 54 40 18 18 24 45 33 52 39 28 49 39 44
33 55 54 71 76 86 76 64 48 52 47 47 38 35 53 60 85 54 36 23 21 14 17 34 41 17 36 46 66 58 70 68 51 36 24 28 43 53 60 38 56 75 88 78
42 48 57 77 100 99 62 52 50 46 44 44 50 51 53 65 76 62 39 18 15 16 15 16 15 27 22 28 53 59 56 41 35 35 34 33 39 52 63 81 87 94 87 84
43 81 60 76 87 75 71 79 64 58 50 58 54 55 62 73 62 43 44 56 20 17 16 16 16 17 18 20 33 25 28 31 30 33 35 28 53 62 85 84 99 92 92 99
41 55 88 72 77 87 90 76 61 47 49 50 45 50 36 31 35 31 71 62 37 25 17 17 19 21 22 23 23 23 22 23 27 33 42 62 75 89 98 94 91 90 93 95
39 44 77 76 92 80 77 88 80 72 50 29 42 25 26 39 38 38 35 66 65 59 25 19 21 24 26 26 25 22 24 30 41 47 50 70 80 84 96 99 96 100 100 100
32 32 37 62 81 67 72 74 97 79 26 29 61 25 24 25 21 19 19 30 47 63 58 29 27 31 28 23 24 40 58 68 60 63 79 98 95 99 100 99 98 100 99 98
37 42 38 36 55 83 79 54 55 34 31 25 34 40 27 21 16 15 17 15 20 20 21 23 24 22 26 28 45 42 42 51 71 77 86 79 88 85 86 90 100 96 95 92
46 54 37 29 29 38 64 89 69 40 46 43 52 45 32 16 15 16 20 22 21 17 20 20 19 20 24 36 40 47 76 83 44 27 97 81 77 82 90 95 100 83 84 91
56 79 58 47 25 24 26 38 35 24 22 16 21 24 26 19 17 20 29 30 27 27 27 24 20 21 19 29 9 25 30 11 11 39 45 80 91 78 79 64 74 87 90 90
58 80 60 41 31 21 17 14 13 11 10 10 9 10 18 15 20 25 31 36 37 35 28 26 27 22 13 8 7 6 6 9 20 40 46 49 43 55 65 79 83 89 81 92
22 21 14 12 16 13 9 11 12 12 11 11 11 8 11 14 24 31 33 33 32 31 29 27 18 10 8 7 7 9 12 24 38 41 37 40 56 65 78 89 92 95 100 98
18 16 12 12 16 21 28 30 26 22 18 13 10 12 17 20 29 36 36 35 30 25 19 11 9 8 7 7 8 13 29 39 35 32 38 52 70 82 91 92 89 100 100 100
15 12 16 21 40 50 50 58 48 26 16 10 10 16 28 37 39 36 30 26 22 13 11 10 9 8 8 9 15 26 33 34 34 34 44 73 89 100 100 87 56 13 6 5
28 31 22 18 12 12 20 32 33 25 23 27 30 37 38 32 29 25 19 13 12 11 10 9 9 8 10 17 26 33 35 34 37 59 86 93 90 85 62 26 8 4 5 5
40 45 18 9 9 15 26 32 32 38 38 48 53 46 37 29 18 14 14 12 11 11 10 10 10 14 22 31 35 37 38 53 74 89 90 85 76 49 18 6 5 5 4 6
37 38 19 8 10 18 25 33 34 38 41 36 27 19 15 16 16 14 13 13 12 13 13 14 15 22 30 36 38 44 56 71 90 91 88 75 48 18 8 5 5 6 7 9
44 25 8 8 10 20 28 28 22 19 18 15 15 15 15 16 15 14 15 16 17 16 16 18 22 31 40 42 45 53 68 90 92 89 76 53 24 9 6 6 6 8 10 13
55 14 9 9 10 13 14 16 16 16 16 15 16 15 15 16 18 19 21 21 21 20 21 26 38 45 45 46 54 70 88 94 91 80 55 29 14 8 7 7 9 11 14 20
49 16 12 16 16 16 16 16 18 18 18 16 16 16 17 19 21 22 25 27 25 26 33 44 51 48 48 56 73 86 92 95 85 59 30 12 8 8 8 9 10 15 19 22

GFSCGP_500_rhum_048.txt.gz
RH
36 30 41 45 56 52 65 85 88 95 74 100 92 73 61 58 51 67 79 40 26 27 29 31 28 29 38 49 36 25 21 23 23 24 25 41 47 66 77 37 19 20 20 20
34 34 45 46 43 44 56 73 79 92 92 94 72 73 57 59 45 38 64 68 52 30 32 33 32 28 24 20 28 24 24 30 54 62 51 71 47 34 68 36 21 21 19 16
40 43 56 52 37 49 59 64 82 89 68 75 79 88 76 59 43 20 31 36 42 42 30 25 24 26 24 22 21 22 21 55 68 72 83 41 39 71 68 39 26 48 20 16
37 50 56 48 44 46 56 60 69 91 84 85 61 55 53 59 58 23 33 35 33 38 48 38 34 46 39 33 22 17 19 57 61 62 45 30 39 57 57 68 52 25 24 25
31 36 42 52 76 81 54 62 67 76 84 66 65 57 73 45 47 28 23 68 83 32 43 61 47 45 42 37 25 43 29 53 51 56 40 32 50 82 82 78 63 63 48 45
25 32 39 49 63 75 55 68 63 66 66 53 58 53 64 74 48 29 17 39 70 57 38 42 49 47 64 64 40 56 72 58 74 83 29 22 34 55 58 80 83 51 62 54
27 39 54 52 55 59 63 64 61 67 75 70 76 59 57 80 82 47 52 63 63 44 35 41 42 80 77 52 62 72 76 81 70 76 59 35 40 56 73 71 78 56 64 56
26 37 50 45 55 62 68 60 63 63 75 67 64 40 34 62 65 83 73 50 41 30 29 29 60 52 43 57 74 92 90 76 93 80 62 63 61 65 77 79 76 88 98 94
29 34 48 48 51 62 72 75 70 57 57 50 44 39 36 52 59 62 53 54 28 18 16 16 21 38 24 27 33 60 92 71 42 26 34 36 58 60 77 83 100 100 100 100
38 61 63 60 56 74 80 79 75 60 53 49 47 47 49 54 68 68 62 67 27 17 17 16 16 16 17 18 23 22 23 32 24 18 22 42 51 67 75 90 91 96 100 97
36 40 72 69 52 90 96 82 78 90 77 59 45 45 53 52 46 59 54 46 50 47 18 17 17 17 18 20 21 23 23 24 24 48 59 69 75 79 92 96 99 100 100 95
36 39 47 52 78 85 70 65 70 74 69 76 66 44 33 40 35 32 29 52 82 72 48 39 34 20 23 24 22 22 25 37 55 69 72 75 83 92 94 80 96 100 95 100
32 33 34 70 79 80 72 80 66 66 74 73 70 22 64 38 25 30 34 28 34 47 69 67 60 55 33 24 25 31 56 57 66 76 86 89 84 87 84 67 66 66 82 100
40 36 33 30 39 70 71 57 64 52 33 40 29 26 35 46 33 28 24 20 14 18 27 41 46 32 27 27 38 57 63 64 66 69 68 62 33 81 54 60 66 71 76 84
37 36 32 38 48 50 47 44 40 38 53 55 54 45 50 45 48 42 27 20 16 21 30 30 27 24 32 32 36 38 48 50 46 16 17 26 60 53 50 50 48 53 54 75
37 58 47 57 55 37 30 36 36 54 57 28 22 16 18 24 29 54 28 23 22 26 34 30 25 21 22 20 17 9 10 8 10 6 8 11 17 30 35 34 34 37 52 67
61 82 51 71 82 78 21 18 20 20 17 16 11 9 10 8 8 12 19 24 33 34 35 32 30 27 23 16 9 8 8 7 6 6 8 12 21 31 36 35 33 42 73 86
73 98 51 51 64 35 19 13 13 10 9 10 10 11 12 12 10 10 14 19 30 32 31 30 28 23 14 10 9 8 8 7 8 10 15 24 32 37 38 43 61 85 92 100
37 66 61 40 24 17 7 11 22 34 32 31 28 23 18 15 10 12 20 22 30 31 30 28 23 12 10 9 8 8 8 9 10 14 22 32 38 43 53 74 87 95 99 100
52 33 56 38 20 12 12 22 38 50 18 27 35 24 16 11 12 19 22 28 30 31 29 17 12 10 9 10 10 10 11 12 17 23 32 39 46 53 72 92 96 92 84 63
46 29 22 23 20 14 22 16 12 12 24 25 25 24 17 14 19 23 29 32 32 20 14 12 11 12 12 13 13 14 16 21 29 38 42 46 54 76 95 96 90 76 48 19
53 54 40 33 36 25 25 11 10 18 25 25 27 26 25 24 26 33 35 23 15 13 13 14 15 16 16 17 18 20 25 33 41 43 46 56 73 88 91 87 79 54 25 13
49 39 42 38 45 41 22 8 11 23 27 26 28 30 30 30 25 17 15 15 16 16 18 19 20 22 22 22 24 26 34 42 44 46 56 73 85 86 85 82 61 32 12 10
56 51 40 48 49 44 16 9 14 26 30 28 25 18 14 16 16 17 18 19 20 20 20 24 27 27 27 28 30 36 44 47 48 56 71 81 85 87 88 74 42 20 13 10
67 63 58 53 58 23 11 9 11 16 15 13 14 16 16 17 19 20 21 21 21 22 26 31 34 35 34 35 42 50 51 50 60 75 82 83 86 88 76 44 21 12 9 11
77 79 75 60 72 19 12 10 12 13 14 16 18 18 19 20 21 21 21 21 23 25 35 42 43 41 43 49 53 56 57 70 81 82 83 87 89 82 54 28 13 10 11 12

GFSCGP_500_rhum_051.txt.gz
RH
21 23 31 22 44 48 51 61 91 98 99 87 88 95 84 70 85 76 45 39 43 62 63 54 57 47 46 43 43 36 24 23 27 30 27 36 45 54 62 98 87 48 26 23
18 24 31 44 43 44 43 52 73 87 93 85 89 91 81 60 67 64 55 46 40 38 34 34 35 46 50 45 36 28 24 26 30 44 48 47 67 56 54 94 48 78 40 26
17 31 40 51 52 42 43 51 57 76 79 99 93 76 70 71 49 35 47 46 52 42 35 35 33 28 27 24 27 26 26 31 46 66 72 70 71 55 48 75 94 75 48 60
19 21 35 48 47 38 42 42 50 74 88 68 79 88 95 76 64 44 40 32 31 32 37 30 28 24 20 19 20 20 18 23 59 69 64 73 44 37 58 79 83 87 81 61
23 18 28 49 54 68 40 39 47 61 72 79 80 68 66 64 55 66 51 100 89 51 33 40 46 39 32 28 20 19 15 20 39 58 71 66 46 39 53 89 91 77 80 83
24 18 25 43 48 64 57 39 42 54 72 68 73 62 75 71 52 52 24 65 93 99 94 45 52 51 43 36 30 26 20 52 59 70 80 74 48 22 27 48 80 90 88 83
30 20 23 42 52 53 63 52 54 57 55 53 64 59 71 83 78 58 30 30 61 75 90 70 68 67 61 57 73 64 52 63 65 77 92 87 79 70 61 62 96 97 98 97
24 25 23 62 55 55 53 61 60 51 55 54 57 59 61 44 59 79 52 58 56 72 82 55 52 63 53 74 76 54 79 88 77 80 98 96 78 49 49 70 93 91 100 100
24 28 28 48 52 47 52 60 62 56 59 69 64 56 56 44 49 56 56 64 74 50 28 40 36 29 48 57 35 61 57 74 89 84 55 42 27 55 80 85 96 92 96 100
25 29 31 39 51 48 56 82 84 77 70 73 56 48 68 63 54 51 55 60 70 73 25 19 19 21 29 30 26 22 25 25 28 31 28 33 71 88 87 95 98 96 100 96
21 29 40 40 63 74 67 75 100 92 70 57 51 51 54 68 52 50 51 66 61 57 59 21 17 17 18 19 21 22 23 28 26 25 47 81 82 87 92 98 92 98 97 94
23 29 33 40 75 78 82 72 82 84 64 60 53 45 61 59 44 40 41 32 30 43 84 74 60 49 50 22 22 24 24 26 25 54 74 70 85 94 91 90 92 99 100 91
22 23 30 39 55 77 74 97 100 83 62 56 52 43 69 39 64 41 28 22 28 31 44 49 48 77 81 71 65 45 30 30 52 70 83 87 88 88 78 84 78 71 75 62
26 23 26 30 41 73 95 100 94 82 70 57 46 39 39 30 46 62 61 39 27 22 18 19 27 51 76 69 47 32 36 50 56 54 63 67 57 49 57 48 73 50 42 43
29 25 25 27 36 50 51 50 51 50 52 50 47 34 53 54 66 51 41 52 35 25 19 15 28 36 38 35 30 29 41 41 35 26 18 11 8 7 11 16 18 24 32 37
39 35 26 27 30 41 38 40 50 43 39 37 33 37 43 23 22 28 29 17 20 20 15 18 19 31 32 28 31 31 29 23 11 8 7 7 8 9 9 12 21 31 36 38
42 43 29 36 45 58 29 38 29 23 19 19 17 17 16 12 10 8 9 10 11 16 20 29 28 30 34 35 32 27 16 10 8 8 8 9 10 10 12 18 30 36 42 48
50 42 31 52 79 41 37 56 46 28 13 11 8 14 16 14 13 12 12 12 10 14 16 22 33 37 36 31 23 12 10 10 10 10 11 12 12 14 18 27 32 40 45 54
94 72 52 48 79 44 20 26 27 13 11 27 37 43 33 38 31 24 19 15 10 14 17 25 35 33 28 16 11 10 12 12 13 13 14 15 17 20 25 31 39 43 51 65
89 78 69 50 62 29 18 26 17 16 16 27 28 27 23 21 25 22 16 10 11 18 28 34 33 26 14 12 13 14 14 15 17 17 19 20 21 26 33 40 44 51 64 80
92 91 68 47 31 14 21 21 23 23 19 10 10 16 22 22 22 19 13 12 18 29 36 35 18 14 14 15 16 16 19 20 22 24 25 25 30 36 42 45 55 72 78 78
92 80 66 60 42 20 21 30 33 44 14 8 10 18 21 22 26 26 24 27 33 35 22 16 15 16 16 16 18 22 25 29 31 31 32 35 40 45 52 65 76 77 76 80
92 87 69 70 58 47 29 29 53 47 12 8 10 19 21 22 26 29 33 25 17 16 16 17 18 18 18 19 22 32 37 39 38 38 38 42 51 62 74 76 76 79 80 80
95 99 94 84 79 58 37 36 57 41 9 8 10 21 25 23 17 15 16 16 17 17 16 18 19 20 20 25 33 41 42 43 42 44 48 57 70 76 74 73 71 69 70 68
90 95 93 90 78 57 47 56 57 26 9 10 11 14 13 13 14 15 16 17 17 17 18 20 20 21 23 30 35 40 44 46 50 53 60 72 78 77 75 74 74 73 70 58
52 64 74 95 100 82 60 74 56 16 14 13 13 14 14 15 17 18 18 18 19 20 21 22 24 26 30 36 38 46 52 55 59 65 77 83 80 74 76 81 80 75 55 33

GFSCGP_500_rhum_054.txt.gz
RH
14 14 24 34 24 34 46 53 100 94 99 83 86 100 83 81 84 63 50 59 76 63 46 38 42 50 59 56 52 38 68 96 88 88 74 51 54 60 68 78 86 88 90 63
16 15 23 37 41 39 38 49 61 70 89 84 100 100 90 87 76 92 58 39 44 58 58 54 54 49 48 45 47 39 27 32 36 35 36 38 56 70 62 63 100 99 93 92
18 16 22 39 48 51 37 43 51 65 67 64 92 100 85 83 69 52 66 59 48 34 34 36 42 44 46 46 40 30 27 26 24 33 62 77 82 82 61 59 76 96 99 99
18 17 16 33 45 41 38 41 38 46 62 99 82 100 84 99 84 65 24 37 43 49 41 31 29 30 28 26 22 23 23 22 23 51 79 72 80 86 42 52 71 98 98 97
22 16 17 26 44 54 42 36 43 47 62 70 68 94 100 78 84 77 60 31 28 32 38 36 29 24 23 24 23 22 21 19 19 28 68 74 73 64 46 45 65 95 89 95
19 17 17 22 33 57 62 39 37 41 47 55 71 78 100 100 79 63 57 31 35 54 60 49 37 31 41 43 37 32 32 31 28 48 62 73 75 76 58 30 21 38 56 82
24 18 20 19 28 48 62 61 67 78 68 71 69 60 90 84 77 83 63 43 33 41 44 67 76 58 40 48 38 32 40 66 51 68 81 89 99 92 94 81 76 55 64 84
23 17 22 21 25 45 66 62 98 96 94 100 58 59 98 62 40 70 85 55 35 60 75 75 99 94 59 54 50 43 70 62 78 88 93 92 98 97 85 45 64 76 86 75
26 22 23 26 22 46 50 51 67 65 62 59 64 67 66 48 44 51 78 79 76 84 71 62 72 71 67 57 54 54 56 61 74 83 96 94 71 85 82 58 82 94 91 98
30 23 24 23 23 32 55 55 68 61 78 75 96 77 98 50 49 46 50 61 71 85 85 62 25 23 26 36 58 62 40 34 33 57 58 34 29 30 57 95 98 96 98 98
26 22 26 27 24 26 41 59 64 84 84 100 97 91 65 61 52 46 46 50 72 75 70 59 33 19 19 20 25 32 27 24 26 28 28 27 29 65 80 90 95 98 96 99
31 25 25 34 30 33 49 80 70 66 93 70 67 55 66 70 68 66 43 39 44 52 72 75 64 49 43 31 22 22 23 25 28 32 30 28 46 59 77 91 96 85 87 97
36 29 24 30 31 35 30 58 80 87 82 67 67 57 57 65 70 54 32 32 33 29 41 76 98 93 86 81 73 54 48 59 63 47 33 47 57 54 53 59 66 46 32 18
46 38 26 24 32 49 47 65 82 100 99 84 64 68 64 56 60 37 70 61 58 48 28 23 23 25 27 41 77 91 86 74 52 31 40 50 46 35 20 10 8 9 10 16
45 34 26 24 32 44 38 52 79 92 69 66 57 57 59 63 44 34 36 50 53 35 44 29 23 20 18 23 33 39 45 44 38 32 41 37 31 10 8 8 10 11 15 22
50 40 28 24 27 32 36 38 47 50 46 38 41 33 37 39 51 52 27 25 31 33 21 18 21 19 24 26 44 53 50 53 41 35 25 11 8 10 11 12 13 15 19 22
57 47 35 26 27 35 22 26 29 34 39 35 25 24 21 22 20 15 13 13 10 10 10 11 15 15 21 28 36 42 40 36 28 15 10 10 12 13 14 15 17 19 23 29
64 52 39 37 34 33 23 33 52 50 40 34 24 14 10 8 14 21 18 12 12 11 12 13 12 15 20 31 38 42 37 27 13 11 13 14 16 17 18 21 22 23 24 28
86 61 54 48 30 26 21 37 55 58 36 26 16 26 23 15 29 27 22 35 31 24 18 16 12 20 24 38 41 36 19 12 13 15 16 18 20 23 26 28 28 28 30 37
95 90 85 69 48 23 24 45 56 53 16 46 28 18 14 11 12 18 20 20 23 22 18 12 17 30 39 39 29 14 13 16 17 17 18 23 29 32 32 32 34 36 41 50
97 100 97 82 57 31 30 30 46 37 19 39 26 15 9 9 14 19 21 22 22 16 12 17 30 37 38 19 14 15 16 16 16 17 26 32 35 36 38 40 41 44 54 66
94 89 86 100 70 38 45 57 34 23 23 26 29 15 8 9 17 20 21 24 26 25 25 31 34 21 15 15 16 16 16 17 18 22 29 33 35 40 45 47 49 56 69 73
83 95 95 78 58 56 72 66 62 32 23 33 39 18 8 10 18 24 25 28 30 31 24 16 15 15 16 16 15 15 18 20 23 26 31 35 44 51 54 56 62 69 75 73
95 97 90 83 87 80 92 86 76 55 38 28 38 28 8 11 22 23 25 20 15 15 15 15 16 16 16 16 17 19 22 25 29 36 42 50 56 60 62 66 70 74 78 71
90 96 97 87 80 99 88 100 99 62 39 36 43 24 9 11 17 14 15 15 15 16 16 17 17 18 18 19 21 27 31 33 39 45 53 59 64 67 66 69 73 74 72 72
60 75 78 75 100 99 91 98 92 61 45 43 46 17 11 12 13 14 14 17 20 20 20 21 22 22 23 27 35 39 42 48 53 58 63 71 74 70 70 73 74 84 85 82

GFSCGP_500_rhum_060.txt.gz
RH
94 81 43 19 14 94 60 30 84 72 96 78 49 62 56 84 97 65 52 56 77 94 89 86 79 66 58 59 51 31 20 35 47 48 42 46 60 41 42 41 48 70 88 98
90 85 40 19 14 24 34 20 40 98 76 54 46 60 88 64 94 61 50 22 44 65 63 52 56 70 60 41 36 36 33 24 21 18 20 24 26 22 23 43 56 65 90 98
86 74 51 19 14 20 32 33 62 99 95 92 54 52 75 66 76 66 55 31 32 28 38 46 38 31 26 29 38 35 31 22 19 18 16 18 37 51 48 51 62 60 60 97
85 95 47 23 15 17 52 95 57 85 97 90 88 88 71 77 82 63 59 40 24 28 25 19 17 18 17 21 22 20 19 20 19 15 14 15 24 48 60 63 75 42 44 52
88 85 44 27 17 16 27 65 57 76 46 68 90 77 95 80 93 97 70 81 36 21 25 34 30 26 26 20 19 19 19 20 21 21 24 25 30 41 42 49 58 57 35 34
93 82 58 32 18 15 19 52 38 22 28 49 63 93 78 97 89 98 81 78 49 24 22 22 38 56 67 64 34 35 36 37 29 29 45 59 44 29 50 67 75 76 80 65
86 87 94 30 18 16 20 38 42 56 80 49 86 100 97 98 86 92 97 70 70 59 21 28 42 46 82 93 92 75 57 50 46 44 64 63 59 63 71 87 91 98 93 69
88 91 84 32 21 19 23 34 44 68 95 96 67 87 77 69 73 75 56 46 62 41 29 20 41 67 64 66 80 77 71 55 50 54 58 62 66 96 92 96 61 43 74 89
93 93 82 53 26 21 48 58 53 90 84 95 94 84 61 79 71 64 41 34 45 72 51 28 43 47 61 49 40 35 47 41 51 51 39 60 94 35 46 29 56 53 44 47
94 98 91 95 50 22 20 71 100 69 77 91 73 64 96 96 82 53 40 38 39 41 64 54 55 57 60 46 32 19 22 33 53 44 29 24 74 63 25 48 97 90 54 62
98 100 100 100 67 34 22 20 44 85 84 76 70 94 82 97 89 62 53 44 42 39 43 57 73 81 72 68 62 26 19 18 17 22 23 32 28 32 91 71 47 66 64 47
99 97 92 96 76 54 32 43 30 40 66 76 61 96 93 96 93 67 59 51 47 48 51 48 57 84 81 67 59 33 19 18 17 25 39 89 83 64 97 75 67 65 53 37
100 90 100 98 90 62 32 75 96 77 58 85 87 66 95 60 74 81 61 64 42 52 44 25 28 47 73 79 62 78 57 57 56 79 94 78 91 87 85 76 79 52 41 42
100 94 81 80 98 81 65 54 82 95 99 57 40 89 99 94 70 74 72 70 50 40 32 27 35 32 34 52 91 79 75 68 82 84 87 84 74 57 50 53 55 66 64 58
94 82 92 88 86 97 80 70 37 82 99 85 100 66 64 94 85 92 83 88 70 95 55 39 29 34 38 36 26 29 29 32 40 44 40 47 47 48 56 57 62 70 52 34
100 95 94 84 87 77 98 100 100 86 84 90 80 88 87 96 99 91 79 65 52 37 35 42 36 18 16 24 37 36 40 27 22 25 53 42 74 92 75 69 43 35 14 14
98 99 99 79 89 90 88 100 97 100 100 98 100 96 87 90 94 87 75 65 29 22 25 46 59 10 14 29 38 12 10 15 32 55 60 71 68 49 42 37 20 13 16 17
96 100 98 100 98 83 63 68 73 85 93 94 83 75 90 85 89 86 87 53 20 16 17 14 14 31 31 35 27 23 17 46 54 49 39 19 28 40 35 16 15 17 17 19
98 98 89 86 93 80 74 87 81 70 42 66 41 48 96 94 99 60 33 21 10 6 8 19 32 28 23 24 33 30 38 29 18 15 21 28 40 37 17 16 18 18 19 21
100 100 92 100 85 82 81 81 69 60 37 35 37 62 76 99 58 28 11 11 21 21 18 19 14 17 19 19 22 27 26 22 17 17 29 40 37 17 17 19 20 20 21 24
99 100 95 89 97 79 80 100 79 62 42 61 85 71 56 91 26 17 13 9 13 9 8 9 12 15 16 17 19 18 16 14 15 29 38 35 17 18 20 21 22 21 28 33
99 100 100 97 87 83 100 99 93 62 67 96 72 68 96 50 28 19 11 13 14 13 8 8 12 16 17 18 18 16 16 22 31 40 27 18 20 20 21 21 22 29 37 48
95 95 100 100 82 99 100 97 97 96 99 98 74 99 74 44 28 20 16 13 13 18 15 8 10 17 20 19 22 25 31 33 24 18 19 20 20 21 21 25 32 44 65 73
91 97 96 99 87 92 100 99 98 97 99 100 95 77 66 40 24 19 16 13 12 21 28 12 9 17 21 22 21 19 18 18 19 19 19 20 23 24 28 37 56 72 73 67
100 100 94 96 100 96 100 99 99 99 96 98 98 99 98 58 46 46 36 28 21 20 30 24 9 12 15 16 14 16 17 18 19 21 24 27 28 33 38 66 80 74 64 61
96 95 93 94 100 99 99 100 96 96 89 95 91 100 100 73 63 54 47 44 40 37 36 27 11 10 12 14 16 19 22 22 24 26 30 38 43 49 62 90 82 78 81 75

GFSCGP_500_rhum_063.txt.gz
RH
94 57 78 91 48 17 11 10 24 60 83 64 74 60 100 70 57 84 48 45 65 64 92 96 84 68 58 42 25 19 30 44 61 67 81 74 72 74 74 80 94 97 96 98
52 67 93 88 60 18 14 12 16 88 49 59 90 58 84 73 67 84 62 42 23 59 51 48 69 53 36 30 32 34 26 18 13 13 14 21 21 21 24 27 33 48 61 84
51 93 84 79 72 18 18 18 28 34 80 94 80 50 92 75 80 69 55 56 38 25 40 33 34 25 22 19 23 18 15 12 12 12 10 11 18 29 36 41 48 45 52 64
44 86 78 84 76 18 17 28 39 40 99 59 83 56 100 100 88 72 53 71 58 22 33 30 18 14 16 15 15 14 14 14 14 13 11 12 19 25 32 38 52 56 41 42
54 88 80 92 65 22 18 41 28 61 53 35 71 48 69 100 97 76 71 97 79 36 18 27 23 45 31 20 19 21 28 30 25 18 17 20 20 26 20 35 43 47 45 37
56 78 86 83 62 29 20 26 22 36 22 27 24 63 69 91 98 97 82 66 53 61 11 16 40 50 51 35 24 29 33 32 28 30 38 54 47 38 53 64 68 72 80 83
55 63 75 83 81 52 21 21 21 31 20 39 51 52 38 70 70 78 76 47 28 34 23 22 47 40 48 54 47 46 32 26 28 30 38 46 44 44 56 72 79 82 59 85
61 61 70 77 89 61 24 27 23 30 50 74 63 46 82 100 66 49 52 45 31 23 26 24 28 40 37 38 41 38 33 25 17 21 32 29 36 39 62 70 76 43 64 55
57 59 82 100 84 44 41 25 46 35 33 90 92 96 83 89 94 70 78 62 32 33 26 30 20 34 42 45 45 39 35 31 24 20 21 23 42 31 52 28 33 87 63 85
59 72 91 100 94 64 56 42 47 52 52 80 74 93 74 90 94 65 67 58 37 39 35 28 25 36 26 42 41 42 41 42 25 24 25 23 17 19 39 46 61 100 97 99
72 84 92 99 91 71 49 34 39 49 61 85 66 91 62 49 72 96 63 70 52 44 43 34 30 34 35 24 30 53 49 48 47 51 30 26 23 32 61 58 97 96 97 74
71 95 90 84 80 72 62 56 30 26 44 98 72 67 78 90 98 91 80 70 63 49 51 46 41 39 17 15 22 29 58 65 80 83 74 42 83 95 97 97 96 99 61 57
82 81 96 97 89 80 73 78 65 37 30 53 75 48 97 75 82 92 68 82 69 57 40 39 46 25 18 16 26 35 67 88 92 92 97 82 56 63 84 83 60 42 32 28
100 95 72 62 81 87 86 79 80 40 61 44 40 44 99 90 93 94 100 99 80 55 51 36 30 35 27 19 21 28 86 53 40 85 98 68 82 74 52 48 34 37 58 64
100 80 74 93 100 95 96 87 61 46 44 64 67 60 65 98 99 93 99 95 87 68 50 46 45 48 25 23 31 36 34 42 59 58 46 36 42 34 44 37 32 60 55 55
99 83 83 84 100 100 90 98 86 73 49 50 83 97 71 93 78 98 98 92 66 86 81 58 33 27 23 29 28 16 19 33 40 35 20 28 36 49 41 54 54 48 33 29
75 78 100 79 100 100 83 75 86 83 90 46 70 50 95 91 98 100 73 83 70 58 40 43 33 18 14 10 17 32 31 41 36 23 26 22 38 36 63 48 19 23 34 31
95 85 98 93 100 92 52 72 83 100 95 81 100 99 100 99 100 96 100 95 87 38 38 32 21 13 8 17 28 27 23 17 16 33 35 34 33 36 17 15 18 30 30 15
89 99 98 96 96 73 57 59 82 95 92 90 92 98 96 100 96 89 85 85 56 46 30 10 9 7 9 12 18 23 19 19 19 25 34 39 30 19 13 16 27 33 22 16
99 100 96 99 95 65 61 70 86 99 71 84 75 76 77 88 100 80 87 76 93 65 24 14 18 17 17 13 11 14 14 16 18 24 28 25 22 15 14 23 33 31 17 19
100 100 98 99 95 68 74 89 100 83 57 100 92 66 74 71 56 94 90 91 72 49 18 10 13 10 8 8 9 14 15 16 18 19 18 16 12 13 24 35 31 17 19 18
100 100 100 100 91 74 100 100 92 65 88 99 86 66 63 70 61 60 37 76 55 32 21 12 14 14 14 11 8 11 16 17 17 18 17 17 21 27 34 24 18 20 21 23
93 89 99 100 87 98 100 96 100 96 88 94 91 68 70 71 48 57 99 77 32 22 17 14 11 10 11 17 11 8 12 16 20 22 25 26 25 19 18 20 22 23 24 26
71 85 80 94 100 100 100 97 100 97 98 90 95 85 96 78 89 99 88 50 45 39 22 15 13 12 12 26 26 14 9 15 18 19 16 17 18 18 20 21 24 28 32 44
23 34 44 69 100 99 87 88 99 96 98 100 84 80 82 60 72 88 100 61 65 59 46 33 31 26 22 29 30 16 12 14 14 16 19 20 20 22 24 30 38 60 85 85
30 27 40 57 100 99 100 98 93 100 99 98 97 92 83 79 81 74 81 77 73 78 70 56 45 41 43 41 34 21 16 16 16 18 23 30 66 38 43 56 85 98 100 100

GFSCGP_500_rhum_066.txt.gz
RH
59 52 56 96 91 79 63 44 13 8 19 60 86 99 69 40 78 92 99 51 52 57 58 79 75 58 46 40 47 40 62 63 60 68 67 66 60 60 62 80 100 96 86 87
48 43 83 79 71 81 74 32 20 10 10 41 70 83 62 38 55 92 99 67 41 54 56 76 76 46 47 29 24 19 18 28 36 55 64 62 62 70 87 90 83 84 86 89
54 62 57 56 67 78 76 44 16 12 14 24 54 84 91 42 36 88 97 93 37 33 45 37 59 48 22 27 27 20 13 13 11 9 12 16 26 32 34 39 41 54 66 74
54 71 53 59 65 84 80 27 16 13 18 20 64 58 90 54 65 71 59 58 72 22 28 28 18 20 18 15 13 11 10 10 10 8 10 19 23 28 29 35 43 38 48 55
48 75 71 63 80 88 75 27 36 16 28 27 33 38 58 65 58 80 67 71 96 89 30 28 32 37 22 16 15 19 18 13 11 9 9 13 18 21 25 32 38 45 46 38
45 72 60 61 79 83 66 40 32 15 20 22 30 38 36 51 70 87 56 73 77 49 47 22 24 37 41 43 25 23 19 16 13 14 14 23 27 29 39 41 46 48 53 62
48 52 66 67 67 75 69 66 37 19 13 19 32 16 24 44 74 64 49 59 49 49 46 29 33 47 43 51 51 44 38 27 24 25 27 42 47 53 56 78 70 68 63 67
41 42 62 60 60 78 82 82 53 20 14 24 43 27 36 48 57 42 43 50 39 32 32 25 18 28 44 42 44 44 41 39 37 25 26 44 52 62 83 98 99 98 90 79
33 32 66 68 78 91 86 88 51 43 20 16 44 68 48 52 68 46 39 50 45 29 34 40 28 22 33 34 41 42 44 45 36 30 29 36 45 58 100 90 92 78 85 97
28 34 65 76 86 82 94 93 64 56 35 19 19 83 74 72 70 74 61 38 42 34 30 34 33 33 40 45 48 48 56 57 55 54 30 35 58 50 43 76 73 100 98 97
32 43 54 74 59 77 83 86 69 66 43 22 28 45 71 79 69 88 82 59 76 66 46 37 32 32 37 43 58 42 53 77 85 76 58 61 38 43 33 44 83 97 97 98
24 56 44 55 76 88 95 91 76 70 48 32 33 38 74 69 78 76 73 55 72 72 53 40 31 30 33 32 24 30 45 94 97 100 96 89 69 62 41 93 98 98 97 96
65 41 52 62 71 88 91 89 85 86 51 26 29 24 98 74 58 58 74 73 76 61 48 56 46 30 26 25 20 22 60 72 86 86 98 95 96 96 98 98 95 94 89 81
82 47 27 28 60 85 92 81 87 76 59 37 28 19 25 56 44 57 77 72 68 68 52 51 39 35 28 26 28 21 23 33 74 84 67 52 92 94 96 95 82 58 63 47
100 59 41 38 74 100 100 97 88 78 73 64 44 30 40 43 50 89 78 66 82 84 73 71 71 62 47 50 34 24 22 34 42 35 24 42 50 37 53 61 59 61 40 64
99 84 68 47 67 96 96 100 97 88 86 80 60 32 91 95 86 81 76 98 96 88 77 58 71 59 66 51 32 24 21 17 16 45 52 49 47 40 55 51 59 59 48 51
100 99 91 48 84 94 98 64 92 91 100 94 56 40 46 71 96 89 77 70 70 77 80 94 85 61 44 47 34 24 18 20 47 34 34 37 43 55 50 55 54 42 39 15
82 100 86 53 100 100 39 73 85 90 99 90 65 60 48 56 88 96 94 98 90 90 84 58 37 39 30 20 13 9 18 24 23 19 21 28 31 46 41 38 36 33 24 14
76 99 100 86 74 65 56 57 80 95 91 95 91 95 95 82 78 69 58 90 98 99 60 41 41 24 14 11 7 9 11 14 14 14 22 24 24 28 36 41 32 24 20 13
24 53 96 100 100 88 53 67 89 100 83 96 100 94 97 96 86 93 85 66 83 92 70 50 36 13 9 10 13 13 15 12 9 11 18 15 15 16 17 19 18 16 12 13
13 9 79 100 99 88 72 87 96 98 58 100 100 75 100 94 84 100 95 58 71 82 61 64 97 55 16 10 11 12 12 10 8 8 11 13 14 15 16 16 14 13 16 21
74 78 62 99 99 100 100 100 99 91 92 100 99 86 99 99 97 95 75 61 44 51 55 61 47 36 30 19 14 15 13 12 14 12 8 11 13 14 17 19 21 24 28 27
48 60 99 92 98 100 100 99 85 78 84 100 100 97 99 90 99 91 67 70 36 29 34 47 54 48 36 26 23 17 15 15 23 25 15 11 13 16 21 29 31 29 20 17
20 68 92 97 100 100 99 96 95 92 100 100 96 86 96 98 70 68 63 65 60 50 51 85 72 31 31 29 23 18 16 15 24 24 18 14 17 21 25 24 20 18 18 20
25 44 80 93 93 79 91 94 90 100 95 100 95 93 100 93 82 99 74 79 100 89 100 96 71 61 55 51 44 34 27 30 32 26 22 17 16 18 20 20 19 20 22 40
56 61 79 86 59 39 46 71 85 86 99 99 98 100 90 99 100 100 83 98 95 91 88 88 77 76 75 77 74 65 53 54 54 53 59 63 65 57 45 46 46 45 48 44

GFSCGP_500_rhum_069.txt.gz
RH
50 49 39 75 96 70 72 76 72 40 24 16 18 14 31 43 50 64 55 37 29 36 46 61 66 55 53 54 41 47 50 72 62 75 69 84 90 95 92 96 98 96 95 93
51 42 61 84 60 49 60 72 79 35 25 20 17 16 25 36 56 58 48 42 44 30 44 48 65 62 57 40 22 17 38 61 66 67 62 58 62 80 95 90 95 90 93 96
54 64 63 66 52 46 47 76 86 46 28 18 13 13 36 41 36 49 47 52 45 28 41 24 55 40 40 31 26 16 13 12 14 21 34 43 55 67 72 79 86 97 94 91
54 76 65 60 56 54 50 83 84 61 28 16 18 12 29 56 54 73 56 50 71 38 26 32 15 35 25 26 21 14 11 10 8 14 26 29 23 28 39 59 71 76 80 87
56 78 78 68 74 60 55 81 77 63 44 31 16 13 18 75 49 59 70 58 62 71 59 27 23 15 13 12 12 11 12 10 9 10 20 24 30 38 45 52 48 41 57 65
55 79 77 73 85 63 67 74 78 64 54 40 18 15 15 25 31 61 66 62 64 37 34 39 25 26 30 26 18 19 21 22 19 17 14 18 22 23 27 37 44 52 49 44
45 60 63 65 69 69 58 62 71 63 55 47 19 14 14 22 18 44 57 54 67 45 33 38 14 32 48 43 45 41 36 29 26 25 25 29 38 44 42 49 53 57 53 57
48 57 65 64 60 75 71 76 79 75 70 58 21 16 16 24 25 26 58 48 31 36 28 29 19 32 31 44 40 42 42 40 43 40 33 24 31 39 46 55 74 77 83 76
33 33 54 63 69 78 73 63 81 86 77 68 34 15 16 27 27 32 51 55 36 32 35 29 27 19 23 37 48 52 51 46 50 40 39 29 30 44 45 53 86 99 94 99
29 30 43 65 69 71 79 93 90 78 68 62 41 31 14 34 38 45 65 61 38 32 36 36 36 33 31 37 33 64 68 68 59 61 68 64 40 35 47 46 90 85 99 97
19 22 34 58 57 69 65 69 68 69 70 64 43 35 27 23 50 58 51 55 54 56 46 37 40 42 36 35 38 58 98 90 87 87 84 80 72 54 44 36 40 58 100 96
13 15 20 33 61 71 87 89 95 94 84 75 55 42 31 36 58 59 57 55 74 68 55 51 46 41 37 44 56 60 88 100 98 98 98 98 96 96 71 94 80 49 80 93
12 11 11 16 39 54 58 70 72 86 90 63 60 40 39 45 46 65 74 69 63 82 64 72 52 40 46 40 36 37 26 55 88 97 95 94 97 94 98 95 98 95 96 98
23 14 17 10 32 55 53 65 77 79 65 60 44 51 44 33 45 51 62 66 72 77 76 73 57 50 43 40 30 36 42 34 36 61 61 95 86 36 56 84 96 97 96 89
84 20 30 16 29 67 62 79 94 79 66 70 57 57 59 43 30 22 55 58 58 73 71 79 74 70 52 59 46 40 38 40 32 34 57 60 62 59 42 58 62 61 71 74
100 83 53 34 56 75 91 68 65 85 82 62 73 61 76 63 50 38 22 34 65 92 80 83 87 73 74 100 86 61 42 35 32 23 25 54 69 50 46 43 52 63 68 65
93 100 100 81 74 85 75 38 66 81 87 81 65 72 78 77 71 43 55 51 47 91 97 99 84 68 66 94 84 70 60 52 40 12 45 53 56 37 38 41 43 52 56 51
71 100 98 98 100 100 52 92 79 92 81 83 77 81 84 84 74 38 37 58 67 63 76 79 61 69 66 80 67 62 36 19 15 12 26 38 48 45 42 35 34 41 46 60
42 75 69 74 100 92 76 74 92 99 78 95 74 84 84 84 68 57 50 48 66 74 60 76 88 89 57 34 36 28 19 16 15 17 33 41 40 32 23 30 29 38 63 61
30 23 24 33 84 93 87 100 100 99 61 90 98 95 76 92 75 68 65 54 60 70 76 92 100 98 56 40 30 14 14 14 15 15 25 22 15 14 20 15 14 16 51 59
26 33 29 26 52 62 71 100 100 94 39 100 92 81 89 98 88 96 100 97 72 70 91 89 83 55 34 33 27 15 10 10 11 13 20 19 17 15 12 12 14 15 51 28
31 31 31 31 37 48 52 78 98 95 73 92 100 77 75 81 77 98 94 100 98 86 93 77 83 58 40 31 37 37 25 16 13 10 12 14 12 17 20 16 13 15 17 21
27 29 36 35 34 32 19 54 98 100 94 100 96 93 76 80 77 86 97 100 100 100 98 81 51 51 34 40 57 51 43 33 24 19 18 16 14 16 22 24 22 18 19 23
36 37 37 47 30 54 36 18 69 100 100 93 100 98 95 88 79 91 100 100 98 100 100 85 69 57 48 57 73 91 55 52 42 34 28 25 22 21 21 24 23 22 19 19
46 54 44 38 34 69 100 82 79 98 100 97 98 98 99 97 99 90 99 100 97 98 100 89 70 64 89 100 98 78 79 74 66 62 61 53 46 43 41 39 36 37 43 51
56 52 46 46 58 33 50 92 88 99 98 81 83 95 98 100 99 97 98 100 99 99 99 99 98 93 100 99 98 98 97 94 92 90 88 89 78 91 98 97 96 95 98 100

GFSCGP_500_rhum_072.txt.gz
RH
51 49 46 52 69 90 63 44 43 74 83 69 40 32 22 14 24 22 39 45 32 34 46 64 80 66 51 44 24 33 51 62 65 77 72 98 96 100 99 90 98 99 95 100
48 39 63 64 69 89 59 56 53 70 79 68 50 33 17 14 25 24 46 42 34 40 36 43 69 62 61 44 24 16 39 60 85 84 64 54 70 98 84 99 99 100 100 100
52 59 70 68 76 80 56 48 71 84 85 66 58 41 20 17 24 35 40 41 41 42 25 34 47 44 36 40 29 16 12 23 50 61 66 79 89 94 99 99 98 98 98 100
59 70 70 64 63 72 60 64 86 92 70 63 57 37 23 14 14 36 31 38 44 66 36 31 26 17 46 23 28 14 12 10 13 16 23 40 54 74 100 98 97 94 87 89
71 80 78 69 83 82 80 80 87 78 60 48 52 47 30 16 13 34 40 43 38 43 71 38 29 21 14 14 14 13 13 14 12 17 22 21 23 30 51 71 84 91 94 93
80 86 84 82 96 89 95 73 64 60 59 37 47 51 28 19 19 21 47 44 37 34 40 38 40 27 29 27 18 19 24 24 22 18 17 21 26 36 44 50 55 62 70 81
81 78 75 85 94 86 87 74 65 57 54 36 48 54 35 20 17 19 26 44 40 35 33 33 38 23 24 46 47 33 32 36 34 30 28 31 42 47 39 37 47 54 53 49
89 94 96 84 90 94 90 81 73 70 71 67 55 34 44 30 16 19 22 50 46 44 44 26 35 19 17 42 44 44 43 44 45 45 40 36 34 33 47 46 47 58 58 52
92 66 52 77 97 96 92 84 90 82 70 53 37 33 51 44 17 19 25 36 47 37 36 25 23 21 22 23 40 38 40 50 51 47 41 38 35 30 30 37 47 61 80 92
42 55 61 86 92 90 82 93 90 76 59 48 32 30 48 58 23 18 35 48 46 59 41 29 29 29 28 26 28 31 53 68 62 66 60 56 50 48 42 31 37 39 68 69
25 34 44 44 56 64 71 74 73 66 56 43 38 28 42 51 25 16 41 54 48 38 56 36 32 32 29 29 32 37 47 85 98 82 80 88 89 96 97 96 92 42 68 62
12 17 22 42 44 49 62 67 82 83 72 58 48 23 42 63 52 29 30 71 58 50 50 49 39 46 43 41 37 39 47 56 82 99 93 93 97 97 99 100 100 88 89 74
5 8 12 15 29 35 32 41 57 61 55 34 42 26 46 65 76 58 44 40 58 60 66 56 55 54 52 49 55 49 40 51 58 50 90 94 96 76 100 69 78 96 95 99
8 7 8 11 20 37 34 34 40 54 39 42 31 38 52 59 65 71 46 52 75 71 66 59 60 61 57 47 44 48 36 39 35 41 54 53 53 65 97 40 42 62 97 96
29 15 8 7 13 23 28 26 38 39 42 51 45 51 68 69 74 78 61 48 58 91 71 87 86 86 74 48 48 46 47 47 53 55 53 37 27 60 64 67 59 58 59 86
66 32 26 12 9 22 26 30 63 60 60 49 45 40 60 66 82 81 74 44 28 26 64 64 71 80 92 82 70 64 59 63 70 67 55 46 48 46 72 89 63 48 46 56
100 85 69 67 92 85 25 43 60 68 66 62 60 48 55 60 78 78 75 71 55 34 38 60 53 88 85 93 94 88 77 66 68 64 53 51 44 32 68 86 71 72 64 60
37 68 100 87 100 90 38 91 58 86 77 67 63 72 87 85 84 76 78 84 83 62 73 79 72 70 89 96 91 80 98 81 74 60 35 25 15 15 34 52 68 64 56 45
16 40 40 65 100 79 85 100 100 92 64 69 68 64 69 79 81 73 89 99 92 73 47 39 76 85 100 98 79 96 81 76 51 39 23 19 13 14 34 43 45 50 74 63
25 17 26 31 48 65 72 98 96 83 38 100 88 66 74 88 57 68 98 99 96 77 58 51 74 70 94 94 83 76 68 72 75 29 21 16 16 38 40 29 17 17 21 20
32 42 36 28 28 18 30 50 85 88 62 84 79 77 69 80 76 72 95 96 100 100 87 88 79 98 100 99 93 69 60 70 61 58 44 27 14 12 17 14 15 13 16 19
33 33 32 32 31 28 33 37 28 51 81 84 99 90 92 75 88 92 81 75 98 97 100 99 98 99 97 97 98 74 40 48 52 60 40 32 30 26 20 16 16 16 15 17
29 37 38 28 20 19 24 30 30 30 27 82 91 100 99 79 80 74 66 76 98 99 100 98 100 99 100 100 100 100 91 77 55 56 57 51 33 28 24 21 18 16 19 24
36 42 36 32 25 30 26 29 32 40 50 87 80 98 100 88 92 84 70 73 63 77 78 89 86 98 99 98 99 87 96 100 83 65 83 59 46 52 53 55 55 52 51 50
55 47 43 28 33 35 28 34 37 53 56 72 70 61 100 100 97 86 94 98 86 99 98 95 86 73 79 95 92 90 79 96 95 100 85 94 86 84 86 87 91 88 82 84
63 57 54 44 49 42 37 35 36 43 100 100 93 94 97 99 100 92 77 96 99 99 100 100 100 99 89 96 100 100 89 98 97 99 90 95 95 91 93 97 98 96 91 90

GFSCGP_500_rhum_078.txt.gz
RH
100 92 71 84 73 71 76 75 60 67 77 55 43 33 43 61 65 63 30 16 19 26 48 39 32 35 56 58 51 27 33 35 39 46 41 45 40 44 76 95 96 96 97 96
91 71 91 93 68 60 70 69 62 65 64 73 47 35 42 48 68 60 23 17 20 27 43 39 31 27 42 51 31 19 24 64 61 78 72 68 71 98 97 97 96 96 96 96
84 86 98 88 74 56 65 74 72 65 70 73 47 38 42 47 56 47 36 20 25 31 42 38 38 23 28 33 34 24 12 31 68 92 88 89 82 83 90 95 96 96 95 96
94 90 92 74 73 63 66 84 66 67 70 62 57 45 44 55 61 56 36 19 22 27 38 37 40 27 13 15 22 21 12 10 10 39 56 66 68 56 76 96 90 98 99 94
87 100 98 83 82 85 70 82 70 73 71 57 54 51 48 60 63 57 37 22 21 24 27 36 31 42 26 19 11 10 10 10 14 7 12 19 36 61 55 66 84 93 99 94
100 98 89 86 96 88 90 83 77 71 71 59 54 59 52 57 63 57 36 20 18 25 21 36 41 31 29 26 23 24 21 17 16 14 8 8 16 19 48 69 67 89 80 87
100 99 98 99 94 91 84 89 84 74 64 59 57 62 64 58 66 68 48 22 16 20 22 34 45 56 51 31 22 26 33 25 22 22 22 17 10 10 16 29 35 35 43 50
96 96 97 98 96 97 100 99 86 85 84 81 64 68 71 58 73 66 61 27 17 17 33 39 37 43 43 31 18 36 32 33 33 31 30 30 26 19 19 18 19 21 24 27
99 99 96 96 98 96 97 90 96 93 77 73 83 64 75 64 77 62 66 43 19 23 26 32 31 45 38 23 18 27 36 35 33 32 33 33 37 30 28 24 23 23 25 27
93 97 97 98 98 94 90 98 95 83 79 92 92 83 84 64 68 70 69 54 23 29 38 34 38 38 29 23 19 18 20 23 29 31 36 52 54 49 46 46 39 30 28 30
98 96 80 96 98 100 100 96 94 90 85 91 90 100 67 78 80 79 71 47 29 38 44 37 45 40 40 29 22 22 24 26 27 29 42 60 74 75 76 83 82 91 91 81
63 84 97 98 96 96 95 94 92 91 98 86 89 94 96 76 74 87 80 57 32 49 44 44 58 52 45 37 28 29 30 33 32 29 35 55 68 80 78 85 84 68 81 75
27 35 55 54 59 64 70 91 94 94 90 75 78 92 71 69 73 82 82 79 58 46 70 84 84 78 58 47 40 34 35 52 45 34 42 45 36 39 47 84 68 52 56 63
9 16 23 42 49 51 50 55 60 62 64 73 72 70 61 61 62 63 97 94 92 65 91 97 99 91 78 61 53 49 58 62 54 45 46 39 36 38 39 52 56 48 34 44
8 7 6 10 18 28 39 45 43 48 55 62 68 68 69 62 67 73 67 89 99 90 79 83 94 92 99 90 67 71 71 72 69 62 49 45 44 41 35 37 49 48 43 39
7 19 10 7 6 7 9 12 16 22 33 42 46 43 44 42 42 47 70 76 95 96 87 82 58 68 71 68 74 68 60 62 78 71 61 63 60 52 60 56 46 48 50 39
15 16 23 38 44 16 5 7 10 14 22 28 31 27 23 24 31 43 45 52 61 90 97 94 84 67 76 85 82 75 65 65 65 74 78 76 80 72 76 65 72 60 57 48
23 16 16 34 36 20 14 18 31 25 27 31 31 26 24 21 20 24 37 29 44 56 76 95 88 84 88 55 44 88 87 85 88 66 62 66 93 89 62 45 47 57 40 33
19 19 20 28 33 21 20 31 33 32 56 43 43 28 22 18 18 27 25 27 35 45 75 76 100 95 76 80 92 70 100 100 100 90 80 81 97 77 70 38 39 33 25 20
27 24 23 23 20 13 14 14 15 26 66 49 34 61 57 52 63 47 46 56 35 63 66 68 92 100 96 96 98 96 93 93 93 100 100 98 74 95 68 41 38 32 24 32
52 36 31 32 23 21 25 32 21 21 54 22 36 79 80 66 62 79 83 71 81 48 48 60 71 92 98 96 97 96 78 79 98 98 91 94 82 80 82 51 40 44 38 44
84 69 55 57 42 34 37 34 23 27 35 27 38 51 62 63 57 67 83 80 84 84 60 58 59 84 100 100 98 97 79 91 94 96 100 97 96 84 95 77 53 59 73 81
89 73 68 52 51 55 63 67 40 33 34 33 34 31 34 35 36 45 56 57 74 82 73 63 76 76 98 100 95 97 98 98 100 99 100 99 100 89 98 98 99 98 99 99
73 65 59 57 48 35 28 23 23 26 27 24 21 21 18 18 26 26 25 37 60 76 90 89 78 100 94 86 88 91 93 96 96 99 99 95 100 98 97 99 96 91 100 96
69 54 49 41 48 43 35 26 29 28 22 23 23 22 25 18 13 21 60 98 71 60 68 91 99 94 92 93 76 65 87 100 100 97 98 98 98 100 94 95 96 98 100 94
82 74 60 56 51 54 55 45 44 47 45 38 35 32 29 32 23 20 51 88 96 71 56 87 98 100 100 99 86 71 60 59 77 89 89 95 100 100 98 84 100 96 99 97

GFSCGP_500_rhum_081.txt.gz
RH
98 96 72 85 90 89 96 100 100 100 100 60 52 43 43 45 43 55 62 53 32 12 11 18 29 34 25 31 41 49 31 34 31 32 27 27 31 39 54 85 96 97 96 96
98 78 88 93 97 94 97 94 88 88 95 63 67 48 42 39 38 46 53 48 35 17 11 20 28 36 23 30 42 28 16 36 52 51 44 37 37 46 48 80 96 97 97 98
91 81 100 98 96 94 88 87 80 92 100 84 74 54 47 43 40 48 45 44 38 21 11 14 28 34 28 23 34 27 16 16 47 62 72 80 76 83 90 85 96 97 96 96
94 99 96 97 93 99 92 91 89 91 83 95 88 61 53 54 52 55 51 49 41 20 12 14 27 29 30 15 18 24 16 11 9 16 56 66 69 74 79 86 96 96 96 95
97 100 98 96 99 97 94 98 98 93 72 92 86 67 50 58 60 69 52 45 40 18 11 12 25 36 33 30 20 11 10 11 15 11 7 11 25 36 60 62 92 96 96 96
91 96 95 96 96 93 99 95 99 92 86 89 79 75 65 59 72 79 61 47 42 20 12 12 27 36 27 24 28 21 22 22 15 15 13 7 6 9 19 66 63 80 85 82
100 94 90 95 96 97 97 97 98 97 84 78 85 69 64 64 70 79 69 46 45 30 15 13 29 37 32 29 24 21 18 28 22 19 22 21 14 7 8 36 72 71 82 90
96 95 97 91 98 99 98 93 94 100 100 89 96 69 75 70 86 76 67 54 53 41 17 14 26 39 34 27 26 17 19 27 28 28 25 23 23 20 17 13 21 34 32 34
97 94 98 98 97 95 92 84 96 94 94 99 93 97 93 97 81 90 71 59 59 53 20 16 18 31 29 28 26 19 16 26 29 28 28 28 27 26 24 22 18 17 18 18
100 100 97 98 97 92 98 100 97 93 94 93 91 100 99 93 77 93 79 64 59 59 25 19 24 23 27 28 24 22 16 16 17 20 23 23 35 42 42 38 35 28 23 23
99 98 99 97 94 98 99 98 95 98 99 99 99 99 97 99 82 96 95 71 59 58 40 20 26 26 30 30 28 27 20 18 18 21 21 21 33 52 63 67 65 71 72 67
94 97 96 98 98 99 100 99 99 97 99 97 98 97 100 96 90 91 99 76 64 52 33 25 27 30 35 43 38 34 27 22 24 24 32 34 26 32 33 34 46 62 62 55
64 89 99 100 98 98 96 99 100 100 100 98 98 98 98 98 96 90 96 89 96 74 50 33 35 36 36 47 44 44 35 30 24 27 41 42 34 36 38 27 21 29 60 53
32 83 91 96 100 98 97 98 99 98 97 98 97 97 98 98 96 97 94 94 97 87 87 63 47 43 53 57 56 52 49 47 39 35 48 51 43 44 39 33 26 27 31 34
70 32 59 82 100 89 88 69 72 72 78 94 96 100 100 97 96 97 91 98 99 99 95 85 76 78 74 68 65 64 57 55 54 50 52 54 59 52 47 44 42 38 34 36
20 54 73 18 26 63 61 59 57 61 59 57 58 61 71 66 65 63 89 86 94 93 100 97 92 91 96 90 90 85 84 82 79 73 68 66 60 60 51 53 50 45 47 63
100 92 53 50 51 24 10 12 18 24 24 24 40 57 21 30 36 32 28 32 42 63 89 85 94 92 87 76 66 77 78 71 72 77 76 82 78 73 69 66 58 62 67 68
30 49 82 83 57 39 54 63 30 26 27 68 86 60 24 11 12 15 8 12 15 22 35 53 66 85 96 89 80 70 81 83 86 83 68 71 82 89 82 72 63 72 79 52
15 21 25 23 28 25 42 33 30 27 78 85 44 49 21 12 17 40 13 20 20 12 12 17 23 47 68 96 96 95 90 84 58 61 96 91 98 94 96 86 81 83 60 45
11 11 11 13 11 9 18 17 11 18 43 17 13 11 9 11 25 84 47 82 51 53 39 17 15 25 50 77 95 100 98 93 69 87 100 96 93 96 79 99 95 97 62 52
28 18 12 17 12 14 13 37 11 17 51 16 10 9 8 10 14 19 53 77 71 70 75 74 46 27 37 84 89 99 100 95 92 91 86 95 100 92 100 99 92 78 70 81
48 33 26 27 17 25 36 40 35 60 71 37 22 17 17 22 28 16 20 79 75 64 62 67 85 70 49 51 75 83 95 94 100 100 98 97 99 90 97 75 91 95 71 82
86 69 62 51 52 50 52 40 60 64 31 32 36 32 38 42 39 36 34 37 44 53 51 57 72 74 79 74 69 92 91 92 98 97 100 98 98 97 100 99 96 95 92 97
100 100 78 100 82 100 83 99 70 59 33 34 30 25 21 18 16 16 15 19 23 26 30 34 44 56 69 68 80 79 99 95 100 100 100 97 98 99 79 92 99 100 91 100
100 99 96 99 100 93 99 67 67 38 26 25 25 26 27 28 27 24 19 14 11 14 21 68 63 60 77 71 72 94 77 99 100 99 99 99 97 98 98 99 98 97 100 98
100 96 93 86 75 88 79 33 52 33 30 30 32 33 32 32 33 34 28 23 18 14 30 60 80 88 68 67 80 100 98 91 93 95 92 94 97 100 98 96 98 99 98 100

GFSCGP_500_rhum_084.txt.gz
RH
80 100 67 99 96 79 98 91 93 89 82 98 81 45 50 70 65 44 31 35 49 40 39 17 10 16 21 20 19 24 32 36 32 32 30 26 21 23 30 41 42 61 90 95
94 63 83 100 99 98 97 94 91 94 89 96 95 52 53 50 47 50 54 56 41 34 35 22 11 18 21 21 20 27 30 22 22 40 38 45 31 30 32 38 81 89 96 98
87 84 100 99 96 96 92 94 96 97 86 99 95 58 51 46 52 56 50 51 42 48 41 25 13 21 21 23 18 22 28 20 18 19 41 70 66 68 68 66 99 93 95 94
81 97 98 98 97 94 91 96 98 97 97 94 99 57 56 50 60 78 52 59 43 48 45 21 13 21 21 28 23 15 16 19 17 14 10 23 42 54 64 76 94 95 94 96
87 95 98 97 95 99 94 100 96 95 96 94 89 84 43 53 56 89 67 56 45 41 43 20 12 21 21 22 24 18 17 17 17 11 12 8 7 13 44 50 67 95 96 90
100 100 97 99 99 97 98 98 90 97 96 78 74 72 52 48 58 92 98 83 56 41 36 23 13 19 21 18 17 16 17 16 19 20 16 16 10 6 12 30 44 62 80 82
95 95 99 96 97 91 93 97 96 97 92 70 79 72 53 52 60 91 96 73 70 52 40 38 15 17 19 22 23 18 15 15 18 22 21 22 22 16 10 12 42 57 66 86
96 99 100 100 96 98 99 97 94 95 98 89 93 71 60 52 56 67 74 76 76 54 38 46 19 17 19 23 24 20 17 14 17 21 24 23 25 25 22 17 16 59 70 72
97 100 97 100 99 96 96 82 98 98 93 95 85 84 100 72 65 66 76 75 81 60 39 44 37 16 18 19 23 23 20 15 16 21 24 25 24 25 29 32 27 20 20 21
93 96 99 98 100 97 98 99 96 86 93 99 99 99 97 91 89 82 71 77 84 75 57 41 35 18 18 20 23 24 22 17 15 16 16 16 18 30 40 37 43 44 36 31
69 97 100 98 94 98 96 96 97 96 94 97 96 98 92 99 96 97 98 78 89 84 60 52 46 23 20 23 24 28 27 22 16 16 20 23 22 22 29 51 52 51 57 64
47 92 100 100 98 100 99 99 99 96 98 97 97 97 92 95 98 93 87 75 76 77 65 56 49 36 21 24 29 30 32 31 22 19 20 22 32 37 30 27 25 25 25 49
29 73 97 100 100 100 99 100 100 99 99 98 98 98 98 98 98 98 96 94 88 76 67 57 46 37 31 25 26 37 41 43 33 26 24 24 29 43 38 35 34 31 25 24
20 47 95 99 100 98 98 98 99 98 98 97 96 98 98 97 99 97 89 97 95 96 76 76 64 48 38 34 32 33 41 48 52 39 40 33 33 46 46 44 44 40 33 25
21 32 50 97 100 100 99 98 94 95 97 96 97 94 98 97 98 99 99 89 99 98 98 100 95 78 74 53 43 38 42 52 59 53 51 50 50 56 53 53 54 49 45 42
27 41 33 81 97 100 100 99 100 99 99 100 98 97 97 98 98 100 86 91 87 82 81 77 92 94 85 74 80 76 63 55 58 64 63 66 68 70 69 65 61 55 52 53
100 92 46 53 88 84 84 98 99 98 95 94 98 98 96 96 80 68 58 80 79 83 86 82 71 81 100 99 86 81 87 86 64 70 72 69 66 69 75 73 70 67 62 70
48 100 100 65 51 49 83 86 82 80 62 49 72 85 100 99 93 37 34 26 18 16 21 34 55 68 71 74 87 86 91 88 78 73 63 60 63 74 65 61 77 89 85 78
7 44 100 100 100 87 81 100 100 100 100 88 56 45 80 79 86 48 10 8 24 13 11 17 22 20 28 31 36 58 64 91 90 81 73 75 99 89 60 53 57 96 82 84
6 9 18 59 45 59 61 84 52 41 52 40 50 100 89 78 82 13 22 25 73 99 93 81 19 7 11 13 23 34 48 78 88 84 93 89 83 74 70 88 78 98 86 72
37 9 8 12 11 10 16 15 18 30 46 18 26 13 21 43 24 22 24 15 24 37 51 8 5 43 40 18 17 35 48 52 74 78 77 88 100 90 82 78 95 91 92 66
98 41 14 11 9 13 23 29 30 57 69 53 34 25 15 17 19 19 19 19 42 70 41 37 63 80 72 62 38 27 47 80 100 100 100 86 77 97 96 88 83 91 74 69
100 97 59 38 43 44 28 37 63 85 87 72 68 54 52 25 16 15 14 15 23 17 19 25 26 37 61 67 60 72 52 57 84 100 100 100 93 90 98 100 100 100 84 67
100 100 93 77 62 82 98 100 52 45 28 56 55 30 26 41 45 41 29 22 19 17 16 20 24 25 28 35 40 42 70 72 72 95 100 96 98 93 92 98 100 98 95 100
100 100 100 100 100 100 100 100 100 90 62 64 42 39 35 26 23 23 22 22 19 15 13 11 11 13 21 35 55 51 63 59 62 74 92 100 100 93 90 99 99 97 97 93
96 92 96 95 99 100 100 100 100 82 89 74 39 28 25 26 25 25 24 29 25 22 19 15 16 16 14 14 17 47 77 72 82 74 98 91 95 90 88 99 99 99 99 97

GFSCGP_500_rhum_087.txt.gz
RH
14 16 14 40 66 78 100 97 81 76 69 98 91 79 64 64 81 43 45 42 29 23 23 22 34 17 9 10 14 15 19 28 26 20 30 32 24 21 21 23 26 30 34 43
18 17 37 52 66 100 77 96 89 59 76 96 91 90 70 88 81 54 46 48 31 22 19 15 35 18 10 14 19 16 18 25 21 12 23 43 31 28 25 29 37 51 49 65
23 30 31 52 60 86 73 81 98 93 99 96 87 75 59 64 49 59 72 62 47 38 31 16 29 16 11 16 19 16 16 20 19 15 13 28 50 57 43 38 40 72 94 84
26 34 40 54 54 67 71 99 99 98 89 89 99 74 81 61 57 67 81 67 47 51 44 26 32 19 12 18 21 19 17 14 14 16 13 9 10 17 30 34 49 64 95 90
28 38 57 60 67 93 79 100 97 86 83 95 96 82 52 58 44 54 64 51 61 58 57 36 36 20 12 18 19 20 18 16 15 19 19 14 8 7 8 17 39 59 95 97
25 40 46 70 74 86 100 97 98 99 98 80 78 88 58 48 43 60 83 79 54 60 50 44 39 20 13 19 18 15 15 15 13 19 20 19 20 15 7 7 18 58 81 96
29 38 55 65 75 92 100 98 98 99 94 62 77 96 60 58 55 71 83 68 86 58 52 44 39 33 15 16 20 17 18 15 13 19 24 23 22 22 20 11 7 45 66 94
22 46 67 88 82 99 100 99 92 88 76 61 84 80 58 76 66 71 88 95 81 62 54 54 43 37 19 15 22 23 20 18 14 17 24 24 27 25 24 20 14 33 65 73
15 60 83 82 100 98 99 92 100 97 90 76 82 80 93 88 93 79 79 95 73 71 67 72 52 40 32 20 18 20 21 20 15 16 20 25 25 23 32 30 25 20 17 27
23 46 63 89 100 88 98 100 98 94 93 90 88 94 99 98 99 93 86 88 88 88 83 73 66 47 39 22 17 17 23 21 18 16 16 17 18 24 34 46 53 44 38 30
15 23 64 96 97 100 100 100 98 97 97 94 100 93 97 84 94 98 96 96 90 94 94 94 82 51 39 22 18 20 24 23 22 16 16 18 22 24 25 28 50 55 46 53
21 11 40 100 100 99 100 98 98 97 97 97 97 99 98 96 92 98 100 99 83 82 91 95 82 64 48 30 22 23 26 26 28 23 18 17 22 30 37 35 31 33 30 24
13 14 35 88 100 98 100 100 99 100 97 97 98 96 97 98 100 90 96 99 100 90 90 86 75 66 50 41 25 30 27 32 33 34 28 21 21 24 33 45 40 36 37 36
3 5 14 56 99 100 99 99 100 100 98 100 87 95 98 98 97 99 98 96 96 80 91 86 82 73 63 44 40 25 26 27 37 47 48 34 28 29 30 36 47 46 47 47
3 4 21 31 95 99 100 100 98 97 100 96 100 98 96 98 97 98 100 100 81 83 98 97 85 76 71 91 76 40 34 32 35 35 46 62 48 48 44 39 43 55 58 60
2 4 92 63 74 95 99 100 100 99 100 99 99 99 98 96 99 99 94 78 88 98 99 100 100 96 91 68 69 83 67 50 45 48 45 54 62 66 66 68 71 70 72 63
2 2 22 32 64 78 99 99 100 98 99 99 99 98 99 98 94 99 100 100 99 99 97 87 94 100 99 100 85 88 100 88 83 88 83 72 57 53 55 60 68 65 64 64
2 3 30 66 71 42 92 96 96 99 96 95 90 88 100 99 96 81 87 92 90 85 84 80 87 94 92 75 87 76 67 74 90 99 95 95 84 73 73 72 56 56 64 66
2 2 6 94 100 72 72 74 61 98 99 88 88 84 99 87 98 96 100 79 69 84 71 59 62 53 34 53 78 66 46 46 48 55 87 90 80 78 81 80 66 70 68 51
2 2 2 13 92 86 77 100 100 76 99 90 85 72 60 95 92 78 71 58 52 22 24 14 25 16 22 26 27 28 28 30 31 26 24 61 62 80 98 93 86 83 95 80
61 11 3 4 6 23 85 96 100 100 85 43 43 64 85 78 81 100 98 84 50 23 8 14 48 84 39 29 23 14 17 19 24 25 22 13 25 44 65 77 92 95 90 95
100 92 50 9 5 7 18 47 57 49 40 53 29 19 23 46 98 95 97 94 76 25 9 10 36 45 43 12 12 29 26 25 21 22 23 18 12 13 33 64 89 100 94 86
100 97 97 72 44 55 78 55 76 58 53 55 63 73 63 51 53 37 34 26 21 23 17 12 11 14 11 10 10 10 26 46 43 37 35 33 22 14 15 59 72 82 100 100
100 97 96 98 81 75 98 98 82 84 100 100 98 92 83 76 71 52 45 19 13 17 27 30 28 26 25 23 22 22 26 27 38 48 49 52 60 66 47 58 81 88 97 99
100 100 98 97 87 91 100 100 100 98 84 60 44 49 36 61 43 36 48 43 30 23 19 17 15 13 12 12 12 12 12 15 18 28 38 50 57 60 80 86 80 91 98 95
88 98 100 100 100 100 100 100 100 100 100 97 100 65 74 54 43 37 29 27 28 28 25 22 21 18 18 18 17 16 15 14 13 12 13 30 69 56 53 64 70 78 74 86

GFSCGP_500_rhum_090.txt.gz
RH
8 7 8 10 9 5 5 4 3 11 36 51 100 87 50 49 56 56 58 50 60 47 32 20 35 33 29 12 10 20 20 21 23 22 18 26 31 28 22 23 24 24 28 28
12 10 11 7 7 6 5 6 10 24 41 76 77 56 42 50 57 61 56 50 48 42 30 27 28 37 28 13 13 21 18 18 19 19 17 17 34 39 26 24 22 22 23 24
18 18 13 12 13 13 10 16 21 29 46 96 66 63 71 56 61 60 48 35 52 50 38 19 26 39 25 13 14 22 18 16 15 14 14 12 15 34 48 49 37 42 41 58
24 23 16 18 21 20 13 23 28 48 52 63 96 43 70 64 65 49 43 44 52 54 41 29 33 41 29 15 15 24 21 17 15 17 19 16 10 10 24 30 49 70 82 90
22 23 21 19 17 24 21 30 42 39 46 65 78 82 57 83 66 48 39 38 51 54 50 41 46 42 31 16 16 20 22 18 14 14 18 19 18 12 7 15 26 54 86 97
25 26 28 30 29 28 26 29 54 74 76 56 58 88 50 86 73 63 51 44 51 53 48 48 51 47 37 17 16 23 21 19 14 14 18 21 20 19 18 8 8 25 57 94
22 25 28 30 31 28 32 55 80 99 87 37 54 81 53 75 94 87 92 81 66 53 56 48 56 58 43 33 18 23 19 19 16 16 18 22 22 20 19 19 12 13 46 88
10 13 18 27 36 30 46 77 90 98 74 58 68 52 60 78 98 95 96 94 63 52 52 48 65 60 48 26 18 21 25 23 21 16 18 20 23 24 19 17 20 14 43 66
9 9 15 28 43 46 79 90 100 97 76 70 68 69 82 97 83 84 97 93 73 68 57 56 71 68 57 48 31 18 26 27 28 18 19 19 22 19 25 23 21 20 14 30
15 15 16 23 42 60 78 100 99 100 98 84 76 88 99 85 97 98 91 90 80 72 58 50 61 77 65 53 42 24 22 31 26 20 18 18 17 17 24 28 36 34 32 27
13 12 20 21 43 73 86 96 98 97 100 100 100 95 98 84 97 84 88 98 99 91 76 66 60 87 82 67 47 26 27 30 28 23 17 17 17 21 23 23 22 40 51 48
12 9 8 17 60 84 84 97 100 100 93 100 98 93 97 97 98 93 89 71 83 75 63 55 64 88 90 72 49 27 29 30 27 24 21 17 17 21 27 31 34 30 29 28
11 10 8 22 74 100 98 100 100 100 100 96 97 84 97 100 99 95 94 81 95 86 77 76 73 91 87 72 54 32 28 30 36 32 28 24 19 21 24 28 31 39 36 35
7 6 5 6 55 97 100 100 98 99 100 99 90 99 99 98 98 99 100 98 89 94 78 77 68 77 87 88 68 57 45 35 39 42 41 38 34 28 28 28 28 34 45 44
7 5 4 4 14 68 95 100 100 100 100 97 90 85 97 96 98 98 98 98 90 78 75 82 76 79 79 88 97 87 82 75 50 35 47 50 47 47 40 32 35 40 43 54
7 5 4 4 37 100 100 99 100 99 100 98 97 87 100 99 98 98 98 96 99 99 95 92 73 78 98 95 87 91 97 98 99 99 43 40 37 43 55 59 58 58 56 61
9 4 4 4 50 100 95 100 99 100 90 92 96 96 98 98 98 96 97 97 97 94 96 95 78 88 95 100 100 90 81 81 91 99 98 96 75 84 79 82 84 77 74 68
7 5 3 3 13 61 73 100 97 100 98 100 99 100 99 99 98 98 100 98 99 99 99 100 100 97 95 90 89 91 90 88 86 95 95 100 99 99 95 94 91 73 75 81
4 4 3 3 3 12 94 91 100 89 100 98 97 98 100 96 100 98 100 100 99 98 99 98 99 96 86 86 87 84 88 76 66 72 85 88 98 100 99 98 98 98 90 89
6 3 2 2 2 4 96 100 100 86 84 96 98 100 95 93 98 100 99 99 100 99 98 95 94 90 89 82 80 72 64 69 75 63 60 48 43 43 91 100 100 97 97 98
68 31 6 4 2 2 26 94 100 100 76 92 100 100 99 98 99 98 98 100 98 98 90 84 52 24 20 23 29 26 29 41 42 36 23 23 32 37 30 35 86 98 97 88
98 95 86 48 4 2 5 35 94 86 100 80 97 98 88 67 70 97 98 98 94 99 95 83 59 53 48 19 12 41 45 23 22 22 19 16 11 7 6 6 8 14 40 71
71 84 100 91 64 25 13 6 15 34 85 100 98 78 80 77 55 33 31 87 91 94 98 63 56 44 34 8 7 23 55 54 53 42 13 14 23 33 35 24 17 13 11 52
100 93 100 92 93 63 89 94 89 93 89 91 76 88 90 79 78 49 40 21 25 46 58 66 66 40 10 10 8 9 13 14 11 11 11 10 10 14 21 31 44 52 42 39
98 100 100 98 99 100 100 100 100 100 100 100 100 100 95 98 94 82 78 66 48 36 30 28 20 16 15 16 17 18 16 14 13 13 14 14 16 16 15 15 15 16 21 30
100 97 100 100 90 100 100 100 100 100 96 97 92 98 100 97 64 46 50 46 49 39 33 38 32 24 20 19 17 15 13 12 12 12 12 11 10 10 9 9 8 8 8 9

GFSCGP_500_rhum_096.txt.gz
RH
51 44 37 33 26 26 23 21 21 15 10 9 8 13 7 5 6 5 6 8 18 28 44 46 46 46 63 53 47 31 31 36 11 11 16 19 18 16 18 31 36 30 26 29
63 54 35 28 24 22 19 14 12 10 11 10 9 8 5 5 6 6 5 7 9 16 36 51 48 52 68 71 55 32 35 29 11 15 16 16 15 15 14 20 36 32 26 24
97 76 42 24 21 19 16 13 12 10 11 9 7 7 6 7 6 6 5 8 10 19 45 51 58 65 73 80 55 35 32 20 12 17 17 14 14 15 15 10 18 37 28 26
72 47 23 19 18 18 15 15 13 12 11 9 10 9 9 11 9 5 9 18 18 42 57 52 70 70 79 76 59 39 30 18 14 17 17 12 13 12 17 15 9 14 33 39
40 21 17 18 20 19 18 21 17 15 14 12 11 13 9 9 7 12 16 16 28 58 60 54 71 91 98 84 68 44 31 18 15 17 17 12 12 13 16 18 18 11 6 14
26 19 19 22 23 23 25 25 23 21 18 11 12 11 10 10 11 14 20 25 31 52 69 52 74 91 95 69 63 43 34 17 17 16 17 14 13 13 14 18 20 20 15 8
24 25 25 25 26 28 27 26 26 21 16 11 10 6 7 17 21 14 28 38 31 51 69 58 84 93 94 64 55 45 35 18 18 16 16 15 15 14 11 15 18 18 21 17
25 26 27 28 29 27 26 25 24 21 14 12 11 10 15 27 35 41 34 45 49 55 58 55 77 83 90 68 62 48 39 18 21 19 17 16 17 16 13 10 12 16 17 17
26 26 28 28 25 23 23 21 22 20 15 9 22 32 54 48 45 57 44 43 50 50 56 69 80 78 93 86 73 51 39 35 21 21 18 18 20 18 15 14 10 11 18 19
29 30 28 25 23 20 16 16 20 18 15 16 27 35 69 63 56 55 53 55 57 65 70 64 65 88 96 99 73 57 45 30 23 22 21 22 22 24 17 16 16 14 18 20
31 28 24 20 15 11 12 20 20 22 27 62 47 48 69 80 68 67 62 55 56 66 70 61 87 96 97 100 87 69 52 58 60 49 22 22 24 25 19 17 17 22 18 16
25 20 14 16 11 14 22 21 31 39 45 62 54 49 71 80 97 79 76 78 66 71 76 91 97 95 97 100 91 77 65 63 63 55 34 22 24 27 24 18 16 18 23 21
58 20 12 18 26 31 22 43 74 99 67 73 84 76 65 75 80 88 95 83 82 91 87 94 98 94 97 98 96 78 80 74 76 71 46 26 26 26 28 22 18 16 16 19
62 44 40 47 39 24 14 39 97 96 93 82 88 73 72 67 66 88 97 89 82 100 100 100 95 95 94 94 88 76 78 82 92 95 64 58 39 33 29 25 22 20 18 18
96 89 92 64 36 21 16 30 89 92 87 77 80 81 80 70 92 88 99 97 91 96 98 97 96 99 99 96 95 87 95 93 96 96 96 96 90 78 56 38 32 30 25 24
100 100 100 54 32 16 8 8 23 73 99 85 68 83 75 72 97 96 98 98 99 77 95 93 95 96 97 93 97 91 92 93 98 96 97 97 97 87 70 93 73 62 50 42
76 64 80 40 19 7 6 5 5 10 69 85 80 60 64 61 91 97 97 99 85 98 76 89 99 100 98 97 96 98 97 98 97 98 98 97 94 100 97 96 94 86 73 76
8 8 11 10 9 9 9 8 7 12 65 99 98 78 78 65 72 92 97 99 99 94 98 100 100 99 98 97 98 97 97 97 97 88 95 92 89 87 94 99 98 96 97 96
31 19 10 9 8 10 10 9 7 12 66 100 100 100 95 99 94 98 100 99 99 99 98 98 98 98 99 98 98 97 98 99 100 91 90 95 93 92 85 84 90 94 98 99
68 68 50 18 12 13 12 8 6 6 15 48 100 99 98 99 100 100 100 99 100 98 98 98 98 97 99 98 99 99 98 100 100 92 93 100 100 100 89 94 99 93 85 80
47 38 24 17 18 18 13 11 8 8 17 44 90 91 100 100 100 100 99 100 99 99 95 100 97 98 97 98 99 98 96 99 100 100 100 100 94 89 91 95 97 97 90 81
39 26 21 16 16 14 22 17 15 9 6 23 86 95 99 100 100 100 98 99 99 98 100 99 96 96 95 95 97 97 98 99 99 99 90 90 85 62 46 50 54 59 54 41
44 33 33 49 38 31 59 28 10 12 8 5 74 99 100 99 100 100 100 98 97 98 99 95 98 92 89 90 100 99 98 99 99 98 97 94 75 56 39 19 16 15 29 42
38 34 46 96 91 72 74 56 35 27 13 4 5 77 97 100 100 99 100 100 100 93 88 95 99 91 92 91 95 98 99 99 98 96 91 81 70 47 22 10 9 9 11 14
44 39 73 100 84 93 99 93 69 65 38 12 8 18 74 99 100 100 100 100 98 82 93 90 86 84 74 75 66 63 53 67 72 75 72 52 22 18 16 14 14 14 14 13
42 45 99 96 100 100 91 99 100 91 100 100 87 80 78 100 97 100 98 97 93 79 100 90 80 81 70 67 73 70 56 38 31 28 26 21 20 18 18 16 16 16 15 15

GFSCGP_500_rhum_102.txt.gz
RH
100 99 79 87 93 81 66 59 52 49 45 41 38 38 42 44 40 32 28 25 24 26 25 24 21 19 15 17 22 28 28 35 35 44 52 36 34 20 16 17 14 12 14 16
99 80 94 100 98 96 96 86 62 47 46 44 41 38 37 36 33 30 27 25 22 20 20 19 15 14 15 18 20 21 25 29 36 43 60 45 38 22 17 16 11 10 15 13
92 99 100 96 100 97 98 97 78 56 47 45 41 37 34 31 28 25 22 20 18 17 14 11 10 10 11 15 15 20 31 35 45 46 62 55 41 22 16 15 9 10 16 12
97 94 98 99 98 99 96 93 69 52 46 42 39 34 32 27 22 20 19 17 16 14 12 9 7 5 5 5 8 18 30 39 47 54 66 63 43 18 17 14 10 11 17 16
100 100 100 99 100 100 99 92 80 57 43 40 34 32 27 22 18 18 16 14 13 11 9 8 6 6 6 5 5 15 33 40 52 65 73 67 44 18 19 14 12 11 17 17
98 100 100 96 100 98 94 96 88 50 36 38 26 25 23 21 18 16 14 12 11 10 10 10 10 9 7 6 6 16 42 53 62 75 79 71 45 20 20 14 13 12 17 17
99 100 100 100 100 99 95 97 93 78 70 46 32 22 21 19 16 15 14 13 12 12 11 10 9 8 9 8 9 24 56 69 72 85 81 62 52 20 20 15 14 13 16 17
100 100 100 100 99 100 100 79 23 25 26 22 21 19 18 17 15 13 11 10 9 9 7 6 7 9 11 13 17 52 68 72 88 99 84 60 57 19 18 16 16 14 12 13
100 99 100 99 99 98 61 36 32 28 24 23 22 21 18 15 13 12 11 8 6 5 8 14 17 16 17 28 47 66 68 82 97 98 90 70 59 20 17 16 17 16 13 11
100 99 100 100 81 62 43 33 32 30 28 25 22 20 20 14 14 15 12 12 11 14 24 23 26 26 37 63 75 70 67 93 98 100 92 74 58 20 19 18 18 18 16 15
75 94 94 98 80 60 44 49 38 30 27 24 21 24 25 19 33 24 11 34 39 39 41 30 35 40 42 63 85 88 96 89 98 100 93 76 57 21 20 20 23 22 18 17
87 89 58 67 70 64 58 47 31 26 24 22 16 19 16 14 15 34 54 65 54 53 52 51 44 61 61 66 87 100 100 98 100 100 93 78 61 38 21 20 22 25 24 18
99 96 70 65 56 52 42 33 27 24 22 14 15 18 14 24 25 21 37 65 78 78 54 56 57 73 91 92 100 88 97 100 100 99 89 80 62 32 41 24 21 24 26 21
99 100 99 90 70 48 39 35 32 20 12 14 29 30 38 47 36 26 30 43 76 93 79 69 78 80 95 100 96 95 94 100 98 91 86 76 59 50 63 59 30 21 24 25
98 98 97 98 81 64 59 63 35 17 20 21 51 51 52 51 43 41 35 46 56 82 94 95 89 96 92 97 98 98 99 100 90 85 82 79 83 68 68 64 50 24 23 23
100 97 100 100 94 74 58 38 36 38 27 14 29 46 35 36 47 39 53 58 59 95 97 97 97 94 97 98 99 97 97 98 82 74 81 91 91 89 92 97 72 42 34 28
100 100 100 100 100 100 78 48 51 39 24 14 9 13 13 16 38 49 53 50 59 88 96 97 100 98 93 97 99 93 98 99 94 98 98 97 96 97 95 97 97 91 69 54
92 83 88 85 92 88 80 63 45 23 10 6 5 13 28 52 71 80 77 74 91 95 98 96 98 98 100 96 97 93 98 98 97 98 96 94 96 97 96 96 98 97 97 97
76 77 62 23 32 44 57 46 19 10 8 8 10 48 77 99 98 94 99 100 100 98 98 99 96 99 100 98 95 95 100 96 91 88 94 96 97 96 97 97 98 100 96 91
49 54 48 30 34 16 24 16 10 10 9 9 13 72 99 100 99 96 98 99 100 100 98 98 99 98 97 99 98 98 99 99 99 98 97 96 100 99 97 97 98 96 98 97
35 37 51 32 32 45 37 16 11 11 11 11 8 8 24 68 91 94 98 100 100 100 100 98 98 99 98 98 98 99 97 97 98 97 99 99 100 98 94 98 96 98 100 93
42 48 53 54 53 54 48 43 33 21 18 16 14 11 9 13 36 88 99 100 100 100 100 99 99 98 98 98 98 98 99 98 100 97 99 97 98 98 96 97 93 96 100 95
48 53 60 50 44 50 58 57 49 41 34 26 22 19 14 10 8 37 100 100 100 100 100 100 99 98 100 99 100 99 95 98 98 98 98 99 99 97 98 97 97 100 99 98
50 50 54 51 38 44 42 40 34 28 28 21 17 14 11 10 10 9 47 97 99 100 100 100 98 100 98 98 98 99 99 98 97 97 98 97 98 98 97 96 98 99 100 99
46 38 39 36 32 32 81 79 54 55 43 29 19 15 12 10 9 10 7 50 95 100 99 100 99 100 99 89 91 95 96 96 97 95 94 96 95 96 98 99 98 100 96 98
39 41 38 34 33 57 80 100 94 75 59 55 42 33 39 32 21 22 16 9 9 51 72 71 92 94 91 88 87 84 83 84 68 68 64 69 72 67 62 51 51 64 74 73

GFSCGP_500_rhum_105.txt.gz
RH
2 4 3 8 67 81 100 100 100 81 76 66 52 46 44 42 35 25 23 24 27 31 32 31 29 28 25 24 20 20 16 17 20 29 25 23 30 44 38 28 21 13 16 10
3 6 5 73 100 100 99 98 84 87 85 69 58 48 44 43 39 30 30 33 42 40 32 29 26 23 23 22 21 20 23 20 26 29 25 22 28 47 43 30 24 14 15 8
13 4 54 77 100 98 93 94 97 100 99 87 67 53 47 42 40 37 37 40 41 37 32 28 25 23 21 19 18 15 14 21 25 33 27 25 29 48 52 33 25 15 14 9
32 56 75 97 91 97 97 98 100 97 95 86 72 54 60 45 42 41 40 38 35 32 29 26 23 22 20 17 15 11 9 12 19 36 29 34 39 47 60 38 23 15 13 10
48 73 94 72 82 100 89 100 98 99 95 100 85 68 50 50 46 42 38 35 32 28 25 22 19 17 15 13 9 7 7 8 10 28 31 37 47 46 64 40 23 16 13 10
100 71 93 96 100 94 100 97 98 99 100 89 86 73 87 81 48 37 32 26 24 22 20 17 16 14 12 8 7 6 6 6 9 21 32 42 52 49 66 45 28 18 14 10
84 95 99 100 100 99 99 100 100 100 97 68 93 73 69 88 58 36 27 23 19 19 18 18 15 12 10 10 10 10 9 7 8 21 33 49 54 57 71 49 31 19 14 11
83 99 100 100 100 100 100 100 100 100 100 98 92 66 94 67 28 23 24 22 18 18 16 14 13 12 10 10 10 11 10 8 9 19 47 55 60 70 76 57 31 20 15 11
95 100 100 100 100 100 100 96 100 99 98 98 100 97 74 38 26 21 18 16 15 14 14 15 14 13 11 10 10 9 9 10 12 25 58 61 78 84 79 64 27 21 16 14
100 97 100 100 100 100 100 100 100 96 91 88 91 99 97 88 33 19 16 15 14 14 13 11 10 7 5 5 6 10 11 14 17 52 64 74 97 84 76 69 29 22 17 16
96 92 100 100 100 100 100 98 99 91 73 98 99 98 100 68 36 21 15 14 12 14 12 8 9 13 14 12 16 14 21 23 48 70 80 98 97 82 68 71 27 26 19 19
100 100 100 100 100 100 100 95 72 78 63 36 72 97 99 60 19 14 15 16 35 24 18 14 27 35 25 24 25 30 50 65 80 98 99 97 87 81 69 76 31 26 22 24
91 100 100 100 100 96 97 59 76 93 92 41 37 79 77 31 14 12 11 10 13 33 56 38 42 48 51 34 34 45 70 91 100 99 99 95 94 78 69 73 52 27 24 24
97 100 100 100 100 100 91 81 59 63 38 77 24 75 86 15 30 23 17 9 11 21 58 77 66 53 59 55 54 49 65 100 97 94 93 92 96 85 77 82 45 59 38 23
100 100 100 100 100 97 100 64 44 61 40 42 92 23 20 25 32 28 26 16 13 26 32 62 77 74 66 69 76 73 84 98 95 98 97 95 100 92 85 87 50 68 74 51
94 100 100 100 100 100 84 61 59 62 56 40 40 53 18 19 26 31 25 23 33 33 44 64 70 85 87 96 94 97 98 100 97 99 98 100 84 91 95 100 70 77 75 68
100 100 100 100 100 100 100 99 99 95 66 36 25 22 11 17 12 19 31 29 32 38 46 51 94 78 98 99 96 100 94 99 91 99 96 100 95 96 97 99 98 93 90 98
100 100 100 100 100 100 84 99 96 67 46 34 20 11 11 16 6 19 35 53 58 58 58 62 97 95 99 99 99 95 93 98 100 99 99 99 94 97 96 96 97 97 96 97
98 99 86 66 72 67 84 92 76 54 33 18 7 6 42 49 32 72 63 83 84 88 86 92 94 97 98 100 98 98 95 93 93 100 98 94 87 90 98 97 97 97 96 97
86 62 50 40 18 21 71 55 58 29 17 11 8 10 32 68 76 92 93 82 87 83 72 84 96 97 96 98 100 99 98 99 89 95 100 96 100 85 99 98 97 96 97 96
34 40 42 44 41 43 32 22 15 13 23 11 9 10 34 86 88 93 93 92 98 100 98 100 100 100 98 97 97 100 97 100 97 90 97 96 94 94 95 96 97 98 98 98
30 40 34 37 47 48 47 42 34 20 13 12 12 11 9 9 10 18 31 45 98 96 98 97 98 98 99 100 99 95 97 99 99 98 100 99 97 97 100 95 93 97 97 97
57 37 38 43 54 51 52 53 50 44 35 25 20 18 18 16 13 12 9 11 84 100 100 94 90 83 92 98 100 98 99 96 97 97 97 98 97 97 97 98 99 98 99 96
38 42 46 50 51 44 44 50 57 58 55 49 45 43 41 34 25 20 13 10 11 30 83 100 98 86 80 85 96 97 97 98 96 98 99 99 100 98 98 98 100 100 98 98
42 43 45 44 48 48 37 48 64 64 52 48 40 32 26 21 15 13 12 12 10 10 20 44 84 99 95 92 90 90 90 92 97 99 99 97 97 97 97 98 97 97 97 98
39 44 45 40 37 35 36 34 60 95 86 74 56 41 32 28 29 24 21 21 22 17 10 9 15 21 38 49 52 42 61 71 79 78 80 83 77 80 88 87 91 93 95 94

GFSCGP_500_rhum_108.txt.gz
RH
4 5 2 2 2 2 4 50 67 55 89 100 83 79 79 65 53 48 51 48 41 34 24 20 18 18 20 22 24 27 23 23 22 19 17 15 17 18 15 16 30 39 26 20
10 7 2 2 3 3 22 73 91 98 98 99 99 91 94 71 58 49 50 47 43 39 28 23 22 21 28 34 33 33 23 21 26 23 22 17 17 22 18 22 25 35 30 23
11 5 9 5 4 16 50 96 99 91 100 100 100 94 89 63 54 58 52 48 44 40 28 26 29 38 47 46 36 28 24 20 21 28 28 23 17 25 20 25 27 35 36 25
11 24 60 11 8 38 83 100 100 100 100 95 100 85 70 81 74 64 57 49 43 39 36 31 32 42 42 36 29 26 25 23 20 20 20 18 20 27 26 22 28 45 44 24
16 55 100 100 51 57 71 100 100 100 99 92 95 83 68 100 100 86 61 51 45 41 38 38 39 39 35 32 28 24 21 19 17 11 14 16 18 28 29 23 31 47 50 24
38 98 100 73 100 98 100 100 96 98 100 99 73 82 85 100 98 99 68 53 48 43 40 38 37 35 32 28 24 21 18 16 15 12 12 14 22 26 30 30 31 55 52 25
22 83 93 99 100 100 100 94 100 100 96 50 73 98 83 97 91 85 65 71 56 43 41 38 34 30 27 21 18 16 14 14 12 7 10 11 15 21 26 29 30 63 55 25
30 87 83 74 91 73 82 99 98 93 78 70 100 95 99 95 97 100 91 83 68 74 61 44 33 29 23 19 17 14 12 10 10 9 8 12 8 19 21 31 34 68 54 25
100 100 99 94 82 84 86 77 98 100 100 98 93 98 99 91 97 100 98 68 62 50 29 28 28 26 24 19 15 12 11 10 10 11 11 11 9 18 22 39 38 72 52 25
100 96 99 100 100 98 94 100 99 100 99 100 98 99 93 98 97 96 88 55 40 27 24 27 26 19 15 14 13 13 12 12 11 11 12 11 13 25 39 44 58 78 52 25
95 96 97 100 93 92 100 98 92 99 100 100 98 100 98 99 100 99 81 37 20 18 17 17 17 18 17 16 12 9 7 8 7 8 24 19 29 36 41 57 86 80 63 26
100 100 93 100 100 100 100 100 100 96 100 100 99 100 100 98 99 100 57 24 19 18 16 14 16 16 15 13 8 25 28 36 32 24 30 32 46 54 55 74 97 83 63 27
100 100 98 100 98 97 98 100 100 100 99 99 100 99 100 96 86 83 32 15 15 12 15 33 21 13 9 8 7 21 28 30 30 27 44 49 58 64 84 94 94 95 81 31
70 98 100 100 100 100 98 96 99 98 100 100 100 100 98 98 80 38 20 22 14 10 10 10 12 20 18 23 25 34 41 32 36 40 56 64 81 87 83 93 95 99 92 54
94 100 100 100 98 100 100 100 100 100 100 100 98 81 83 95 36 34 28 29 28 17 8 8 13 15 18 26 52 48 50 41 48 65 77 85 97 94 97 96 96 98 100 70
100 100 100 100 100 100 100 100 100 98 96 95 100 96 86 57 24 23 26 32 31 24 21 16 14 21 22 35 60 70 66 65 62 66 88 91 78 85 90 96 97 98 98 95
99 100 100 100 100 100 100 100 88 84 83 86 99 91 58 37 15 13 15 16 30 37 35 30 28 23 27 52 67 86 82 93 96 94 95 89 90 98 97 95 97 97 98 98
98 100 100 100 100 100 100 99 93 98 100 99 95 47 25 18 11 10 8 25 36 51 68 73 51 32 51 68 86 100 97 92 98 100 100 100 100 98 96 96 96 96 96 100
100 96 100 100 100 100 86 95 94 95 86 62 40 20 16 26 44 53 43 70 73 64 82 76 68 70 93 98 95 98 99 98 99 100 100 100 99 97 98 97 97 96 97 98
98 99 99 94 89 99 90 90 80 93 61 44 21 11 6 17 39 74 100 88 83 74 72 75 57 56 71 90 94 96 100 100 100 100 99 97 100 88 81 85 96 92 94 96
91 61 66 70 88 56 38 25 28 34 51 35 15 10 10 15 47 88 96 87 89 65 93 93 90 81 73 72 92 96 98 99 100 93 98 86 99 97 100 88 97 100 87 98
39 97 46 43 54 67 60 46 42 35 27 23 18 14 10 9 16 39 34 12 14 24 82 84 77 77 80 81 92 96 98 98 97 98 100 100 99 100 97 94 93 99 92 96
33 35 39 28 37 42 48 51 51 45 40 31 20 17 17 15 14 13 13 14 14 11 16 77 88 84 87 72 79 94 98 99 98 96 97 100 99 100 100 97 98 98 77 98
24 29 32 31 37 39 43 44 48 54 60 59 53 48 45 44 43 41 37 28 23 19 13 10 16 24 55 72 88 87 88 96 97 98 99 98 98 99 99 98 99 98 98 100
28 26 30 33 38 46 45 46 40 39 47 52 55 53 48 44 40 36 30 26 18 14 14 11 10 9 26 43 38 37 34 37 57 69 84 93 96 97 99 98 98 98 98 99
29 28 28 38 40 40 39 40 39 33 40 73 74 71 65 50 41 36 30 26 21 18 14 15 20 14 10 9 13 15 16 28 38 41 43 58 69 79 90 95 96 98 98 98

GFSCGP_500_rhum_111.txt.gz
RH
5 4 2 2 4 3 2 3 3 3 4 34 39 34 82 83 92 83 72 60 53 50 49 49 42 35 28 25 22 19 17 16 20 23 23 21 18 19 20 20 17 24 26 27
10 6 5 7 8 5 4 3 3 3 4 97 97 70 73 87 78 74 75 74 62 56 52 49 48 42 33 25 21 18 18 20 26 30 31 26 23 20 20 22 18 28 28 30
18 11 11 11 11 9 6 5 3 4 21 84 94 88 80 87 98 88 62 72 73 66 54 48 48 44 40 28 24 21 22 39 45 44 30 27 25 23 22 26 23 27 28 30
39 14 13 19 70 19 10 6 5 30 98 99 97 85 85 99 87 59 55 78 90 73 61 50 44 42 41 39 28 26 29 44 47 35 28 26 23 22 25 25 21 23 28 24
87 25 13 32 99 98 8 11 25 98 98 88 96 96 59 72 98 94 100 96 92 74 54 44 42 43 40 36 29 31 39 55 33 29 27 24 22 20 22 26 22 24 28 24
72 28 60 32 100 73 51 100 93 79 98 99 66 94 66 96 100 95 96 82 66 58 60 58 52 44 42 38 35 36 39 35 48 46 26 18 18 15 16 21 32 37 37 26
51 15 81 94 78 92 98 100 91 100 100 56 58 99 76 93 100 96 93 75 60 59 60 65 57 48 44 41 41 39 37 34 29 33 20 15 13 13 10 13 28 37 40 32
13 26 60 93 65 96 98 63 78 87 55 37 73 71 51 100 93 92 82 63 56 58 65 60 52 49 44 41 38 35 31 27 23 19 22 12 13 12 9 9 17 33 40 38
16 32 100 87 100 94 96 63 70 78 76 80 65 57 82 98 74 84 83 69 71 87 65 59 58 50 50 53 46 33 26 22 20 20 20 14 12 15 20 21 12 29 32 40
82 96 100 95 72 69 73 87 76 80 91 95 81 79 100 98 100 90 78 73 82 93 88 56 39 62 77 75 48 33 26 22 19 20 19 13 12 14 40 44 25 32 30 44
100 100 100 100 99 95 75 88 76 100 92 99 93 99 99 99 97 97 100 99 98 91 67 44 48 56 41 31 27 22 20 17 15 14 17 17 14 26 46 59 28 20 40 54
100 100 100 100 100 100 100 100 100 100 99 99 98 100 97 100 99 97 99 98 97 86 76 50 53 32 25 20 17 16 15 15 21 42 43 42 60 55 59 66 52 27 50 78
100 100 100 87 100 100 100 100 96 100 100 100 99 100 99 100 100 100 97 71 61 38 23 19 18 18 18 19 18 17 14 40 44 42 58 61 53 63 75 88 43 29 56 78
100 100 100 100 97 100 100 100 97 99 100 100 100 99 100 100 97 87 86 60 36 25 24 16 13 13 16 17 13 14 16 20 30 34 41 34 48 65 84 83 52 42 62 86
81 94 99 100 100 99 94 100 100 100 100 99 100 100 99 88 89 55 31 28 20 26 31 21 13 10 10 9 10 11 29 41 33 46 38 29 36 40 58 69 62 73 80 94
100 92 100 96 100 100 100 100 99 97 100 100 98 98 99 98 94 92 28 29 34 31 30 29 24 20 18 14 11 10 11 31 38 52 48 39 52 53 53 61 88 80 72 97
98 100 100 100 100 100 100 100 96 98 100 96 99 99 97 95 90 63 26 14 15 16 30 43 44 34 26 20 14 10 17 39 50 63 67 55 56 65 85 92 84 93 93 96
100 99 99 100 100 100 100 95 93 95 89 86 91 86 97 82 39 26 26 10 9 9 33 59 83 73 60 33 41 26 47 77 84 89 76 79 68 66 78 88 96 93 95 92
100 100 98 100 100 98 98 100 98 99 99 99 100 99 90 60 29 34 58 47 48 69 75 66 74 67 61 56 49 52 62 74 100 98 100 98 98 94 96 83 87 90 99 97
100 100 100 99 100 100 100 92 83 90 96 96 87 56 33 15 10 72 95 97 100 93 76 75 82 73 59 59 63 70 86 82 86 99 99 98 97 91 86 94 97 82 83 95
76 88 100 100 100 100 88 39 46 57 58 68 70 39 16 11 10 14 55 98 100 48 44 46 76 86 74 71 70 66 75 95 92 97 98 99 98 98 97 92 75 83 97 80
99 97 56 60 75 76 67 53 47 43 39 44 35 28 20 16 11 10 20 30 18 11 10 14 48 73 79 82 75 71 73 89 94 97 100 98 99 100 98 99 99 98 92 100
41 43 64 34 37 36 40 47 50 50 47 41 38 33 30 29 24 19 17 18 19 21 21 18 15 13 29 42 54 69 71 73 74 94 100 98 97 98 99 99 98 98 98 99
27 26 28 26 30 25 23 30 38 42 47 51 52 51 50 50 47 43 42 42 40 39 35 28 22 14 12 12 14 24 32 44 45 48 75 89 98 99 99 100 99 99 100 98
23 22 24 25 24 26 25 26 32 40 42 40 42 45 50 54 56 50 44 40 35 28 24 21 18 18 14 11 11 10 9 11 13 17 18 29 55 82 97 98 99 100 98 99
19 18 18 20 24 29 31 31 31 36 39 40 38 38 51 67 72 66 55 51 47 51 47 41 35 32 31 19 15 12 10 10 10 12 13 11 12 15 32 55 83 95 96 99

GFSCGP_500_rhum_114.txt.gz
RH
2 4 9 11 12 8 5 5 3 3 3 3 6 5 4 18 30 64 87 96 95 86 77 83 76 70 65 52 38 35 30 26 27 26 27 20 24 29 24 21 19 17 18 19
6 11 31 30 22 13 10 9 4 2 2 4 7 9 4 18 19 38 76 97 96 98 91 81 76 68 65 62 50 41 36 26 22 20 16 24 37 34 32 31 24 21 24 25
60 55 76 36 20 19 23 12 7 3 3 10 74 6 12 6 7 13 56 86 94 98 98 92 77 65 54 52 48 44 40 30 22 19 22 44 56 83 87 47 32 30 28 25
83 87 84 74 26 22 42 33 10 6 8 13 100 50 72 63 22 16 45 80 100 100 96 82 72 62 51 44 46 48 48 45 39 22 19 36 49 61 37 28 27 32 30 26
69 45 89 94 21 27 54 92 17 18 11 64 58 95 55 81 75 70 100 94 87 91 76 72 70 69 60 48 43 43 42 41 58 51 63 46 55 36 30 28 27 32 35 28
58 42 76 56 21 15 96 32 32 78 36 50 59 99 47 88 41 100 96 99 80 69 75 64 65 60 65 57 48 45 42 40 45 47 40 92 96 66 38 25 21 26 33 26
69 80 36 16 13 76 81 81 79 100 98 59 100 83 96 76 99 82 97 92 84 65 69 70 68 71 67 63 54 48 41 38 37 35 38 43 64 76 60 30 17 18 20 27
35 15 22 33 50 100 100 95 80 89 89 79 86 65 87 95 99 95 90 78 82 56 47 54 53 58 54 56 60 53 46 42 37 37 39 37 30 34 49 42 14 15 14 18
11 22 60 100 88 91 90 76 69 88 87 83 93 94 84 92 88 98 97 96 83 78 82 88 86 81 66 63 59 59 52 46 43 40 38 33 24 24 43 34 15 16 12 16
48 42 99 99 90 98 87 94 70 88 100 100 74 79 62 44 37 56 51 80 89 89 80 75 71 74 73 63 54 46 41 40 38 38 37 41 38 24 38 45 24 23 29 25
100 100 100 98 100 100 91 62 65 75 82 84 97 99 72 73 67 98 90 62 82 97 81 89 90 77 58 56 48 46 51 62 56 35 60 47 29 28 23 37 36 32 54 58
99 100 95 91 98 99 92 87 81 69 79 100 100 100 98 100 100 100 98 85 89 96 90 89 100 82 70 59 49 59 39 60 88 73 32 25 35 40 61 59 58 56 57 66
96 100 100 100 100 100 100 100 100 99 100 100 100 100 100 100 98 99 99 100 100 97 81 99 95 77 69 63 59 28 24 22 22 20 16 16 24 35 69 83 84 87 85 97
62 100 99 99 99 95 93 100 100 100 100 100 100 100 100 100 100 100 98 98 97 95 90 62 48 34 26 22 23 19 18 19 18 18 17 30 47 52 59 80 92 97 97 96
33 86 90 98 99 100 85 100 100 100 100 100 100 100 100 100 96 98 85 100 80 47 34 30 28 25 19 14 13 14 16 14 17 14 13 34 36 35 48 66 78 91 99 97
65 100 100 100 100 100 100 100 100 100 100 100 100 99 100 99 99 94 67 24 23 29 21 20 17 16 15 12 10 10 9 10 11 15 16 15 21 36 38 38 61 80 99 95
80 92 100 100 100 100 100 100 100 100 100 100 100 95 92 93 91 84 80 64 21 13 12 14 24 28 27 22 20 15 9 9 12 13 16 18 28 31 37 38 48 65 77 91
89 90 100 100 100 100 100 100 100 100 100 99 100 99 95 91 94 69 35 41 20 16 16 16 19 35 63 64 58 42 25 22 38 22 20 41 48 61 57 50 54 50 72 85
89 86 100 100 100 100 100 100 100 100 100 100 100 98 97 96 99 87 46 51 60 74 75 68 64 66 70 61 57 60 55 58 48 51 85 98 91 80 74 90 94 74 100 78
72 88 89 100 96 100 99 92 84 82 84 80 80 85 75 72 71 27 34 48 49 81 83 73 68 78 82 75 71 69 72 68 64 79 96 98 98 100 97 97 84 99 99 79
100 100 100 100 100 95 83 75 60 57 59 75 79 85 76 47 26 29 25 9 11 45 68 25 29 52 75 74 67 65 65 62 66 90 94 98 99 97 97 98 99 96 89 97
98 94 99 100 100 98 84 55 49 48 44 52 61 53 50 36 38 16 11 10 12 13 12 10 11 13 29 46 67 62 62 64 59 62 75 82 91 89 98 98 98 99 100 99
88 95 91 75 58 54 51 47 42 44 44 45 44 40 41 41 35 32 29 29 30 33 33 34 34 29 26 19 18 17 22 28 31 41 52 51 74 84 75 91 97 98 95 97
41 34 35 28 27 25 23 24 28 30 31 36 40 44 49 50 49 48 47 47 42 39 37 34 32 31 31 27 22 17 16 19 18 18 18 20 27 32 46 94 98 94 96 99
31 24 21 22 21 19 16 15 12 14 20 20 30 36 39 40 41 46 49 52 50 46 43 40 35 30 27 22 22 15 13 13 13 18 15 11 12 13 14 13 18 55 95 98
32 23 19 17 16 14 13 12 12 12 16 20 20 27 35 38 39 43 52 67 69 61 54 48 45 46 45 39 36 27 18 17 17 16 16 20 22 16 16 18 18 17 16 24

GFSCGP_500_rhum_117.txt.gz
RH
2 1 1 2 2 2 3 9 15 10 14 10 6 5 6 5 5 5 5 7 69 98 70 99 87 72 82 84 59 47 42 40 38 37 38 36 38 35 33 30 31 30 25 21
2 2 3 2 3 27 36 36 35 31 20 8 6 5 4 5 5 4 5 6 36 96 98 99 99 98 94 77 59 47 42 40 38 35 33 30 30 29 40 29 33 32 29 30
4 8 4 15 35 49 58 45 32 35 26 10 6 5 4 4 4 4 4 5 10 66 98 97 95 93 72 71 64 55 58 56 49 41 33 29 27 23 58 77 89 91 82 44
16 19 18 64 43 72 47 36 27 22 16 9 13 7 4 3 3 4 4 7 9 31 76 96 96 83 81 81 78 67 65 58 57 49 41 43 26 22 70 100 97 84 67 59
35 22 57 45 45 85 47 43 78 100 94 20 10 9 13 14 38 28 5 8 14 26 90 96 96 95 74 77 73 68 60 55 53 50 48 46 58 67 49 55 87 59 55 42
36 43 37 54 58 86 51 24 100 92 35 12 9 7 85 80 80 76 37 10 18 32 46 69 87 82 79 82 80 70 63 56 52 50 49 51 62 72 94 95 79 43 50 49
23 32 41 22 23 47 22 78 77 68 59 54 32 29 59 100 100 88 80 47 28 22 18 35 64 78 73 74 72 66 64 55 49 48 50 55 63 76 55 85 77 97 76 66
10 14 35 17 12 16 38 71 70 99 99 100 90 100 100 80 67 74 45 65 97 91 72 64 78 84 73 64 65 58 56 59 54 49 46 51 53 52 53 57 63 79 84 72
29 36 49 74 54 66 94 70 94 98 100 100 100 100 76 81 100 98 98 62 91 96 98 98 98 98 96 92 86 78 71 65 59 52 48 44 43 42 38 42 48 45 51 55
96 100 100 100 94 81 99 93 93 93 99 100 99 100 100 100 99 100 99 97 84 96 100 99 88 95 97 98 88 82 71 56 52 53 52 49 45 44 41 37 35 44 46 54
99 100 100 77 77 87 99 70 84 100 100 100 100 93 88 84 99 100 95 81 89 93 89 82 77 80 85 84 81 80 68 59 52 51 57 56 52 46 37 26 29 39 54 69
78 87 100 96 99 100 98 79 60 82 98 100 100 100 100 100 98 74 78 92 95 99 63 83 78 95 82 83 83 84 68 66 62 53 45 40 42 42 36 47 53 47 57 67
50 78 88 100 99 100 100 81 39 47 76 98 98 100 100 100 100 100 100 91 100 100 88 79 82 82 91 82 96 85 82 64 57 59 54 54 55 56 66 57 30 46 61 79
28 96 77 94 96 100 83 100 97 97 100 100 100 100 100 100 100 100 100 100 100 99 95 98 99 98 80 81 98 87 79 68 53 42 46 46 53 54 34 28 27 35 59 80
44 100 99 97 76 96 79 100 100 99 100 100 100 100 100 100 99 98 94 100 98 99 99 99 98 94 88 75 39 25 22 23 67 53 24 18 18 17 23 42 57 67 74 78
76 100 100 100 100 95 89 100 100 100 100 100 100 100 100 100 100 100 100 94 99 87 57 38 39 42 30 22 21 19 18 14 13 14 18 18 19 19 18 29 58 70 71 69
65 98 100 100 100 100 96 100 100 100 100 100 100 98 100 100 96 95 100 99 56 35 17 15 16 24 28 33 32 26 18 13 9 9 10 9 11 13 14 36 44 41 54 58
91 87 100 97 100 100 98 100 100 100 100 100 97 95 100 99 99 93 84 87 61 42 32 35 34 32 45 51 41 36 45 23 16 14 11 12 13 23 24 23 32 45 42 43
79 90 96 100 100 100 100 100 99 99 100 98 94 93 98 100 100 100 94 84 85 75 72 72 71 60 61 56 56 48 47 47 41 39 30 23 13 16 20 31 38 39 45 46
73 98 100 93 100 100 100 99 97 93 90 95 96 94 71 47 48 51 35 63 64 57 70 86 71 66 76 80 72 68 58 54 51 53 53 65 49 34 79 92 86 71 71 90
100 99 100 100 100 100 99 89 52 49 57 67 72 66 76 73 63 30 15 16 20 10 13 45 59 19 39 57 67 68 61 59 60 62 66 85 87 97 88 65 76 78 92 96
100 100 100 100 100 100 100 72 51 49 44 42 43 42 38 34 26 27 28 21 14 11 11 11 11 10 11 14 22 20 32 46 27 32 43 42 51 63 77 94 97 99 97 100
99 100 100 100 99 88 85 71 58 51 47 45 44 44 43 44 46 49 46 40 31 28 24 22 22 25 28 31 32 30 30 27 24 24 24 23 20 24 39 44 54 74 99 99
90 68 83 85 66 34 33 32 32 33 33 32 30 30 29 29 30 33 33 37 39 42 44 45 43 38 33 29 27 27 28 28 29 30 26 26 23 21 20 16 17 18 26 65
54 47 30 28 28 27 23 18 15 13 14 14 13 12 12 14 17 19 20 24 28 32 33 35 36 36 37 38 36 34 30 24 24 22 20 22 20 21 20 14 16 20 20 18
69 45 30 21 18 17 15 13 12 12 11 12 11 11 11 12 14 13 16 20 26 29 32 36 38 41 42 42 41 38 34 30 29 27 22 18 16 15 14 17 21 23 18 18

GFSCGP_500_rhum_120.txt.gz
RH
14 12 8 3 2 2 2 2 2 2 2 2 2 2 2 2 2 2 2 2 2 4 5 39 100 98 91 70 60 56 56 55 60 57 63 64 55 54 58 55 43 35 31 30
3 2 2 2 2 2 3 4 10 8 9 8 4 8 6 4 2 4 7 5 5 6 6 42 100 99 98 93 80 70 62 60 57 51 53 58 48 44 42 50 44 36 38 33
2 2 2 2 6 18 11 34 32 35 26 23 26 18 28 27 18 13 12 8 6 6 6 8 93 93 97 82 80 71 65 73 58 57 62 52 48 43 39 35 35 41 53 50
2 3 5 10 14 28 27 49 37 53 20 19 35 37 30 24 10 7 8 7 6 6 5 6 57 100 88 79 62 64 63 76 70 66 64 62 58 51 46 46 41 35 46 81
6 8 7 8 18 29 28 48 58 37 46 72 68 71 9 8 13 20 22 5 6 9 6 6 25 87 81 65 58 61 64 75 88 81 68 67 63 59 51 48 44 59 77 99
13 12 19 22 17 11 10 30 60 21 63 63 37 23 21 85 94 46 39 6 4 7 6 6 9 38 46 97 95 88 87 89 97 93 76 72 65 56 49 51 88 89 67 71
19 23 37 41 36 32 10 16 15 49 73 97 100 20 21 89 100 84 84 42 5 3 6 7 10 15 23 46 82 98 95 96 98 97 79 74 70 65 60 52 53 68 97 96
29 45 57 87 75 58 40 14 36 74 99 100 99 90 96 100 100 94 99 97 53 7 5 8 13 11 11 52 86 92 96 98 97 97 95 80 69 64 69 65 69 92 92 75
47 60 51 74 88 100 70 81 69 62 99 93 100 96 100 80 100 84 83 92 94 54 20 14 20 19 26 58 82 98 98 98 98 97 97 94 68 60 64 68 70 82 75 60
48 43 57 84 77 71 60 71 99 76 93 100 100 100 100 99 100 100 99 99 55 84 94 69 69 61 43 82 100 100 100 98 97 97 98 97 78 55 51 51 59 64 55 55
44 48 58 79 64 64 65 62 82 99 100 100 100 100 94 100 100 100 100 100 99 73 97 96 100 99 94 81 81 95 97 95 97 98 96 85 67 59 54 52 47 48 58 65
46 46 43 58 100 74 88 84 68 73 88 100 100 100 100 100 100 99 100 100 100 99 67 97 93 100 98 99 98 99 99 96 93 89 83 79 74 66 60 57 60 51 44 40
42 41 60 65 96 96 84 88 84 46 53 84 96 100 100 100 100 100 99 87 93 62 84 100 83 99 100 94 90 95 98 91 87 83 74 66 64 59 52 52 46 34 37 31
37 50 71 60 70 86 95 70 81 69 95 100 100 100 100 100 100 100 100 100 91 84 87 81 84 94 89 75 82 94 90 91 73 82 73 70 65 61 61 52 44 52 52 44
60 96 83 57 61 86 88 79 96 100 100 98 100 100 100 100 100 100 100 100 100 100 100 99 84 90 84 80 78 77 90 81 73 80 75 67 64 62 54 58 59 67 72 65
100 95 100 76 99 88 100 87 98 100 100 100 100 100 100 100 100 100 100 97 100 100 100 97 98 96 97 98 98 80 58 63 49 23 22 23 30 62 55 38 22 19 21 51
100 97 99 100 100 95 100 100 100 100 100 100 100 100 100 100 100 100 100 100 100 99 96 94 80 55 52 36 30 27 25 24 24 33 36 18 12 21 50 34 20 20 19 22
100 100 100 100 100 100 100 100 100 100 100 100 100 99 98 97 95 95 100 99 97 99 100 94 71 49 45 42 46 52 48 42 43 40 26 23 21 15 14 14 18 33 34 35
93 100 92 82 95 100 100 100 100 100 100 99 93 91 95 98 97 97 96 98 94 92 95 87 82 79 69 63 71 67 60 54 54 52 55 58 52 54 39 23 18 36 49 43
75 100 100 100 80 100 99 100 99 98 95 85 80 83 71 56 47 50 56 67 89 88 79 88 83 80 67 69 76 77 73 69 67 63 64 58 64 63 54 43 41 33 39 49
99 100 100 100 97 96 99 92 84 73 73 72 75 70 73 74 71 58 35 20 14 17 13 14 22 37 47 20 30 55 69 68 64 61 55 50 55 57 63 76 93 88 73 76
100 100 100 100 100 100 99 95 62 53 45 47 51 54 48 43 32 28 29 29 32 28 20 14 14 13 14 14 17 17 18 18 18 23 21 20 23 23 22 28 48 61 79 87
100 100 100 100 100 100 100 100 82 59 52 48 48 47 46 45 43 41 40 42 44 46 45 45 43 39 34 29 25 25 25 25 25 25 23 21 21 22 24 24 22 22 25 33
100 100 100 100 100 98 95 87 65 44 39 38 34 30 25 20 18 16 16 16 15 14 14 16 18 20 23 25 28 31 30 34 35 35 34 34 32 31 30 29 28 24 22 19
94 97 80 91 93 85 44 38 33 27 21 16 14 12 12 11 10 10 10 9 8 8 9 10 12 14 16 16 18 20 23 29 32 32 32 30 28 26 24 26 25 24 20 20
89 98 82 51 42 37 28 25 23 16 13 12 12 11 11 11 10 10 9 9 9 11 14 16 18 22 24 25 25 26 27 29 31 33 34 35 35 34 31 25 21 19 18 18

GFSCGP_500_rhum_123.txt.gz
RH
40 24 20 13 7 3 2 2 3 4 3 2 2 2 3 3 3 3 4 5 7 9 7 4 4 4 4 6 32 32 19 31 46 54 47 48 63 74 57 65 72 67 60 50
17 8 6 4 2 2 2 2 2 3 2 3 3 4 5 3 2 4 2 2 2 4 5 4 4 5 10 13 25 49 37 38 51 56 52 49 54 71 71 68 66 66 66 60
7 4 2 2 2 2 3 6 5 6 4 6 12 10 13 21 21 7 7 9 5 2 2 2 3 5 5 32 45 81 51 56 64 69 64 61 62 66 68 76 78 76 81 78
4 2 2 2 4 9 12 27 28 11 9 7 18 40 38 36 9 8 10 13 10 13 8 5 5 6 6 45 50 94 89 80 75 70 67 57 64 63 71 77 80 59 70 67
2 2 4 15 27 31 31 38 28 8 14 17 90 33 14 6 34 81 34 27 33 11 12 14 8 6 6 26 99 83 90 68 67 85 72 70 76 71 88 87 75 65 62 70
2 5 18 29 38 24 39 43 14 12 29 61 74 98 8 58 97 100 100 97 60 10 15 30 8 8 7 51 100 96 42 44 48 66 61 75 93 97 95 98 80 65 57 58
4 16 25 39 30 30 42 40 28 33 54 84 99 73 47 99 100 98 80 84 63 20 20 55 14 11 9 38 93 93 73 60 61 58 69 93 97 96 96 100 76 81 73 51
16 39 34 31 32 40 38 43 34 42 57 66 100 100 95 100 100 100 100 93 100 97 40 42 31 11 8 8 18 90 93 99 100 99 98 89 98 92 98 98 88 89 86 72
19 36 38 34 34 38 50 39 31 41 66 90 99 100 100 100 100 100 100 100 100 100 34 10 22 28 24 19 24 45 98 99 98 99 99 94 97 94 97 96 93 81 73 81
24 29 33 29 29 46 61 37 36 49 76 91 100 100 100 100 100 100 100 99 85 100 49 8 9 12 20 29 35 44 52 76 91 92 81 98 98 98 98 95 94 77 70 74
24 30 34 30 46 58 63 49 47 45 70 78 94 100 100 100 98 100 100 100 100 98 91 100 62 21 28 38 38 53 58 100 79 91 97 98 98 97 98 97 94 74 66 70
19 27 31 37 41 56 78 60 40 41 63 58 92 99 100 100 100 100 99 99 100 99 100 99 81 99 73 77 69 88 100 99 100 99 97 98 96 98 97 99 96 86 64 55
24 39 28 46 49 63 86 82 67 41 51 80 100 100 100 100 100 100 100 100 100 100 100 100 97 99 98 98 91 91 89 81 87 99 100 99 99 100 95 91 88 82 69 64
25 36 27 27 43 47 71 75 65 62 93 100 100 100 100 100 100 100 100 100 100 98 90 75 99 100 99 100 100 100 100 98 97 96 97 85 76 83 84 77 75 71 64 55
30 52 42 36 47 76 79 78 78 100 100 100 97 99 100 100 100 100 100 100 100 100 95 98 100 97 100 99 100 95 91 86 85 89 83 72 57 73 77 72 67 62 62 61
44 89 100 66 51 97 100 100 98 99 100 89 100 100 100 100 100 100 100 100 100 100 100 100 100 100 100 100 88 88 90 86 88 90 78 66 49 57 60 61 60 61 60 55
73 88 100 97 94 80 100 100 97 100 100 100 100 100 100 100 98 100 100 100 100 100 100 100 100 100 100 100 91 83 90 86 50 36 31 26 42 50 34 22 26 34 56 62
81 94 96 100 100 100 100 100 100 100 100 100 100 100 100 100 100 100 100 100 99 100 100 100 100 100 98 99 98 94 80 65 58 47 50 53 47 40 31 24 15 12 13 29
78 79 82 89 100 100 98 100 99 100 100 100 98 92 98 100 100 100 100 100 100 97 100 99 99 100 99 98 90 84 63 50 50 59 61 61 62 63 65 68 68 61 29 16
86 84 87 91 100 100 100 100 100 100 100 100 94 85 65 41 48 53 65 74 85 94 85 54 49 40 56 70 57 65 77 78 78 75 70 64 64 65 61 58 61 76 92 64
79 90 99 98 99 100 100 100 93 95 98 92 83 81 85 77 66 52 41 24 19 16 16 15 13 14 16 19 20 14 17 25 34 38 27 28 31 21 24 24 24 29 44 72
83 98 100 100 100 100 100 100 70 54 58 53 58 56 46 42 34 34 35 34 34 36 38 38 38 37 34 28 25 23 22 21 20 20 21 22 22 21 21 21 20 20 21 23
88 92 100 100 98 100 100 100 85 69 54 49 47 47 47 46 45 41 34 28 23 18 16 15 12 11 10 10 11 12 14 17 20 22 25 26 26 27 28 28 29 29 29 28
79 86 94 100 99 99 100 100 100 90 66 56 45 38 33 22 14 12 11 10 9 8 7 7 7 6 6 7 6 6 6 6 6 7 8 7 10 14 17 19 22 24 25 26
84 98 95 89 99 100 99 100 99 86 55 39 28 16 12 11 10 11 11 10 9 8 7 7 7 8 10 9 9 9 11 12 11 14 14 14 16 17 19 25 28 29 29 27
46 80 94 95 88 98 96 60 47 36 30 23 16 12 12 12 13 13 11 9 9 9 10 11 12 12 12 13 13 13 13 13 14 14 14 13 13 13 12 12 13 15 20 25

GFSCGP_500_rhum_126.txt.gz
RH
32 34 36 39 34 25 15 10 8 3 2 4 4 5 5 3 3 3 4 5 5 6 6 6 6 6 6 5 4 3 6 11 28 26 16 20 43 38 40 42 45 43 51 67
34 37 33 22 15 10 5 3 2 3 3 4 5 4 3 3 3 2 2 2 2 2 3 4 4 4 6 5 4 4 4 10 16 20 11 25 47 49 44 44 47 55 56 73
36 28 20 12 8 5 2 2 2 3 3 7 6 3 12 6 6 10 11 11 7 3 1 1 2 3 2 3 4 4 4 7 15 27 30 16 25 51 47 47 50 62 68 72
28 17 10 6 3 2 2 5 6 7 8 8 11 3 28 19 14 17 72 52 38 13 9 7 3 1 1 2 3 4 4 4 56 52 39 23 28 61 59 56 53 64 79 83
18 10 4 3 2 3 8 12 18 19 17 8 25 16 100 20 68 86 95 67 61 58 24 14 11 8 4 4 4 4 5 5 34 62 30 75 96 76 71 63 66 82 79 76
6 4 3 2 4 12 14 22 26 23 21 35 55 65 54 72 70 85 99 96 69 42 14 15 10 14 17 17 9 6 6 6 39 57 55 71 97 83 75 77 67 66 75 76
4 3 4 7 18 16 22 25 33 26 38 60 76 95 84 71 52 83 99 99 86 45 10 20 27 39 39 53 31 24 28 23 37 81 98 96 100 98 87 85 75 75 79 76
4 4 4 14 26 23 29 29 32 36 35 46 73 89 88 94 67 94 89 90 80 67 36 61 52 65 66 87 69 55 92 99 84 97 80 96 100 100 98 62 68 72 88 96
4 6 7 23 25 25 33 47 29 21 32 43 55 77 98 100 99 99 98 100 100 99 100 56 78 61 61 53 74 72 85 83 69 34 57 68 79 82 57 64 84 70 82 97
4 8 16 24 26 26 40 56 46 24 28 44 57 81 88 96 100 100 100 100 100 99 100 23 46 64 54 52 33 30 53 82 99 66 70 98 96 82 71 95 72 58 90 96
3 8 16 31 28 29 36 68 50 31 28 40 46 79 88 84 99 100 100 100 100 100 100 87 29 48 86 48 51 50 35 35 63 64 93 77 74 56 64 79 62 97 86 98
4 10 17 41 28 32 49 80 69 39 35 36 54 80 88 89 100 97 95 100 100 100 100 100 100 73 100 97 52 69 62 40 40 47 44 46 50 94 95 92 92 100 96 97
7 10 18 31 29 40 56 78 74 68 41 50 96 87 91 91 100 100 100 100 100 100 99 100 100 100 92 65 46 67 78 73 66 64 66 83 91 99 100 97 98 96 97 97
8 14 14 31 27 41 61 79 52 36 73 86 85 97 97 86 98 100 100 100 100 100 100 100 100 96 99 100 97 93 98 71 95 99 97 99 95 99 97 91 92 93 92 97
20 22 13 31 24 40 83 81 66 77 92 79 96 98 98 98 100 100 100 100 100 100 100 100 100 100 99 100 100 98 94 91 98 99 96 98 96 96 83 73 68 84 86 76
28 28 22 51 53 65 91 94 88 77 77 64 90 100 100 100 100 100 100 100 100 100 100 100 100 100 100 100 99 99 99 99 100 100 96 92 93 86 80 67 75 83 85 84
27 29 52 78 99 88 92 100 100 85 99 97 100 100 100 100 100 100 100 100 100 100 100 99 100 100 100 100 100 100 100 95 94 94 92 58 40 38 32 41 50 42 40 45
27 28 56 94 100 100 100 98 100 90 100 100 100 100 100 100 100 100 100 100 100 100 100 100 100 100 100 100 100 100 100 100 100 97 88 85 73 60 58 55 40 30 35 34
12 27 55 85 99 96 100 100 100 100 100 100 99 100 99 100 100 99 99 100 100 100 100 88 70 72 80 90 79 94 97 94 96 92 78 74 69 59 61 66 69 67 70 61
13 26 45 72 79 82 88 100 100 100 100 100 100 87 76 68 73 84 73 75 75 63 43 23 21 18 19 21 34 29 22 43 56 67 72 74 69 62 60 48 48 46 41 52
15 47 72 71 79 84 85 100 100 100 100 100 100 100 91 80 71 48 32 33 23 28 29 33 28 23 22 20 18 17 16 15 15 16 17 20 22 21 23 25 24 23 23 23
20 40 66 77 84 95 94 100 100 96 99 91 81 70 61 53 40 34 34 36 39 45 44 34 28 24 20 19 21 23 24 23 22 24 25 25 25 26 25 24 23 22 22 24
23 47 74 94 100 95 92 100 100 98 68 55 49 48 46 47 48 49 45 33 18 10 8 7 7 6 6 6 6 6 5 5 5 5 5 5 5 5 4 5 5 5 6 6
14 37 77 88 99 100 95 100 100 100 93 69 57 53 50 47 40 27 13 11 10 9 8 9 8 7 6 6 6 5 5 5 5 5 5 6 6 7 7 7 8 8 8 8
17 42 84 92 90 99 97 100 100 100 100 99 73 53 42 32 19 14 12 11 11 12 11 10 8 7 6 6 5 5 6 7 7 8 10 10 10 10 10 10 10 10 9 9
13 20 56 85 93 97 100 100 100 100 100 100 81 50 27 18 14 13 12 14 17 14 11 9 7 7 6 7 9 12 14 14 14 14 14 14 14 14 13 13 12 13 13 12

GFSCGP_500_rhum_129.txt.gz
RH
14 15 14 22 26 30 31 32 23 18 13 14 10 11 5 4 4 5 5 4 5 5 5 5 6 5 5 12 13 6 6 5 5 8 40 59 30 22 45 25 32 30 36 39
17 19 25 32 32 31 28 25 16 12 9 7 7 8 4 4 3 3 3 2 2 2 2 2 3 4 5 5 7 11 8 6 6 5 26 60 41 44 54 46 20 30 30 36
24 26 31 35 35 31 25 18 8 4 2 2 3 4 4 6 12 2 4 15 38 43 10 5 2 1 2 3 4 5 7 7 6 5 36 49 45 54 36 18 12 29 43 40
30 33 38 39 32 25 13 8 3 2 3 7 9 4 36 13 30 20 59 57 52 54 42 41 39 18 4 2 2 3 3 5 6 6 15 14 38 22 9 14 48 55 50 50
37 40 40 35 26 13 4 3 2 4 6 9 23 91 100 54 67 62 63 76 87 62 47 37 43 58 36 15 4 2 2 2 5 6 7 26 35 39 27 30 60 64 53 54
50 50 44 25 9 5 3 3 6 10 22 18 98 72 100 68 50 43 49 64 83 68 47 46 20 8 24 28 12 9 4 2 3 5 6 30 63 95 91 56 100 79 65 61
55 51 29 9 4 3 3 6 14 22 91 83 96 88 73 61 48 32 34 66 76 62 37 49 35 18 9 9 10 15 9 5 4 4 7 16 46 64 93 74 97 100 94 71
69 37 11 6 4 3 3 12 20 30 62 73 44 82 62 73 54 33 37 79 77 78 51 46 48 50 58 45 42 30 36 15 8 7 10 14 33 54 80 86 92 96 84 74
32 10 6 4 3 4 8 16 25 30 41 22 70 60 54 75 43 34 58 83 96 80 94 87 62 74 99 88 99 70 99 66 18 11 31 52 58 60 56 79 98 99 89 75
12 6 4 3 4 6 14 23 27 53 55 50 100 51 58 75 63 61 61 77 92 94 93 35 46 100 80 89 97 100 85 79 55 53 71 93 100 100 72 93 97 79 88 81
5 4 4 3 5 12 19 30 38 52 53 39 39 57 50 77 57 57 71 84 93 97 99 99 27 98 60 98 52 83 100 99 68 63 51 83 88 98 96 100 88 100 89 65
5 4 3 4 6 14 22 30 36 60 66 65 69 47 68 71 60 63 78 94 96 97 100 100 98 54 100 52 65 67 78 100 100 85 100 72 46 83 99 98 78 65 74 84
5 5 6 6 15 16 35 30 31 57 65 59 61 50 73 74 66 75 93 95 97 98 99 100 100 100 100 81 95 55 77 70 87 90 92 100 82 62 69 26 29 58 65 83
4 3 3 6 11 22 21 23 44 59 57 70 98 66 73 75 80 94 89 93 89 98 100 100 100 100 100 100 86 100 48 63 69 50 40 39 68 60 55 58 75 65 66 58
3 3 4 7 12 47 29 32 65 66 56 54 67 86 91 80 99 100 93 100 100 100 100 100 100 100 100 100 100 95 70 49 47 54 70 69 66 78 81 65 89 98 80 97
3 5 8 11 23 58 42 74 84 71 56 78 90 86 77 95 100 100 92 91 99 100 100 100 100 100 100 100 100 100 100 100 100 81 97 94 99 98 97 100 97 90 91 75
3 3 9 22 39 42 43 86 99 90 87 91 87 95 97 94 98 100 97 98 100 100 100 100 100 100 100 100 100 100 100 100 100 99 99 99 93 84 69 62 56 50 51 45
3 2 16 44 39 52 66 77 97 100 90 100 100 100 99 100 100 100 95 99 100 100 99 98 96 98 94 100 100 100 100 100 100 99 98 97 91 83 76 65 59 65 70 68
2 2 11 58 56 47 79 89 93 98 100 98 93 96 99 99 93 97 98 92 94 93 74 31 21 32 36 32 53 49 79 98 100 98 96 95 93 88 82 76 74 74 78 78
3 3 5 27 54 64 62 74 90 99 100 100 100 100 98 96 78 81 83 68 55 32 18 20 24 29 30 26 24 22 22 21 20 20 22 25 29 27 29 28 32 28 25 26
3 3 3 25 44 58 72 71 72 96 100 100 100 100 100 90 62 59 40 29 39 38 38 40 42 40 36 30 27 26 24 24 25 23 22 21 19 18 19 18 20 20 20 21
4 4 5 7 47 74 63 77 78 98 98 99 100 100 100 98 78 52 51 43 38 43 39 14 9 7 7 6 6 6 6 6 6 6 5 5 5 5 5 5 5 4 4 4
4 6 17 26 40 60 70 83 96 100 100 100 100 93 76 50 42 42 46 50 42 14 8 8 9 8 8 7 6 6 6 6 6 6 6 6 6 5 5 4 4 4 4 5
5 6 8 16 43 59 76 94 99 100 98 100 96 73 53 47 50 52 49 33 12 10 10 11 11 9 8 7 6 6 5 5 4 5 5 5 6 7 7 6 6 7 7 8
6 9 13 17 40 67 94 100 100 100 100 100 99 89 84 77 61 46 32 14 11 11 15 12 10 8 7 6 6 5 5 6 7 8 9 10 12 13 12 11 11 12 12 12
9 11 13 17 41 84 82 98 100 100 100 100 100 100 99 92 59 32 18 12 13 16 15 13 10 8 8 8 10 12 13 14 14 14 15 16 17 18 18 17 15 14 15 16

GFSCGP_500_rhum_132.txt.gz
RH
7 15 17 13 14 15 16 18 28 32 30 27 23 22 16 7 12 12 10 6 5 4 4 4 4 4 4 4 6 7 6 17 18 12 10 30 72 83 67 50 35 29 27 34
10 13 16 15 15 17 19 25 32 31 29 24 21 18 5 12 10 8 5 5 4 4 3 2 2 2 2 2 2 2 5 6 13 12 10 10 24 83 74 72 66 43 25 34
9 23 13 17 14 18 25 33 36 30 27 23 20 13 14 13 6 10 13 10 6 11 18 37 47 31 18 14 3 1 1 4 5 12 11 10 6 18 96 61 74 36 24 26
10 18 13 22 24 27 34 32 32 29 23 17 7 6 16 15 16 47 38 37 30 45 57 59 44 44 30 29 30 30 7 2 3 4 10 13 7 7 71 42 84 59 28 22
47 32 35 38 42 37 42 41 26 14 8 5 4 6 33 30 61 67 61 39 39 36 46 60 41 18 21 32 37 30 24 28 2 3 5 10 12 7 39 83 70 74 32 38
86 65 56 54 49 47 47 28 9 8 3 3 40 64 86 72 63 58 44 29 29 24 44 57 33 26 32 27 30 31 24 9 17 4 4 6 11 10 17 73 99 59 55 37
96 76 68 63 56 51 36 11 5 3 4 9 88 99 84 62 54 47 32 21 21 18 34 43 39 40 40 30 51 42 29 12 18 10 5 4 7 10 15 70 67 99 80 83
95 91 77 64 57 40 22 4 3 4 8 17 24 31 42 45 56 65 50 29 17 26 39 36 31 30 28 74 97 74 44 14 15 16 5 4 4 8 12 99 57 98 89 77
95 99 80 70 35 11 7 4 3 6 12 14 25 40 39 41 59 56 52 45 44 58 60 59 42 32 65 71 73 96 53 89 55 59 23 6 4 6 18 41 77 99 88 97
97 98 84 51 13 5 4 4 6 14 22 25 35 100 86 60 58 47 54 56 61 69 74 68 49 24 58 90 74 99 82 100 89 90 51 15 17 7 32 44 59 100 94 94
99 98 82 22 7 5 3 5 10 20 22 26 36 55 68 56 54 56 58 68 61 77 85 77 71 22 79 78 99 80 99 99 98 100 90 26 17 46 38 61 61 94 100 99
95 71 32 5 4 4 3 5 15 26 24 48 67 71 71 62 51 65 67 82 79 81 83 86 83 64 70 100 85 52 56 77 98 90 100 89 28 32 99 58 53 88 68 97
51 13 8 7 8 9 26 17 16 18 23 28 76 54 71 51 55 75 75 87 76 72 78 81 86 92 91 84 98 100 56 51 63 97 100 72 60 24 38 100 100 91 96 95
17 12 11 91 98 26 10 11 15 20 18 45 70 55 61 58 59 91 80 89 87 85 75 83 86 96 99 99 99 100 100 90 68 53 75 99 89 56 40 33 53 80 90 86
6 6 6 4 5 7 9 10 8 16 28 61 59 44 42 58 94 96 99 98 100 98 100 100 99 99 100 100 100 90 100 68 100 52 44 42 50 91 80 62 64 61 41 88
9 8 6 6 5 8 12 49 57 29 63 63 59 41 55 99 98 99 100 100 97 93 99 100 100 98 100 100 100 100 98 59 70 91 91 100 88 87 64 97 100 100 89 69
4 4 5 6 6 8 12 32 66 58 82 82 73 69 94 100 99 100 100 100 100 99 99 99 100 98 98 99 100 100 100 100 100 99 96 100 90 99 100 99 85 76 89 97
3 3 3 7 24 22 20 33 62 90 100 100 99 94 100 92 93 100 100 100 98 95 86 76 67 88 92 86 92 97 99 100 100 100 100 100 100 100 100 100 100 100 91 88
3 3 4 5 21 30 58 56 60 81 88 82 99 100 97 88 89 97 88 89 98 74 35 18 19 23 26 29 46 39 53 73 89 89 93 98 100 100 100 97 83 72 66 64
3 3 3 4 44 40 63 76 67 68 71 76 72 91 99 96 89 96 86 71 48 29 24 36 41 41 42 36 32 30 29 28 26 25 36 30 23 20 23 29 32 32 30 33
4 4 4 3 3 8 38 61 56 65 62 65 80 87 95 99 97 99 83 48 34 44 47 45 31 15 9 7 7 6 6 6 6 6 6 6 6 6 6 6 6 6 5 5
4 5 4 4 4 23 67 76 73 78 76 72 82 96 97 98 96 100 77 69 59 45 44 18 8 7 7 7 7 7 6 7 7 8 9 9 9 9 9 8 8 8 8 7
6 5 5 6 14 20 36 56 53 62 78 88 100 100 100 100 100 100 69 44 43 50 26 9 9 10 9 8 8 7 7 7 8 10 12 11 9 7 7 6 6 5 5 5
6 4 4 4 8 8 12 26 42 57 98 100 100 100 100 100 82 68 62 54 52 37 12 10 12 11 10 9 8 8 8 7 6 5 5 5 5 5 6 8 11 12 11 10
5 5 5 5 6 8 14 39 64 88 100 100 100 100 100 100 97 71 64 59 45 20 11 13 12 11 11 10 8 7 8 8 6 7 8 10 12 14 14 13 14 14 14 13
5 5 5 7 9 12 19 27 70 97 100 100 100 100 100 100 100 100 100 78 29 14 13 15 14 15 14 11 10 9 10 12 15 17 19 21 22 20 18 17 16 15 14 13

GFSCGP_500_rhum_135.txt.gz
RH
6 6 6 6 6 12 16 17 10 13 19 20 24 31 28 22 20 18 16 16 13 8 7 7 6 4 3 3 5 5 4 4 4 6 9 16 22 19 10 21 82 97 97 59
9 7 7 7 7 8 9 12 16 14 20 24 32 30 26 23 20 16 11 10 7 5 6 5 4 5 3 8 12 7 3 3 2 3 4 7 13 21 17 13 34 62 93 82
10 10 10 9 8 12 14 13 13 17 27 29 32 27 23 20 16 12 8 8 8 6 4 7 28 33 33 31 25 23 19 21 20 6 2 4 6 11 21 16 13 49 89 99
20 24 20 15 14 16 10 23 19 36 35 36 27 24 19 18 11 14 22 13 7 8 16 20 28 30 26 28 30 26 13 11 30 26 22 4 4 6 12 21 13 19 34 89
38 37 39 36 35 47 41 38 45 48 45 40 23 20 17 14 14 24 17 22 25 36 29 24 22 24 21 25 14 27 30 23 18 18 32 33 5 4 6 15 18 12 22 75
51 51 32 33 73 76 69 62 59 49 43 38 25 26 17 17 30 38 27 52 39 32 25 20 16 17 26 23 15 18 40 35 38 38 41 25 22 4 5 10 17 12 26 44
65 50 66 66 79 81 79 62 54 39 32 22 22 13 12 15 32 29 36 48 41 38 24 16 14 21 44 26 24 33 50 57 52 57 48 31 22 8 4 8 14 13 33 37
80 96 99 79 87 84 76 51 44 27 15 16 7 8 9 46 32 39 27 45 46 40 20 20 18 46 45 21 24 44 56 59 42 20 24 19 13 17 4 6 11 30 60 45
99 82 94 88 99 98 96 84 29 14 7 8 8 9 14 22 47 47 68 57 44 44 43 43 45 45 42 22 46 41 50 93 97 97 80 13 16 18 6 5 10 14 35 84
98 87 100 94 96 100 91 34 14 8 8 6 7 6 14 19 30 59 64 49 53 61 70 64 63 57 41 42 43 42 59 85 82 87 96 90 45 41 17 14 10 27 26 28
99 98 100 94 80 98 57 20 7 6 5 8 11 13 36 39 68 55 63 44 60 81 73 63 72 64 54 57 64 75 46 97 93 100 98 99 75 100 41 50 16 12 93 41
100 93 100 98 100 100 86 39 7 6 10 14 15 13 21 39 96 86 57 48 58 79 75 72 74 65 65 60 46 77 85 100 98 100 98 100 93 99 67 50 29 12 60 98
91 94 100 98 98 84 11 6 11 24 18 18 22 18 24 59 80 67 76 57 70 88 81 76 69 66 70 66 73 78 98 100 86 99 100 99 65 70 50 64 64 45 50 77
90 100 100 82 34 29 69 80 73 15 10 12 18 18 33 71 69 79 58 88 88 98 86 91 91 85 71 69 78 83 92 100 68 79 100 98 99 67 44 52 71 62 77 54
100 100 91 23 49 100 100 99 21 11 9 16 16 24 68 66 59 59 82 100 94 98 86 93 97 100 100 97 100 100 92 100 98 63 82 86 88 100 66 41 68 75 85 66
99 61 28 25 18 54 60 8 13 14 21 29 16 74 68 59 76 92 100 98 97 95 91 97 95 98 100 100 100 100 100 100 85 100 100 96 98 100 90 100 100 52 41 90
81 22 23 17 14 8 6 15 14 22 30 27 56 91 84 82 99 100 98 98 99 92 93 83 78 86 98 95 96 98 100 100 100 100 100 100 98 99 100 100 84 65 81 89
85 95 20 18 17 9 19 25 31 27 33 46 95 100 96 100 100 100 99 98 98 91 79 43 22 36 40 83 88 95 93 92 94 96 97 100 100 100 100 100 100 99 98 100
94 67 15 21 9 12 21 20 31 41 38 81 100 99 100 100 100 97 99 100 99 74 47 25 22 26 33 35 44 53 65 73 55 84 92 92 84 68 74 87 95 100 100 91
9 6 6 8 7 11 18 13 20 46 53 62 71 82 87 91 100 100 100 100 98 47 22 34 44 42 33 14 8 8 9 9 15 8 7 14 27 34 34 36 29 20 14 21
4 4 4 4 4 4 5 6 8 23 42 50 58 77 75 98 99 100 100 100 100 42 40 49 44 20 9 7 7 7 6 6 7 7 8 10 11 12 11 11 10 10 9 9
5 4 4 4 4 6 11 12 17 29 46 62 75 80 92 98 100 100 100 100 91 57 58 48 19 9 8 8 8 7 7 7 7 9 10 13 14 14 13 11 9 7 5 4
8 5 6 6 6 5 5 5 8 14 18 34 48 64 91 100 100 100 100 100 79 58 51 46 14 9 10 9 8 8 8 9 10 11 13 14 10 8 8 7 6 5 4 5
6 6 5 5 6 5 5 6 6 9 13 24 46 92 100 100 100 100 100 100 88 72 59 38 13 11 11 9 9 9 9 8 12 14 13 8 6 6 6 7 8 9 9 10
6 6 6 5 5 5 6 7 10 13 22 55 88 100 100 100 100 100 100 100 100 98 64 28 13 13 12 10 10 10 10 10 11 10 9 7 8 9 11 14 16 16 15 15
7 5 6 5 5 5 6 8 10 12 23 72 95 100 100 100 100 100 100 100 100 98 58 22 14 14 14 16 14 11 10 11 12 14 16 19 21 22 20 20 19 17 16 15